<?xml version="1.0" encoding="UTF-8" standalone="no" ?>
<gpx xmlns="http://www.topografix.com/GPX/1/1" xmlns:xsi="http://www.w3.org/2001/XMLSchema-instance" xsi:schemaLocation="http://www.topografix.com/GPX/1/1 http://www.topografix.com/GPX/1/1/gpx.xsd" version="1.1" creator="VisuGPX - https://www.visugpx.com">
  <metadata>
    <name>VTT - Rando de Montréal</name>
    <desc><![CDATA[Très chouette rando vtt dans des coins géniaux avec des singles excellents ;))]]></desc>
  </metadata>
  <trk>
    <name><![CDATA[08-MAI-16 11:44:18]]></name>
    <trkseg>
      <trkpt lat="44.52834" lon="4.29207">
        <ele>288.05</ele>
        <time>2016-05-08T06:31:27Z</time>
      </trkpt>
      <trkpt lat="44.52834" lon="4.29207">
        <ele>288.05</ele>
        <time>2016-05-08T06:31:28Z</time>
      </trkpt>
      <trkpt lat="44.52837" lon="4.29213">
        <ele>288.53</ele>
        <time>2016-05-08T06:31:57Z</time>
      </trkpt>
      <trkpt lat="44.52835" lon="4.29213">
        <ele>288.53</ele>
        <time>2016-05-08T06:32:00Z</time>
      </trkpt>
      <trkpt lat="44.52835" lon="4.29197">
        <ele>289.49</ele>
        <time>2016-05-08T06:34:50Z</time>
      </trkpt>
      <trkpt lat="44.52836" lon="4.29199">
        <ele>289.49</ele>
        <time>2016-05-08T06:34:51Z</time>
      </trkpt>
      <trkpt lat="44.52832" lon="4.2921">
        <ele>289.49</ele>
        <time>2016-05-08T06:35:05Z</time>
      </trkpt>
      <trkpt lat="44.52832" lon="4.2921">
        <ele>291.42</ele>
        <time>2016-05-08T06:35:11Z</time>
      </trkpt>
      <trkpt lat="44.52835" lon="4.29212">
        <ele>293.34</ele>
        <time>2016-05-08T06:35:26Z</time>
      </trkpt>
      <trkpt lat="44.52832" lon="4.29209">
        <ele>294.78</ele>
        <time>2016-05-08T06:35:41Z</time>
      </trkpt>
      <trkpt lat="44.52831" lon="4.2921">
        <ele>295.26</ele>
        <time>2016-05-08T06:36:05Z</time>
      </trkpt>
      <trkpt lat="44.52831" lon="4.29208">
        <ele>295.26</ele>
        <time>2016-05-08T06:36:14Z</time>
      </trkpt>
      <trkpt lat="44.52837" lon="4.29204">
        <ele>295.26</ele>
        <time>2016-05-08T06:36:19Z</time>
      </trkpt>
      <trkpt lat="44.52835" lon="4.29156">
        <ele>293.82</ele>
        <time>2016-05-08T06:36:29Z</time>
      </trkpt>
      <trkpt lat="44.52836" lon="4.2915">
        <ele>293.34</ele>
        <time>2016-05-08T06:36:30Z</time>
      </trkpt>
      <trkpt lat="44.52835" lon="4.29146">
        <ele>293.34</ele>
        <time>2016-05-08T06:36:31Z</time>
      </trkpt>
      <trkpt lat="44.52835" lon="4.29143">
        <ele>292.38</ele>
        <time>2016-05-08T06:36:42Z</time>
      </trkpt>
      <trkpt lat="44.52835" lon="4.29141">
        <ele>292.38</ele>
        <time>2016-05-08T06:36:54Z</time>
      </trkpt>
      <trkpt lat="44.52835" lon="4.29134">
        <ele>292.38</ele>
        <time>2016-05-08T06:36:57Z</time>
      </trkpt>
      <trkpt lat="44.52835" lon="4.29131">
        <ele>292.38</ele>
        <time>2016-05-08T06:36:58Z</time>
      </trkpt>
      <trkpt lat="44.52835" lon="4.29127">
        <ele>292.38</ele>
        <time>2016-05-08T06:36:59Z</time>
      </trkpt>
      <trkpt lat="44.52834" lon="4.29123">
        <ele>292.38</ele>
        <time>2016-05-08T06:37:00Z</time>
      </trkpt>
      <trkpt lat="44.52834" lon="4.29119">
        <ele>292.38</ele>
        <time>2016-05-08T06:37:01Z</time>
      </trkpt>
      <trkpt lat="44.5283" lon="4.29077">
        <ele>291.42</ele>
        <time>2016-05-08T06:37:09Z</time>
      </trkpt>
      <trkpt lat="44.52831" lon="4.29071">
        <ele>291.9</ele>
        <time>2016-05-08T06:37:10Z</time>
      </trkpt>
      <trkpt lat="44.52833" lon="4.29066">
        <ele>291.42</ele>
        <time>2016-05-08T06:37:11Z</time>
      </trkpt>
      <trkpt lat="44.5285" lon="4.29003">
        <ele>291.42</ele>
        <time>2016-05-08T06:37:23Z</time>
      </trkpt>
      <trkpt lat="44.52857" lon="4.28961">
        <ele>289.97</ele>
        <time>2016-05-08T06:37:29Z</time>
      </trkpt>
      <trkpt lat="44.52864" lon="4.28934">
        <ele>289.97</ele>
        <time>2016-05-08T06:37:33Z</time>
      </trkpt>
      <trkpt lat="44.52867" lon="4.28922">
        <ele>289.97</ele>
        <time>2016-05-08T06:37:35Z</time>
      </trkpt>
      <trkpt lat="44.52869" lon="4.28915">
        <ele>290.46</ele>
        <time>2016-05-08T06:37:36Z</time>
      </trkpt>
      <trkpt lat="44.52887" lon="4.28862">
        <ele>291.42</ele>
        <time>2016-05-08T06:37:46Z</time>
      </trkpt>
      <trkpt lat="44.52894" lon="4.28831">
        <ele>294.3</ele>
        <time>2016-05-08T06:37:54Z</time>
      </trkpt>
      <trkpt lat="44.529" lon="4.28801">
        <ele>296.7</ele>
        <time>2016-05-08T06:38:03Z</time>
      </trkpt>
      <trkpt lat="44.52892" lon="4.2875">
        <ele>297.18</ele>
        <time>2016-05-08T06:38:16Z</time>
      </trkpt>
      <trkpt lat="44.52872" lon="4.28691">
        <ele>296.22</ele>
        <time>2016-05-08T06:38:29Z</time>
      </trkpt>
      <trkpt lat="44.52856" lon="4.28626">
        <ele>296.7</ele>
        <time>2016-05-08T06:38:41Z</time>
      </trkpt>
      <trkpt lat="44.52842" lon="4.28554">
        <ele>297.67</ele>
        <time>2016-05-08T06:38:55Z</time>
      </trkpt>
      <trkpt lat="44.52848" lon="4.28523">
        <ele>299.59</ele>
        <time>2016-05-08T06:39:06Z</time>
      </trkpt>
      <trkpt lat="44.52854" lon="4.2851">
        <ele>301.51</ele>
        <time>2016-05-08T06:39:16Z</time>
      </trkpt>
      <trkpt lat="44.52855" lon="4.28509">
        <ele>301.51</ele>
        <time>2016-05-08T06:39:17Z</time>
      </trkpt>
      <trkpt lat="44.52855" lon="4.28504">
        <ele>301.99</ele>
        <time>2016-05-08T06:39:20Z</time>
      </trkpt>
      <trkpt lat="44.52856" lon="4.28502">
        <ele>301.99</ele>
        <time>2016-05-08T06:39:21Z</time>
      </trkpt>
      <trkpt lat="44.52858" lon="4.28493">
        <ele>303.43</ele>
        <time>2016-05-08T06:39:27Z</time>
      </trkpt>
      <trkpt lat="44.52866" lon="4.2848">
        <ele>304.39</ele>
        <time>2016-05-08T06:39:40Z</time>
      </trkpt>
      <trkpt lat="44.52869" lon="4.28471">
        <ele>305.84</ele>
        <time>2016-05-08T06:39:46Z</time>
      </trkpt>
      <trkpt lat="44.5287" lon="4.28469">
        <ele>305.84</ele>
        <time>2016-05-08T06:39:47Z</time>
      </trkpt>
      <trkpt lat="44.52872" lon="4.28461">
        <ele>306.32</ele>
        <time>2016-05-08T06:39:50Z</time>
      </trkpt>
      <trkpt lat="44.52883" lon="4.28428">
        <ele>308.72</ele>
        <time>2016-05-08T06:40:02Z</time>
      </trkpt>
      <trkpt lat="44.52892" lon="4.28407">
        <ele>310.64</ele>
        <time>2016-05-08T06:40:14Z</time>
      </trkpt>
      <trkpt lat="44.52892" lon="4.284">
        <ele>311.12</ele>
        <time>2016-05-08T06:40:18Z</time>
      </trkpt>
      <trkpt lat="44.52898" lon="4.28358">
        <ele>313.05</ele>
        <time>2016-05-08T06:40:31Z</time>
      </trkpt>
      <trkpt lat="44.52907" lon="4.28314">
        <ele>314.49</ele>
        <time>2016-05-08T06:40:42Z</time>
      </trkpt>
      <trkpt lat="44.52908" lon="4.28311">
        <ele>314.97</ele>
        <time>2016-05-08T06:40:43Z</time>
      </trkpt>
      <trkpt lat="44.52908" lon="4.28308">
        <ele>315.45</ele>
        <time>2016-05-08T06:40:44Z</time>
      </trkpt>
      <trkpt lat="44.52909" lon="4.28304">
        <ele>315.45</ele>
        <time>2016-05-08T06:40:45Z</time>
      </trkpt>
      <trkpt lat="44.52909" lon="4.28302">
        <ele>315.45</ele>
        <time>2016-05-08T06:40:46Z</time>
      </trkpt>
      <trkpt lat="44.5291" lon="4.28299">
        <ele>315.45</ele>
        <time>2016-05-08T06:40:47Z</time>
      </trkpt>
      <trkpt lat="44.5291" lon="4.28295">
        <ele>315.93</ele>
        <time>2016-05-08T06:40:48Z</time>
      </trkpt>
      <trkpt lat="44.5291" lon="4.28292">
        <ele>315.93</ele>
        <time>2016-05-08T06:40:49Z</time>
      </trkpt>
      <trkpt lat="44.52911" lon="4.28289">
        <ele>316.41</ele>
        <time>2016-05-08T06:40:50Z</time>
      </trkpt>
      <trkpt lat="44.52911" lon="4.28286">
        <ele>316.41</ele>
        <time>2016-05-08T06:40:51Z</time>
      </trkpt>
      <trkpt lat="44.52918" lon="4.28254">
        <ele>318.33</ele>
        <time>2016-05-08T06:41:04Z</time>
      </trkpt>
      <trkpt lat="44.52924" lon="4.28229">
        <ele>320.26</ele>
        <time>2016-05-08T06:41:16Z</time>
      </trkpt>
      <trkpt lat="44.52925" lon="4.28227">
        <ele>320.74</ele>
        <time>2016-05-08T06:41:17Z</time>
      </trkpt>
      <trkpt lat="44.52925" lon="4.28225">
        <ele>320.74</ele>
        <time>2016-05-08T06:41:18Z</time>
      </trkpt>
      <trkpt lat="44.52926" lon="4.28223">
        <ele>321.22</ele>
        <time>2016-05-08T06:41:19Z</time>
      </trkpt>
      <trkpt lat="44.52927" lon="4.2822">
        <ele>321.22</ele>
        <time>2016-05-08T06:41:20Z</time>
      </trkpt>
      <trkpt lat="44.52928" lon="4.28218">
        <ele>321.22</ele>
        <time>2016-05-08T06:41:21Z</time>
      </trkpt>
      <trkpt lat="44.52929" lon="4.28202">
        <ele>322.18</ele>
        <time>2016-05-08T06:41:28Z</time>
      </trkpt>
      <trkpt lat="44.52939" lon="4.28167">
        <ele>324.1</ele>
        <time>2016-05-08T06:41:43Z</time>
      </trkpt>
      <trkpt lat="44.5294" lon="4.28165">
        <ele>324.1</ele>
        <time>2016-05-08T06:41:44Z</time>
      </trkpt>
      <trkpt lat="44.5294" lon="4.28163">
        <ele>324.1</ele>
        <time>2016-05-08T06:41:45Z</time>
      </trkpt>
      <trkpt lat="44.5294" lon="4.2816">
        <ele>324.1</ele>
        <time>2016-05-08T06:41:46Z</time>
      </trkpt>
      <trkpt lat="44.52947" lon="4.28129">
        <ele>326.5</ele>
        <time>2016-05-08T06:41:59Z</time>
      </trkpt>
      <trkpt lat="44.52947" lon="4.28127">
        <ele>326.99</ele>
        <time>2016-05-08T06:42:00Z</time>
      </trkpt>
      <trkpt lat="44.52947" lon="4.28124">
        <ele>326.99</ele>
        <time>2016-05-08T06:42:01Z</time>
      </trkpt>
      <trkpt lat="44.52948" lon="4.28122">
        <ele>327.47</ele>
        <time>2016-05-08T06:42:02Z</time>
      </trkpt>
      <trkpt lat="44.52949" lon="4.2812">
        <ele>327.95</ele>
        <time>2016-05-08T06:42:03Z</time>
      </trkpt>
      <trkpt lat="44.52951" lon="4.28109">
        <ele>328.43</ele>
        <time>2016-05-08T06:42:08Z</time>
      </trkpt>
      <trkpt lat="44.52951" lon="4.28107">
        <ele>328.91</ele>
        <time>2016-05-08T06:42:09Z</time>
      </trkpt>
      <trkpt lat="44.52957" lon="4.28081">
        <ele>330.35</ele>
        <time>2016-05-08T06:42:19Z</time>
      </trkpt>
      <trkpt lat="44.52958" lon="4.28079">
        <ele>330.83</ele>
        <time>2016-05-08T06:42:20Z</time>
      </trkpt>
      <trkpt lat="44.5296" lon="4.28074">
        <ele>331.31</ele>
        <time>2016-05-08T06:42:22Z</time>
      </trkpt>
      <trkpt lat="44.52961" lon="4.28072">
        <ele>331.31</ele>
        <time>2016-05-08T06:42:23Z</time>
      </trkpt>
      <trkpt lat="44.52962" lon="4.28069">
        <ele>331.79</ele>
        <time>2016-05-08T06:42:24Z</time>
      </trkpt>
      <trkpt lat="44.52963" lon="4.28065">
        <ele>331.79</ele>
        <time>2016-05-08T06:42:25Z</time>
      </trkpt>
      <trkpt lat="44.52963" lon="4.28063">
        <ele>332.27</ele>
        <time>2016-05-08T06:42:26Z</time>
      </trkpt>
      <trkpt lat="44.52964" lon="4.2806">
        <ele>332.27</ele>
        <time>2016-05-08T06:42:27Z</time>
      </trkpt>
      <trkpt lat="44.52965" lon="4.28058">
        <ele>332.27</ele>
        <time>2016-05-08T06:42:28Z</time>
      </trkpt>
      <trkpt lat="44.52974" lon="4.28038">
        <ele>334.2</ele>
        <time>2016-05-08T06:42:40Z</time>
      </trkpt>
      <trkpt lat="44.52979" lon="4.28027">
        <ele>335.16</ele>
        <time>2016-05-08T06:42:49Z</time>
      </trkpt>
      <trkpt lat="44.52981" lon="4.2802">
        <ele>335.64</ele>
        <time>2016-05-08T06:42:52Z</time>
      </trkpt>
      <trkpt lat="44.52985" lon="4.27992">
        <ele>336.12</ele>
        <time>2016-05-08T06:43:02Z</time>
      </trkpt>
      <trkpt lat="44.52985" lon="4.27982">
        <ele>336.6</ele>
        <time>2016-05-08T06:43:06Z</time>
      </trkpt>
      <trkpt lat="44.52987" lon="4.27969">
        <ele>336.6</ele>
        <time>2016-05-08T06:43:11Z</time>
      </trkpt>
      <trkpt lat="44.52988" lon="4.27967">
        <ele>336.6</ele>
        <time>2016-05-08T06:43:12Z</time>
      </trkpt>
      <trkpt lat="44.52985" lon="4.27947">
        <ele>337.08</ele>
        <time>2016-05-08T06:43:20Z</time>
      </trkpt>
      <trkpt lat="44.52984" lon="4.27902">
        <ele>338.04</ele>
        <time>2016-05-08T06:43:34Z</time>
      </trkpt>
      <trkpt lat="44.52985" lon="4.2787">
        <ele>339.48</ele>
        <time>2016-05-08T06:43:46Z</time>
      </trkpt>
      <trkpt lat="44.52984" lon="4.27867">
        <ele>339.48</ele>
        <time>2016-05-08T06:43:47Z</time>
      </trkpt>
      <trkpt lat="44.52982" lon="4.27843">
        <ele>340.92</ele>
        <time>2016-05-08T06:43:56Z</time>
      </trkpt>
      <trkpt lat="44.5298" lon="4.27805">
        <ele>341.89</ele>
        <time>2016-05-08T06:44:08Z</time>
      </trkpt>
      <trkpt lat="44.52974" lon="4.27775">
        <ele>343.33</ele>
        <time>2016-05-08T06:44:19Z</time>
      </trkpt>
      <trkpt lat="44.5297" lon="4.27741">
        <ele>345.25</ele>
        <time>2016-05-08T06:44:31Z</time>
      </trkpt>
      <trkpt lat="44.52967" lon="4.27702">
        <ele>346.21</ele>
        <time>2016-05-08T06:44:46Z</time>
      </trkpt>
      <trkpt lat="44.52966" lon="4.277">
        <ele>346.69</ele>
        <time>2016-05-08T06:44:47Z</time>
      </trkpt>
      <trkpt lat="44.52955" lon="4.27667">
        <ele>348.13</ele>
        <time>2016-05-08T06:45:01Z</time>
      </trkpt>
      <trkpt lat="44.52949" lon="4.27619">
        <ele>349.58</ele>
        <time>2016-05-08T06:45:13Z</time>
      </trkpt>
      <trkpt lat="44.52941" lon="4.27564">
        <ele>351.02</ele>
        <time>2016-05-08T06:45:29Z</time>
      </trkpt>
      <trkpt lat="44.52937" lon="4.2755">
        <ele>351.5</ele>
        <time>2016-05-08T06:45:34Z</time>
      </trkpt>
      <trkpt lat="44.5293" lon="4.27497">
        <ele>353.9</ele>
        <time>2016-05-08T06:45:46Z</time>
      </trkpt>
      <trkpt lat="44.52925" lon="4.27449">
        <ele>355.34</ele>
        <time>2016-05-08T06:45:58Z</time>
      </trkpt>
      <trkpt lat="44.52919" lon="4.27411">
        <ele>355.83</ele>
        <time>2016-05-08T06:46:09Z</time>
      </trkpt>
      <trkpt lat="44.52905" lon="4.27369">
        <ele>356.79</ele>
        <time>2016-05-08T06:46:22Z</time>
      </trkpt>
      <trkpt lat="44.52898" lon="4.27302">
        <ele>357.27</ele>
        <time>2016-05-08T06:46:36Z</time>
      </trkpt>
      <trkpt lat="44.52895" lon="4.27227">
        <ele>357.75</ele>
        <time>2016-05-08T06:46:52Z</time>
      </trkpt>
      <trkpt lat="44.52883" lon="4.2715">
        <ele>359.67</ele>
        <time>2016-05-08T06:47:09Z</time>
      </trkpt>
      <trkpt lat="44.52872" lon="4.27094">
        <ele>362.07</ele>
        <time>2016-05-08T06:47:23Z</time>
      </trkpt>
      <trkpt lat="44.52868" lon="4.27058">
        <ele>364</ele>
        <time>2016-05-08T06:47:34Z</time>
      </trkpt>
      <trkpt lat="44.52859" lon="4.27023">
        <ele>365.44</ele>
        <time>2016-05-08T06:47:47Z</time>
      </trkpt>
      <trkpt lat="44.52846" lon="4.26985">
        <ele>365.92</ele>
        <time>2016-05-08T06:47:58Z</time>
      </trkpt>
      <trkpt lat="44.52828" lon="4.26947">
        <ele>364.96</ele>
        <time>2016-05-08T06:48:09Z</time>
      </trkpt>
      <trkpt lat="44.52805" lon="4.26891">
        <ele>364</ele>
        <time>2016-05-08T06:48:15Z</time>
      </trkpt>
      <trkpt lat="44.52772" lon="4.26837">
        <ele>363.52</ele>
        <time>2016-05-08T06:48:27Z</time>
      </trkpt>
      <trkpt lat="44.52768" lon="4.26826">
        <ele>363.52</ele>
        <time>2016-05-08T06:48:30Z</time>
      </trkpt>
      <trkpt lat="44.52767" lon="4.26823">
        <ele>363.52</ele>
        <time>2016-05-08T06:48:31Z</time>
      </trkpt>
      <trkpt lat="44.52763" lon="4.26776">
        <ele>363.52</ele>
        <time>2016-05-08T06:48:42Z</time>
      </trkpt>
      <trkpt lat="44.52764" lon="4.26722">
        <ele>365.44</ele>
        <time>2016-05-08T06:48:55Z</time>
      </trkpt>
      <trkpt lat="44.52769" lon="4.26686">
        <ele>365.92</ele>
        <time>2016-05-08T06:49:03Z</time>
      </trkpt>
      <trkpt lat="44.5277" lon="4.2668">
        <ele>365.44</ele>
        <time>2016-05-08T06:49:04Z</time>
      </trkpt>
      <trkpt lat="44.52771" lon="4.26677">
        <ele>365.92</ele>
        <time>2016-05-08T06:49:05Z</time>
      </trkpt>
      <trkpt lat="44.52772" lon="4.26673">
        <ele>366.4</ele>
        <time>2016-05-08T06:49:06Z</time>
      </trkpt>
      <trkpt lat="44.52773" lon="4.2667">
        <ele>366.4</ele>
        <time>2016-05-08T06:49:07Z</time>
      </trkpt>
      <trkpt lat="44.52774" lon="4.26667">
        <ele>366.4</ele>
        <time>2016-05-08T06:49:08Z</time>
      </trkpt>
      <trkpt lat="44.52776" lon="4.26664">
        <ele>366.88</ele>
        <time>2016-05-08T06:49:09Z</time>
      </trkpt>
      <trkpt lat="44.52777" lon="4.26661">
        <ele>366.88</ele>
        <time>2016-05-08T06:49:10Z</time>
      </trkpt>
      <trkpt lat="44.52778" lon="4.26657">
        <ele>367.36</ele>
        <time>2016-05-08T06:49:11Z</time>
      </trkpt>
      <trkpt lat="44.5278" lon="4.26654">
        <ele>367.36</ele>
        <time>2016-05-08T06:49:12Z</time>
      </trkpt>
      <trkpt lat="44.52782" lon="4.2665">
        <ele>367.36</ele>
        <time>2016-05-08T06:49:13Z</time>
      </trkpt>
      <trkpt lat="44.52783" lon="4.26647">
        <ele>367.36</ele>
        <time>2016-05-08T06:49:14Z</time>
      </trkpt>
      <trkpt lat="44.52784" lon="4.26643">
        <ele>367.36</ele>
        <time>2016-05-08T06:49:15Z</time>
      </trkpt>
      <trkpt lat="44.52785" lon="4.2664">
        <ele>368.32</ele>
        <time>2016-05-08T06:49:16Z</time>
      </trkpt>
      <trkpt lat="44.52785" lon="4.26637">
        <ele>368.32</ele>
        <time>2016-05-08T06:49:17Z</time>
      </trkpt>
      <trkpt lat="44.52785" lon="4.26634">
        <ele>368.8</ele>
        <time>2016-05-08T06:49:18Z</time>
      </trkpt>
      <trkpt lat="44.52784" lon="4.26625">
        <ele>369.76</ele>
        <time>2016-05-08T06:49:21Z</time>
      </trkpt>
      <trkpt lat="44.52784" lon="4.2662">
        <ele>370.24</ele>
        <time>2016-05-08T06:49:23Z</time>
      </trkpt>
      <trkpt lat="44.52784" lon="4.26618">
        <ele>370.24</ele>
        <time>2016-05-08T06:49:24Z</time>
      </trkpt>
      <trkpt lat="44.52784" lon="4.26614">
        <ele>370.24</ele>
        <time>2016-05-08T06:49:25Z</time>
      </trkpt>
      <trkpt lat="44.52783" lon="4.26611">
        <ele>370.73</ele>
        <time>2016-05-08T06:49:26Z</time>
      </trkpt>
      <trkpt lat="44.52782" lon="4.26607">
        <ele>370.73</ele>
        <time>2016-05-08T06:49:27Z</time>
      </trkpt>
      <trkpt lat="44.52781" lon="4.26603">
        <ele>371.21</ele>
        <time>2016-05-08T06:49:28Z</time>
      </trkpt>
      <trkpt lat="44.52781" lon="4.266">
        <ele>371.21</ele>
        <time>2016-05-08T06:49:29Z</time>
      </trkpt>
      <trkpt lat="44.52781" lon="4.26598">
        <ele>371.69</ele>
        <time>2016-05-08T06:49:30Z</time>
      </trkpt>
      <trkpt lat="44.52781" lon="4.26595">
        <ele>371.69</ele>
        <time>2016-05-08T06:49:31Z</time>
      </trkpt>
      <trkpt lat="44.52782" lon="4.26592">
        <ele>372.17</ele>
        <time>2016-05-08T06:49:32Z</time>
      </trkpt>
      <trkpt lat="44.52783" lon="4.26588">
        <ele>372.17</ele>
        <time>2016-05-08T06:49:33Z</time>
      </trkpt>
      <trkpt lat="44.52789" lon="4.26561">
        <ele>373.61</ele>
        <time>2016-05-08T06:49:43Z</time>
      </trkpt>
      <trkpt lat="44.5279" lon="4.2654">
        <ele>374.57</ele>
        <time>2016-05-08T06:49:49Z</time>
      </trkpt>
      <trkpt lat="44.52792" lon="4.26538">
        <ele>374.57</ele>
        <time>2016-05-08T06:49:50Z</time>
      </trkpt>
      <trkpt lat="44.52817" lon="4.26525">
        <ele>376.01</ele>
        <time>2016-05-08T06:50:01Z</time>
      </trkpt>
      <trkpt lat="44.52831" lon="4.26509">
        <ele>376.97</ele>
        <time>2016-05-08T06:50:09Z</time>
      </trkpt>
      <trkpt lat="44.52832" lon="4.26507">
        <ele>376.97</ele>
        <time>2016-05-08T06:50:10Z</time>
      </trkpt>
      <trkpt lat="44.52833" lon="4.26505">
        <ele>376.97</ele>
        <time>2016-05-08T06:50:11Z</time>
      </trkpt>
      <trkpt lat="44.52834" lon="4.26504">
        <ele>377.45</ele>
        <time>2016-05-08T06:50:12Z</time>
      </trkpt>
      <trkpt lat="44.52836" lon="4.26503">
        <ele>377.45</ele>
        <time>2016-05-08T06:50:13Z</time>
      </trkpt>
      <trkpt lat="44.52837" lon="4.26502">
        <ele>377.45</ele>
        <time>2016-05-08T06:50:17Z</time>
      </trkpt>
      <trkpt lat="44.52839" lon="4.26502">
        <ele>377.45</ele>
        <time>2016-05-08T06:50:22Z</time>
      </trkpt>
      <trkpt lat="44.5284" lon="4.26501">
        <ele>377.45</ele>
        <time>2016-05-08T06:50:23Z</time>
      </trkpt>
      <trkpt lat="44.52842" lon="4.26498">
        <ele>377.94</ele>
        <time>2016-05-08T06:50:25Z</time>
      </trkpt>
      <trkpt lat="44.52845" lon="4.26495">
        <ele>378.42</ele>
        <time>2016-05-08T06:50:27Z</time>
      </trkpt>
      <trkpt lat="44.52854" lon="4.2649">
        <ele>378.9</ele>
        <time>2016-05-08T06:50:31Z</time>
      </trkpt>
      <trkpt lat="44.52884" lon="4.26491">
        <ele>379.86</ele>
        <time>2016-05-08T06:50:44Z</time>
      </trkpt>
      <trkpt lat="44.52886" lon="4.2649">
        <ele>379.86</ele>
        <time>2016-05-08T06:50:45Z</time>
      </trkpt>
      <trkpt lat="44.52897" lon="4.26456">
        <ele>377.94</ele>
        <time>2016-05-08T06:50:54Z</time>
      </trkpt>
      <trkpt lat="44.52895" lon="4.26452">
        <ele>377.94</ele>
        <time>2016-05-08T06:50:55Z</time>
      </trkpt>
      <trkpt lat="44.52871" lon="4.26435">
        <ele>377.45</ele>
        <time>2016-05-08T06:51:04Z</time>
      </trkpt>
      <trkpt lat="44.52865" lon="4.26435">
        <ele>376.49</ele>
        <time>2016-05-08T06:51:06Z</time>
      </trkpt>
      <trkpt lat="44.52861" lon="4.26432">
        <ele>376.01</ele>
        <time>2016-05-08T06:51:08Z</time>
      </trkpt>
      <trkpt lat="44.52855" lon="4.26423">
        <ele>375.53</ele>
        <time>2016-05-08T06:51:12Z</time>
      </trkpt>
      <trkpt lat="44.52851" lon="4.26409">
        <ele>376.49</ele>
        <time>2016-05-08T06:51:17Z</time>
      </trkpt>
      <trkpt lat="44.52852" lon="4.26379">
        <ele>378.9</ele>
        <time>2016-05-08T06:51:30Z</time>
      </trkpt>
      <trkpt lat="44.5285" lon="4.26373">
        <ele>379.38</ele>
        <time>2016-05-08T06:51:33Z</time>
      </trkpt>
      <trkpt lat="44.52851" lon="4.26361">
        <ele>379.38</ele>
        <time>2016-05-08T06:51:40Z</time>
      </trkpt>
      <trkpt lat="44.52847" lon="4.26358">
        <ele>379.38</ele>
        <time>2016-05-08T06:51:44Z</time>
      </trkpt>
      <trkpt lat="44.5284" lon="4.26347">
        <ele>378.9</ele>
        <time>2016-05-08T06:51:49Z</time>
      </trkpt>
      <trkpt lat="44.52838" lon="4.26338">
        <ele>378.42</ele>
        <time>2016-05-08T06:51:52Z</time>
      </trkpt>
      <trkpt lat="44.52836" lon="4.26332">
        <ele>377.94</ele>
        <time>2016-05-08T06:51:54Z</time>
      </trkpt>
      <trkpt lat="44.52835" lon="4.26325">
        <ele>377.45</ele>
        <time>2016-05-08T06:52:04Z</time>
      </trkpt>
      <trkpt lat="44.52824" lon="4.26331">
        <ele>377.45</ele>
        <time>2016-05-08T06:52:16Z</time>
      </trkpt>
      <trkpt lat="44.52824" lon="4.26331">
        <ele>377.45</ele>
        <time>2016-05-08T06:52:29Z</time>
      </trkpt>
      <trkpt lat="44.52824" lon="4.26331">
        <ele>377.45</ele>
        <time>2016-05-08T06:52:34Z</time>
      </trkpt>
      <trkpt lat="44.52823" lon="4.26327">
        <ele>377.94</ele>
        <time>2016-05-08T06:52:37Z</time>
      </trkpt>
      <trkpt lat="44.52819" lon="4.2632">
        <ele>376.97</ele>
        <time>2016-05-08T06:52:41Z</time>
      </trkpt>
      <trkpt lat="44.52812" lon="4.26313">
        <ele>374.09</ele>
        <time>2016-05-08T06:52:47Z</time>
      </trkpt>
      <trkpt lat="44.52814" lon="4.2631">
        <ele>374.57</ele>
        <time>2016-05-08T06:52:49Z</time>
      </trkpt>
      <trkpt lat="44.52838" lon="4.263">
        <ele>376.01</ele>
        <time>2016-05-08T06:52:59Z</time>
      </trkpt>
      <trkpt lat="44.52852" lon="4.26294">
        <ele>377.45</ele>
        <time>2016-05-08T06:53:04Z</time>
      </trkpt>
      <trkpt lat="44.52857" lon="4.26285">
        <ele>377.94</ele>
        <time>2016-05-08T06:53:07Z</time>
      </trkpt>
      <trkpt lat="44.52854" lon="4.26267">
        <ele>378.42</ele>
        <time>2016-05-08T06:53:19Z</time>
      </trkpt>
      <trkpt lat="44.52853" lon="4.26266">
        <ele>377.45</ele>
        <time>2016-05-08T06:53:34Z</time>
      </trkpt>
      <trkpt lat="44.52852" lon="4.26264">
        <ele>378.42</ele>
        <time>2016-05-08T06:54:02Z</time>
      </trkpt>
      <trkpt lat="44.52852" lon="4.26264">
        <ele>378.42</ele>
        <time>2016-05-08T06:54:20Z</time>
      </trkpt>
      <trkpt lat="44.52853" lon="4.26264">
        <ele>378.42</ele>
        <time>2016-05-08T06:54:37Z</time>
      </trkpt>
      <trkpt lat="44.52851" lon="4.26245">
        <ele>379.86</ele>
        <time>2016-05-08T06:54:53Z</time>
      </trkpt>
      <trkpt lat="44.52851" lon="4.2624">
        <ele>380.34</ele>
        <time>2016-05-08T06:54:54Z</time>
      </trkpt>
      <trkpt lat="44.52859" lon="4.26218">
        <ele>381.3</ele>
        <time>2016-05-08T06:55:04Z</time>
      </trkpt>
      <trkpt lat="44.52861" lon="4.26216">
        <ele>382.26</ele>
        <time>2016-05-08T06:55:14Z</time>
      </trkpt>
      <trkpt lat="44.5287" lon="4.26208">
        <ele>384.18</ele>
        <time>2016-05-08T06:55:21Z</time>
      </trkpt>
      <trkpt lat="44.52872" lon="4.26201">
        <ele>385.15</ele>
        <time>2016-05-08T06:55:24Z</time>
      </trkpt>
      <trkpt lat="44.52878" lon="4.26177">
        <ele>388.51</ele>
        <time>2016-05-08T06:55:37Z</time>
      </trkpt>
      <trkpt lat="44.52875" lon="4.26169">
        <ele>391.87</ele>
        <time>2016-05-08T06:55:46Z</time>
      </trkpt>
      <trkpt lat="44.52876" lon="4.26164">
        <ele>391.87</ele>
        <time>2016-05-08T06:55:48Z</time>
      </trkpt>
      <trkpt lat="44.52875" lon="4.26142">
        <ele>394.28</ele>
        <time>2016-05-08T06:55:56Z</time>
      </trkpt>
      <trkpt lat="44.52856" lon="4.26102">
        <ele>395.24</ele>
        <time>2016-05-08T06:56:09Z</time>
      </trkpt>
      <trkpt lat="44.52826" lon="4.26092">
        <ele>397.64</ele>
        <time>2016-05-08T06:56:21Z</time>
      </trkpt>
      <trkpt lat="44.52819" lon="4.26078">
        <ele>400.53</ele>
        <time>2016-05-08T06:56:30Z</time>
      </trkpt>
      <trkpt lat="44.52816" lon="4.26075">
        <ele>402.45</ele>
        <time>2016-05-08T06:56:35Z</time>
      </trkpt>
      <trkpt lat="44.52815" lon="4.2606">
        <ele>404.37</ele>
        <time>2016-05-08T06:56:41Z</time>
      </trkpt>
      <trkpt lat="44.5281" lon="4.26041">
        <ele>405.81</ele>
        <time>2016-05-08T06:56:50Z</time>
      </trkpt>
      <trkpt lat="44.52814" lon="4.26033">
        <ele>405.81</ele>
        <time>2016-05-08T06:56:55Z</time>
      </trkpt>
      <trkpt lat="44.52836" lon="4.26021">
        <ele>407.74</ele>
        <time>2016-05-08T06:57:08Z</time>
      </trkpt>
      <trkpt lat="44.52856" lon="4.2603">
        <ele>407.74</ele>
        <time>2016-05-08T06:57:19Z</time>
      </trkpt>
      <trkpt lat="44.52859" lon="4.26031">
        <ele>407.74</ele>
        <time>2016-05-08T06:57:20Z</time>
      </trkpt>
      <trkpt lat="44.52868" lon="4.26002">
        <ele>408.7</ele>
        <time>2016-05-08T06:57:30Z</time>
      </trkpt>
      <trkpt lat="44.52868" lon="4.25995">
        <ele>408.7</ele>
        <time>2016-05-08T06:57:32Z</time>
      </trkpt>
      <trkpt lat="44.52878" lon="4.25949">
        <ele>409.18</ele>
        <time>2016-05-08T06:57:44Z</time>
      </trkpt>
      <trkpt lat="44.52891" lon="4.25938">
        <ele>407.26</ele>
        <time>2016-05-08T06:57:50Z</time>
      </trkpt>
      <trkpt lat="44.52897" lon="4.25896">
        <ele>406.77</ele>
        <time>2016-05-08T06:58:03Z</time>
      </trkpt>
      <trkpt lat="44.52897" lon="4.25889">
        <ele>406.77</ele>
        <time>2016-05-08T06:58:17Z</time>
      </trkpt>
      <trkpt lat="44.52897" lon="4.25889">
        <ele>406.77</ele>
        <time>2016-05-08T06:58:37Z</time>
      </trkpt>
      <trkpt lat="44.52897" lon="4.25884">
        <ele>406.77</ele>
        <time>2016-05-08T06:58:39Z</time>
      </trkpt>
      <trkpt lat="44.52895" lon="4.25837">
        <ele>406.77</ele>
        <time>2016-05-08T06:58:50Z</time>
      </trkpt>
      <trkpt lat="44.529" lon="4.25828">
        <ele>406.77</ele>
        <time>2016-05-08T06:58:55Z</time>
      </trkpt>
      <trkpt lat="44.52923" lon="4.25815">
        <ele>407.26</ele>
        <time>2016-05-08T06:59:04Z</time>
      </trkpt>
      <trkpt lat="44.52928" lon="4.25801">
        <ele>408.22</ele>
        <time>2016-05-08T06:59:09Z</time>
      </trkpt>
      <trkpt lat="44.52933" lon="4.25792">
        <ele>408.7</ele>
        <time>2016-05-08T06:59:13Z</time>
      </trkpt>
      <trkpt lat="44.52936" lon="4.25788">
        <ele>409.18</ele>
        <time>2016-05-08T06:59:15Z</time>
      </trkpt>
      <trkpt lat="44.52937" lon="4.25785">
        <ele>409.66</ele>
        <time>2016-05-08T06:59:17Z</time>
      </trkpt>
      <trkpt lat="44.5294" lon="4.25773">
        <ele>410.62</ele>
        <time>2016-05-08T06:59:23Z</time>
      </trkpt>
      <trkpt lat="44.52943" lon="4.25771">
        <ele>411.1</ele>
        <time>2016-05-08T06:59:25Z</time>
      </trkpt>
      <trkpt lat="44.52946" lon="4.25766">
        <ele>411.58</ele>
        <time>2016-05-08T06:59:28Z</time>
      </trkpt>
      <trkpt lat="44.52954" lon="4.25757">
        <ele>413.02</ele>
        <time>2016-05-08T06:59:33Z</time>
      </trkpt>
      <trkpt lat="44.52956" lon="4.25749">
        <ele>413.98</ele>
        <time>2016-05-08T06:59:37Z</time>
      </trkpt>
      <trkpt lat="44.52956" lon="4.25715">
        <ele>415.91</ele>
        <time>2016-05-08T06:59:50Z</time>
      </trkpt>
      <trkpt lat="44.52955" lon="4.25704">
        <ele>416.39</ele>
        <time>2016-05-08T06:59:54Z</time>
      </trkpt>
      <trkpt lat="44.52955" lon="4.25699">
        <ele>416.87</ele>
        <time>2016-05-08T06:59:56Z</time>
      </trkpt>
      <trkpt lat="44.52953" lon="4.25684">
        <ele>417.83</ele>
        <time>2016-05-08T07:00:04Z</time>
      </trkpt>
      <trkpt lat="44.52952" lon="4.2568">
        <ele>418.31</ele>
        <time>2016-05-08T07:00:06Z</time>
      </trkpt>
      <trkpt lat="44.52952" lon="4.25647">
        <ele>420.23</ele>
        <time>2016-05-08T07:00:19Z</time>
      </trkpt>
      <trkpt lat="44.52953" lon="4.25594">
        <ele>421.19</ele>
        <time>2016-05-08T07:00:31Z</time>
      </trkpt>
      <trkpt lat="44.52952" lon="4.25555">
        <ele>422.16</ele>
        <time>2016-05-08T07:00:43Z</time>
      </trkpt>
      <trkpt lat="44.52951" lon="4.25553">
        <ele>422.64</ele>
        <time>2016-05-08T07:00:44Z</time>
      </trkpt>
      <trkpt lat="44.52949" lon="4.25521">
        <ele>423.6</ele>
        <time>2016-05-08T07:00:56Z</time>
      </trkpt>
      <trkpt lat="44.5295" lon="4.25506">
        <ele>424.56</ele>
        <time>2016-05-08T07:01:00Z</time>
      </trkpt>
      <trkpt lat="44.52955" lon="4.25485">
        <ele>425.04</ele>
        <time>2016-05-08T07:01:06Z</time>
      </trkpt>
      <trkpt lat="44.52956" lon="4.25481">
        <ele>426</ele>
        <time>2016-05-08T07:01:08Z</time>
      </trkpt>
      <trkpt lat="44.52959" lon="4.25471">
        <ele>426.48</ele>
        <time>2016-05-08T07:01:12Z</time>
      </trkpt>
      <trkpt lat="44.52962" lon="4.25459">
        <ele>427.44</ele>
        <time>2016-05-08T07:01:17Z</time>
      </trkpt>
      <trkpt lat="44.52973" lon="4.2544">
        <ele>428.4</ele>
        <time>2016-05-08T07:01:28Z</time>
      </trkpt>
      <trkpt lat="44.52975" lon="4.25437">
        <ele>428.89</ele>
        <time>2016-05-08T07:01:30Z</time>
      </trkpt>
      <trkpt lat="44.52989" lon="4.25399">
        <ele>430.33</ele>
        <time>2016-05-08T07:01:43Z</time>
      </trkpt>
      <trkpt lat="44.52989" lon="4.25397">
        <ele>430.81</ele>
        <time>2016-05-08T07:01:51Z</time>
      </trkpt>
      <trkpt lat="44.52988" lon="4.25396">
        <ele>430.81</ele>
        <time>2016-05-08T07:01:54Z</time>
      </trkpt>
      <trkpt lat="44.52976" lon="4.25416">
        <ele>428.4</ele>
        <time>2016-05-08T07:02:05Z</time>
      </trkpt>
      <trkpt lat="44.52972" lon="4.25431">
        <ele>426.96</ele>
        <time>2016-05-08T07:02:09Z</time>
      </trkpt>
      <trkpt lat="44.52962" lon="4.25436">
        <ele>426.48</ele>
        <time>2016-05-08T07:02:16Z</time>
      </trkpt>
      <trkpt lat="44.52958" lon="4.25439">
        <ele>426.48</ele>
        <time>2016-05-08T07:02:19Z</time>
      </trkpt>
      <trkpt lat="44.52933" lon="4.2547">
        <ele>424.56</ele>
        <time>2016-05-08T07:02:30Z</time>
      </trkpt>
      <trkpt lat="44.52927" lon="4.25482">
        <ele>423.6</ele>
        <time>2016-05-08T07:02:33Z</time>
      </trkpt>
      <trkpt lat="44.52915" lon="4.25487">
        <ele>422.16</ele>
        <time>2016-05-08T07:02:35Z</time>
      </trkpt>
      <trkpt lat="44.52912" lon="4.25482">
        <ele>422.16</ele>
        <time>2016-05-08T07:02:37Z</time>
      </trkpt>
      <trkpt lat="44.5291" lon="4.25476">
        <ele>421.68</ele>
        <time>2016-05-08T07:02:38Z</time>
      </trkpt>
      <trkpt lat="44.52894" lon="4.25453">
        <ele>420.23</ele>
        <time>2016-05-08T07:02:44Z</time>
      </trkpt>
      <trkpt lat="44.52883" lon="4.25416">
        <ele>418.31</ele>
        <time>2016-05-08T07:02:56Z</time>
      </trkpt>
      <trkpt lat="44.52878" lon="4.25379">
        <ele>419.27</ele>
        <time>2016-05-08T07:03:09Z</time>
      </trkpt>
      <trkpt lat="44.52852" lon="4.25326">
        <ele>418.79</ele>
        <time>2016-05-08T07:03:21Z</time>
      </trkpt>
      <trkpt lat="44.52817" lon="4.25269">
        <ele>419.27</ele>
        <time>2016-05-08T07:03:33Z</time>
      </trkpt>
      <trkpt lat="44.52803" lon="4.2526">
        <ele>419.27</ele>
        <time>2016-05-08T07:03:43Z</time>
      </trkpt>
      <trkpt lat="44.52795" lon="4.25254">
        <ele>421.68</ele>
        <time>2016-05-08T07:03:57Z</time>
      </trkpt>
      <trkpt lat="44.52793" lon="4.25243">
        <ele>422.16</ele>
        <time>2016-05-08T07:04:02Z</time>
      </trkpt>
      <trkpt lat="44.52794" lon="4.25229">
        <ele>423.12</ele>
        <time>2016-05-08T07:04:08Z</time>
      </trkpt>
      <trkpt lat="44.52802" lon="4.25228">
        <ele>425.04</ele>
        <time>2016-05-08T07:04:20Z</time>
      </trkpt>
      <trkpt lat="44.52811" lon="4.25228">
        <ele>426.48</ele>
        <time>2016-05-08T07:04:25Z</time>
      </trkpt>
      <trkpt lat="44.52818" lon="4.25228">
        <ele>427.44</ele>
        <time>2016-05-08T07:04:33Z</time>
      </trkpt>
      <trkpt lat="44.52824" lon="4.2523">
        <ele>428.4</ele>
        <time>2016-05-08T07:04:45Z</time>
      </trkpt>
      <trkpt lat="44.5283" lon="4.25228">
        <ele>429.85</ele>
        <time>2016-05-08T07:04:58Z</time>
      </trkpt>
      <trkpt lat="44.52833" lon="4.25228">
        <ele>430.33</ele>
        <time>2016-05-08T07:05:00Z</time>
      </trkpt>
      <trkpt lat="44.5285" lon="4.25227">
        <ele>433.21</ele>
        <time>2016-05-08T07:05:10Z</time>
      </trkpt>
      <trkpt lat="44.52879" lon="4.25228">
        <ele>436.1</ele>
        <time>2016-05-08T07:05:19Z</time>
      </trkpt>
      <trkpt lat="44.52892" lon="4.25232">
        <ele>437.06</ele>
        <time>2016-05-08T07:05:25Z</time>
      </trkpt>
      <trkpt lat="44.52901" lon="4.25235">
        <ele>438.02</ele>
        <time>2016-05-08T07:05:30Z</time>
      </trkpt>
      <trkpt lat="44.5292" lon="4.25236">
        <ele>441.38</ele>
        <time>2016-05-08T07:05:43Z</time>
      </trkpt>
      <trkpt lat="44.52926" lon="4.25235">
        <ele>442.34</ele>
        <time>2016-05-08T07:05:49Z</time>
      </trkpt>
      <trkpt lat="44.52934" lon="4.25227">
        <ele>444.27</ele>
        <time>2016-05-08T07:05:58Z</time>
      </trkpt>
      <trkpt lat="44.52957" lon="4.25215">
        <ele>446.19</ele>
        <time>2016-05-08T07:06:11Z</time>
      </trkpt>
      <trkpt lat="44.52961" lon="4.25212">
        <ele>446.19</ele>
        <time>2016-05-08T07:06:13Z</time>
      </trkpt>
      <trkpt lat="44.52973" lon="4.25196">
        <ele>447.63</ele>
        <time>2016-05-08T07:06:21Z</time>
      </trkpt>
      <trkpt lat="44.52982" lon="4.25178">
        <ele>448.11</ele>
        <time>2016-05-08T07:06:28Z</time>
      </trkpt>
      <trkpt lat="44.5299" lon="4.25169">
        <ele>449.07</ele>
        <time>2016-05-08T07:06:32Z</time>
      </trkpt>
      <trkpt lat="44.53001" lon="4.25158">
        <ele>450.03</ele>
        <time>2016-05-08T07:06:36Z</time>
      </trkpt>
      <trkpt lat="44.53008" lon="4.25147">
        <ele>450.03</ele>
        <time>2016-05-08T07:06:38Z</time>
      </trkpt>
      <trkpt lat="44.5304" lon="4.25113">
        <ele>451.48</ele>
        <time>2016-05-08T07:06:44Z</time>
      </trkpt>
      <trkpt lat="44.53046" lon="4.25106">
        <ele>451.96</ele>
        <time>2016-05-08T07:06:45Z</time>
      </trkpt>
      <trkpt lat="44.53051" lon="4.251">
        <ele>451.96</ele>
        <time>2016-05-08T07:06:46Z</time>
      </trkpt>
      <trkpt lat="44.53055" lon="4.25095">
        <ele>451.96</ele>
        <time>2016-05-08T07:06:47Z</time>
      </trkpt>
      <trkpt lat="44.53058" lon="4.2509">
        <ele>451.96</ele>
        <time>2016-05-08T07:06:48Z</time>
      </trkpt>
      <trkpt lat="44.53061" lon="4.25084">
        <ele>451.96</ele>
        <time>2016-05-08T07:06:49Z</time>
      </trkpt>
      <trkpt lat="44.53064" lon="4.25078">
        <ele>452.44</ele>
        <time>2016-05-08T07:06:50Z</time>
      </trkpt>
      <trkpt lat="44.53068" lon="4.25073">
        <ele>452.44</ele>
        <time>2016-05-08T07:06:51Z</time>
      </trkpt>
      <trkpt lat="44.53071" lon="4.25069">
        <ele>452.44</ele>
        <time>2016-05-08T07:06:52Z</time>
      </trkpt>
      <trkpt lat="44.53101" lon="4.25033">
        <ele>452.92</ele>
        <time>2016-05-08T07:07:02Z</time>
      </trkpt>
      <trkpt lat="44.53106" lon="4.25029">
        <ele>452.92</ele>
        <time>2016-05-08T07:07:04Z</time>
      </trkpt>
      <trkpt lat="44.53122" lon="4.25003">
        <ele>452.44</ele>
        <time>2016-05-08T07:07:10Z</time>
      </trkpt>
      <trkpt lat="44.53127" lon="4.24991">
        <ele>451.96</ele>
        <time>2016-05-08T07:07:12Z</time>
      </trkpt>
      <trkpt lat="44.5313" lon="4.24984">
        <ele>451.96</ele>
        <time>2016-05-08T07:07:13Z</time>
      </trkpt>
      <trkpt lat="44.53133" lon="4.24978">
        <ele>451.48</ele>
        <time>2016-05-08T07:07:14Z</time>
      </trkpt>
      <trkpt lat="44.53136" lon="4.24971">
        <ele>451.48</ele>
        <time>2016-05-08T07:07:15Z</time>
      </trkpt>
      <trkpt lat="44.53144" lon="4.24952">
        <ele>451</ele>
        <time>2016-05-08T07:07:18Z</time>
      </trkpt>
      <trkpt lat="44.53146" lon="4.24946">
        <ele>451</ele>
        <time>2016-05-08T07:07:19Z</time>
      </trkpt>
      <trkpt lat="44.53148" lon="4.24941">
        <ele>450.52</ele>
        <time>2016-05-08T07:07:20Z</time>
      </trkpt>
      <trkpt lat="44.5316" lon="4.24901">
        <ele>450.52</ele>
        <time>2016-05-08T07:07:30Z</time>
      </trkpt>
      <trkpt lat="44.53161" lon="4.249">
        <ele>450.52</ele>
        <time>2016-05-08T07:07:31Z</time>
      </trkpt>
      <trkpt lat="44.53161" lon="4.24898">
        <ele>450.52</ele>
        <time>2016-05-08T07:07:32Z</time>
      </trkpt>
      <trkpt lat="44.53162" lon="4.24897">
        <ele>450.52</ele>
        <time>2016-05-08T07:07:33Z</time>
      </trkpt>
      <trkpt lat="44.53163" lon="4.24896">
        <ele>451</ele>
        <time>2016-05-08T07:07:34Z</time>
      </trkpt>
      <trkpt lat="44.53177" lon="4.24858">
        <ele>452.92</ele>
        <time>2016-05-08T07:07:44Z</time>
      </trkpt>
      <trkpt lat="44.53179" lon="4.24854">
        <ele>453.4</ele>
        <time>2016-05-08T07:07:45Z</time>
      </trkpt>
      <trkpt lat="44.53182" lon="4.24851">
        <ele>453.88</ele>
        <time>2016-05-08T07:07:46Z</time>
      </trkpt>
      <trkpt lat="44.53184" lon="4.24848">
        <ele>453.88</ele>
        <time>2016-05-08T07:07:47Z</time>
      </trkpt>
      <trkpt lat="44.53185" lon="4.24845">
        <ele>453.88</ele>
        <time>2016-05-08T07:07:48Z</time>
      </trkpt>
      <trkpt lat="44.53186" lon="4.24843">
        <ele>454.36</ele>
        <time>2016-05-08T07:07:49Z</time>
      </trkpt>
      <trkpt lat="44.53187" lon="4.24841">
        <ele>454.36</ele>
        <time>2016-05-08T07:07:50Z</time>
      </trkpt>
      <trkpt lat="44.53187" lon="4.24836">
        <ele>454.36</ele>
        <time>2016-05-08T07:07:51Z</time>
      </trkpt>
      <trkpt lat="44.53187" lon="4.24834">
        <ele>454.84</ele>
        <time>2016-05-08T07:07:52Z</time>
      </trkpt>
      <trkpt lat="44.53186" lon="4.24831">
        <ele>455.32</ele>
        <time>2016-05-08T07:07:55Z</time>
      </trkpt>
      <trkpt lat="44.53187" lon="4.24834">
        <ele>454.84</ele>
        <time>2016-05-08T07:07:59Z</time>
      </trkpt>
      <trkpt lat="44.53188" lon="4.24834">
        <ele>454.36</ele>
        <time>2016-05-08T07:08:00Z</time>
      </trkpt>
      <trkpt lat="44.53188" lon="4.24832">
        <ele>454.36</ele>
        <time>2016-05-08T07:08:01Z</time>
      </trkpt>
      <trkpt lat="44.53191" lon="4.24822">
        <ele>454.84</ele>
        <time>2016-05-08T07:08:05Z</time>
      </trkpt>
      <trkpt lat="44.53192" lon="4.24827">
        <ele>453.88</ele>
        <time>2016-05-08T07:08:16Z</time>
      </trkpt>
      <trkpt lat="44.53192" lon="4.24827">
        <ele>453.88</ele>
        <time>2016-05-08T07:08:38Z</time>
      </trkpt>
      <trkpt lat="44.53193" lon="4.24827">
        <ele>454.36</ele>
        <time>2016-05-08T07:08:42Z</time>
      </trkpt>
      <trkpt lat="44.53193" lon="4.24825">
        <ele>454.84</ele>
        <time>2016-05-08T07:08:43Z</time>
      </trkpt>
      <trkpt lat="44.53193" lon="4.24823">
        <ele>454.84</ele>
        <time>2016-05-08T07:08:44Z</time>
      </trkpt>
      <trkpt lat="44.53193" lon="4.2482">
        <ele>454.84</ele>
        <time>2016-05-08T07:08:46Z</time>
      </trkpt>
      <trkpt lat="44.53192" lon="4.24819">
        <ele>454.84</ele>
        <time>2016-05-08T07:08:47Z</time>
      </trkpt>
      <trkpt lat="44.53193" lon="4.24818">
        <ele>454.84</ele>
        <time>2016-05-08T07:08:48Z</time>
      </trkpt>
      <trkpt lat="44.53194" lon="4.24818">
        <ele>455.32</ele>
        <time>2016-05-08T07:08:49Z</time>
      </trkpt>
      <trkpt lat="44.53194" lon="4.24817">
        <ele>455.8</ele>
        <time>2016-05-08T07:08:50Z</time>
      </trkpt>
      <trkpt lat="44.53195" lon="4.24815">
        <ele>455.8</ele>
        <time>2016-05-08T07:08:51Z</time>
      </trkpt>
      <trkpt lat="44.53204" lon="4.24797">
        <ele>458.69</ele>
        <time>2016-05-08T07:09:00Z</time>
      </trkpt>
      <trkpt lat="44.5321" lon="4.24788">
        <ele>460.13</ele>
        <time>2016-05-08T07:09:06Z</time>
      </trkpt>
      <trkpt lat="44.53211" lon="4.24788">
        <ele>460.61</ele>
        <time>2016-05-08T07:09:07Z</time>
      </trkpt>
      <trkpt lat="44.53213" lon="4.24786">
        <ele>460.61</ele>
        <time>2016-05-08T07:09:09Z</time>
      </trkpt>
      <trkpt lat="44.53217" lon="4.24785">
        <ele>461.57</ele>
        <time>2016-05-08T07:09:11Z</time>
      </trkpt>
      <trkpt lat="44.53243" lon="4.24756">
        <ele>463.97</ele>
        <time>2016-05-08T07:09:25Z</time>
      </trkpt>
      <trkpt lat="44.53246" lon="4.24751">
        <ele>464.93</ele>
        <time>2016-05-08T07:09:27Z</time>
      </trkpt>
      <trkpt lat="44.53248" lon="4.24747">
        <ele>464.93</ele>
        <time>2016-05-08T07:09:28Z</time>
      </trkpt>
      <trkpt lat="44.5325" lon="4.24745">
        <ele>465.42</ele>
        <time>2016-05-08T07:09:29Z</time>
      </trkpt>
      <trkpt lat="44.53251" lon="4.24743">
        <ele>465.9</ele>
        <time>2016-05-08T07:09:30Z</time>
      </trkpt>
      <trkpt lat="44.53253" lon="4.24742">
        <ele>465.9</ele>
        <time>2016-05-08T07:09:31Z</time>
      </trkpt>
      <trkpt lat="44.53255" lon="4.2474">
        <ele>466.38</ele>
        <time>2016-05-08T07:09:32Z</time>
      </trkpt>
      <trkpt lat="44.53257" lon="4.24738">
        <ele>466.86</ele>
        <time>2016-05-08T07:09:33Z</time>
      </trkpt>
      <trkpt lat="44.53273" lon="4.24725">
        <ele>468.3</ele>
        <time>2016-05-08T07:09:43Z</time>
      </trkpt>
      <trkpt lat="44.53275" lon="4.24723">
        <ele>468.3</ele>
        <time>2016-05-08T07:09:44Z</time>
      </trkpt>
      <trkpt lat="44.53276" lon="4.24723">
        <ele>468.78</ele>
        <time>2016-05-08T07:09:45Z</time>
      </trkpt>
      <trkpt lat="44.53278" lon="4.24722">
        <ele>468.78</ele>
        <time>2016-05-08T07:09:46Z</time>
      </trkpt>
      <trkpt lat="44.5328" lon="4.24721">
        <ele>469.26</ele>
        <time>2016-05-08T07:09:47Z</time>
      </trkpt>
      <trkpt lat="44.53281" lon="4.24718">
        <ele>469.26</ele>
        <time>2016-05-08T07:09:48Z</time>
      </trkpt>
      <trkpt lat="44.53282" lon="4.24717">
        <ele>469.26</ele>
        <time>2016-05-08T07:09:49Z</time>
      </trkpt>
      <trkpt lat="44.53284" lon="4.24714">
        <ele>469.74</ele>
        <time>2016-05-08T07:09:50Z</time>
      </trkpt>
      <trkpt lat="44.53287" lon="4.24707">
        <ele>469.74</ele>
        <time>2016-05-08T07:10:01Z</time>
      </trkpt>
      <trkpt lat="44.53289" lon="4.24707">
        <ele>469.74</ele>
        <time>2016-05-08T07:10:27Z</time>
      </trkpt>
      <trkpt lat="44.5329" lon="4.24706">
        <ele>469.74</ele>
        <time>2016-05-08T07:10:28Z</time>
      </trkpt>
      <trkpt lat="44.53292" lon="4.24704">
        <ele>470.22</ele>
        <time>2016-05-08T07:10:29Z</time>
      </trkpt>
      <trkpt lat="44.53293" lon="4.24702">
        <ele>470.22</ele>
        <time>2016-05-08T07:10:30Z</time>
      </trkpt>
      <trkpt lat="44.53296" lon="4.247">
        <ele>470.7</ele>
        <time>2016-05-08T07:10:31Z</time>
      </trkpt>
      <trkpt lat="44.53298" lon="4.24698">
        <ele>470.7</ele>
        <time>2016-05-08T07:10:32Z</time>
      </trkpt>
      <trkpt lat="44.533" lon="4.24696">
        <ele>470.7</ele>
        <time>2016-05-08T07:10:33Z</time>
      </trkpt>
      <trkpt lat="44.53302" lon="4.24694">
        <ele>471.18</ele>
        <time>2016-05-08T07:10:34Z</time>
      </trkpt>
      <trkpt lat="44.53304" lon="4.24693">
        <ele>471.66</ele>
        <time>2016-05-08T07:10:35Z</time>
      </trkpt>
      <trkpt lat="44.53306" lon="4.24693">
        <ele>471.66</ele>
        <time>2016-05-08T07:10:36Z</time>
      </trkpt>
      <trkpt lat="44.53308" lon="4.24691">
        <ele>472.14</ele>
        <time>2016-05-08T07:10:37Z</time>
      </trkpt>
      <trkpt lat="44.53311" lon="4.24691">
        <ele>472.14</ele>
        <time>2016-05-08T07:10:38Z</time>
      </trkpt>
      <trkpt lat="44.53313" lon="4.2469">
        <ele>472.63</ele>
        <time>2016-05-08T07:10:39Z</time>
      </trkpt>
      <trkpt lat="44.53332" lon="4.24663">
        <ele>474.55</ele>
        <time>2016-05-08T07:10:51Z</time>
      </trkpt>
      <trkpt lat="44.53339" lon="4.24651">
        <ele>475.03</ele>
        <time>2016-05-08T07:10:56Z</time>
      </trkpt>
      <trkpt lat="44.53342" lon="4.2464">
        <ele>476.47</ele>
        <time>2016-05-08T07:11:03Z</time>
      </trkpt>
      <trkpt lat="44.53342" lon="4.24638">
        <ele>476.47</ele>
        <time>2016-05-08T07:11:04Z</time>
      </trkpt>
      <trkpt lat="44.53348" lon="4.24626">
        <ele>477.91</ele>
        <time>2016-05-08T07:11:12Z</time>
      </trkpt>
      <trkpt lat="44.53349" lon="4.24624">
        <ele>477.91</ele>
        <time>2016-05-08T07:11:13Z</time>
      </trkpt>
      <trkpt lat="44.5335" lon="4.24621">
        <ele>478.39</ele>
        <time>2016-05-08T07:11:14Z</time>
      </trkpt>
      <trkpt lat="44.53351" lon="4.24618">
        <ele>478.39</ele>
        <time>2016-05-08T07:11:15Z</time>
      </trkpt>
      <trkpt lat="44.53352" lon="4.24615">
        <ele>478.39</ele>
        <time>2016-05-08T07:11:16Z</time>
      </trkpt>
      <trkpt lat="44.53354" lon="4.24613">
        <ele>478.39</ele>
        <time>2016-05-08T07:11:17Z</time>
      </trkpt>
      <trkpt lat="44.53377" lon="4.24577">
        <ele>479.84</ele>
        <time>2016-05-08T07:11:33Z</time>
      </trkpt>
      <trkpt lat="44.53399" lon="4.24537">
        <ele>481.76</ele>
        <time>2016-05-08T07:11:49Z</time>
      </trkpt>
      <trkpt lat="44.53426" lon="4.24507">
        <ele>484.16</ele>
        <time>2016-05-08T07:12:06Z</time>
      </trkpt>
      <trkpt lat="44.53443" lon="4.24492">
        <ele>486.08</ele>
        <time>2016-05-08T07:12:15Z</time>
      </trkpt>
      <trkpt lat="44.5346" lon="4.24483">
        <ele>487.53</ele>
        <time>2016-05-08T07:12:24Z</time>
      </trkpt>
      <trkpt lat="44.53462" lon="4.24482">
        <ele>488.01</ele>
        <time>2016-05-08T07:12:25Z</time>
      </trkpt>
      <trkpt lat="44.53464" lon="4.24482">
        <ele>488.01</ele>
        <time>2016-05-08T07:12:26Z</time>
      </trkpt>
      <trkpt lat="44.53465" lon="4.24481">
        <ele>488.01</ele>
        <time>2016-05-08T07:12:27Z</time>
      </trkpt>
      <trkpt lat="44.53468" lon="4.24481">
        <ele>488.49</ele>
        <time>2016-05-08T07:12:28Z</time>
      </trkpt>
      <trkpt lat="44.53474" lon="4.24478">
        <ele>488.97</ele>
        <time>2016-05-08T07:12:32Z</time>
      </trkpt>
      <trkpt lat="44.53475" lon="4.24477">
        <ele>488.97</ele>
        <time>2016-05-08T07:12:33Z</time>
      </trkpt>
      <trkpt lat="44.53478" lon="4.24476">
        <ele>488.97</ele>
        <time>2016-05-08T07:12:34Z</time>
      </trkpt>
      <trkpt lat="44.5348" lon="4.24475">
        <ele>489.45</ele>
        <time>2016-05-08T07:12:35Z</time>
      </trkpt>
      <trkpt lat="44.53482" lon="4.24475">
        <ele>489.45</ele>
        <time>2016-05-08T07:12:36Z</time>
      </trkpt>
      <trkpt lat="44.53485" lon="4.24475">
        <ele>489.45</ele>
        <time>2016-05-08T07:12:37Z</time>
      </trkpt>
      <trkpt lat="44.53491" lon="4.24476">
        <ele>489.93</ele>
        <time>2016-05-08T07:12:40Z</time>
      </trkpt>
      <trkpt lat="44.53492" lon="4.24474">
        <ele>489.93</ele>
        <time>2016-05-08T07:12:41Z</time>
      </trkpt>
      <trkpt lat="44.53492" lon="4.24473">
        <ele>490.41</ele>
        <time>2016-05-08T07:12:42Z</time>
      </trkpt>
      <trkpt lat="44.5349" lon="4.24471">
        <ele>490.41</ele>
        <time>2016-05-08T07:12:45Z</time>
      </trkpt>
      <trkpt lat="44.5349" lon="4.24473">
        <ele>489.93</ele>
        <time>2016-05-08T07:12:46Z</time>
      </trkpt>
      <trkpt lat="44.53491" lon="4.24475">
        <ele>489.93</ele>
        <time>2016-05-08T07:12:47Z</time>
      </trkpt>
      <trkpt lat="44.53492" lon="4.24474">
        <ele>489.93</ele>
        <time>2016-05-08T07:12:48Z</time>
      </trkpt>
      <trkpt lat="44.53494" lon="4.24473">
        <ele>490.41</ele>
        <time>2016-05-08T07:12:49Z</time>
      </trkpt>
      <trkpt lat="44.53501" lon="4.24467">
        <ele>490.89</ele>
        <time>2016-05-08T07:12:54Z</time>
      </trkpt>
      <trkpt lat="44.53502" lon="4.24468">
        <ele>490.89</ele>
        <time>2016-05-08T07:12:55Z</time>
      </trkpt>
      <trkpt lat="44.53504" lon="4.24469">
        <ele>490.89</ele>
        <time>2016-05-08T07:12:56Z</time>
      </trkpt>
      <trkpt lat="44.53506" lon="4.24469">
        <ele>491.37</ele>
        <time>2016-05-08T07:12:57Z</time>
      </trkpt>
      <trkpt lat="44.53508" lon="4.24469">
        <ele>491.37</ele>
        <time>2016-05-08T07:12:58Z</time>
      </trkpt>
      <trkpt lat="44.5351" lon="4.24467">
        <ele>491.37</ele>
        <time>2016-05-08T07:12:59Z</time>
      </trkpt>
      <trkpt lat="44.53512" lon="4.24466">
        <ele>491.37</ele>
        <time>2016-05-08T07:13:00Z</time>
      </trkpt>
      <trkpt lat="44.53531" lon="4.24453">
        <ele>492.81</ele>
        <time>2016-05-08T07:13:11Z</time>
      </trkpt>
      <trkpt lat="44.53556" lon="4.24433">
        <ele>494.74</ele>
        <time>2016-05-08T07:13:25Z</time>
      </trkpt>
      <trkpt lat="44.53582" lon="4.24406">
        <ele>496.66</ele>
        <time>2016-05-08T07:13:40Z</time>
      </trkpt>
      <trkpt lat="44.53601" lon="4.2438">
        <ele>497.62</ele>
        <time>2016-05-08T07:13:52Z</time>
      </trkpt>
      <trkpt lat="44.53619" lon="4.24351">
        <ele>500.02</ele>
        <time>2016-05-08T07:14:06Z</time>
      </trkpt>
      <trkpt lat="44.53637" lon="4.24317">
        <ele>501.95</ele>
        <time>2016-05-08T07:14:19Z</time>
      </trkpt>
      <trkpt lat="44.53648" lon="4.24289">
        <ele>504.83</ele>
        <time>2016-05-08T07:14:32Z</time>
      </trkpt>
      <trkpt lat="44.53646" lon="4.24249">
        <ele>507.71</ele>
        <time>2016-05-08T07:14:47Z</time>
      </trkpt>
      <trkpt lat="44.53642" lon="4.2424">
        <ele>508.67</ele>
        <time>2016-05-08T07:14:51Z</time>
      </trkpt>
      <trkpt lat="44.53641" lon="4.24238">
        <ele>508.67</ele>
        <time>2016-05-08T07:14:52Z</time>
      </trkpt>
      <trkpt lat="44.5364" lon="4.24235">
        <ele>508.67</ele>
        <time>2016-05-08T07:14:53Z</time>
      </trkpt>
      <trkpt lat="44.53639" lon="4.24232">
        <ele>509.16</ele>
        <time>2016-05-08T07:14:54Z</time>
      </trkpt>
      <trkpt lat="44.53638" lon="4.2423">
        <ele>509.16</ele>
        <time>2016-05-08T07:14:55Z</time>
      </trkpt>
      <trkpt lat="44.53637" lon="4.24226">
        <ele>509.16</ele>
        <time>2016-05-08T07:14:56Z</time>
      </trkpt>
      <trkpt lat="44.53628" lon="4.24205">
        <ele>510.12</ele>
        <time>2016-05-08T07:15:04Z</time>
      </trkpt>
      <trkpt lat="44.53627" lon="4.24201">
        <ele>510.12</ele>
        <time>2016-05-08T07:15:05Z</time>
      </trkpt>
      <trkpt lat="44.53612" lon="4.24146">
        <ele>511.56</ele>
        <time>2016-05-08T07:15:21Z</time>
      </trkpt>
      <trkpt lat="44.53609" lon="4.24096">
        <ele>512.52</ele>
        <time>2016-05-08T07:15:34Z</time>
      </trkpt>
      <trkpt lat="44.536" lon="4.24036">
        <ele>513.96</ele>
        <time>2016-05-08T07:15:48Z</time>
      </trkpt>
      <trkpt lat="44.53595" lon="4.2401">
        <ele>514.44</ele>
        <time>2016-05-08T07:15:56Z</time>
      </trkpt>
      <trkpt lat="44.53597" lon="4.24008">
        <ele>514.44</ele>
        <time>2016-05-08T07:15:57Z</time>
      </trkpt>
      <trkpt lat="44.53602" lon="4.2401">
        <ele>515.4</ele>
        <time>2016-05-08T07:16:02Z</time>
      </trkpt>
      <trkpt lat="44.53604" lon="4.24012">
        <ele>515.88</ele>
        <time>2016-05-08T07:16:03Z</time>
      </trkpt>
      <trkpt lat="44.53605" lon="4.24014">
        <ele>516.37</ele>
        <time>2016-05-08T07:16:04Z</time>
      </trkpt>
      <trkpt lat="44.53607" lon="4.24016">
        <ele>516.37</ele>
        <time>2016-05-08T07:16:05Z</time>
      </trkpt>
      <trkpt lat="44.53645" lon="4.24036">
        <ele>517.33</ele>
        <time>2016-05-08T07:16:19Z</time>
      </trkpt>
      <trkpt lat="44.53662" lon="4.24043">
        <ele>518.29</ele>
        <time>2016-05-08T07:16:26Z</time>
      </trkpt>
      <trkpt lat="44.53664" lon="4.24046">
        <ele>518.29</ele>
        <time>2016-05-08T07:16:27Z</time>
      </trkpt>
      <trkpt lat="44.53665" lon="4.24049">
        <ele>519.25</ele>
        <time>2016-05-08T07:16:28Z</time>
      </trkpt>
      <trkpt lat="44.53665" lon="4.24052">
        <ele>519.73</ele>
        <time>2016-05-08T07:16:29Z</time>
      </trkpt>
      <trkpt lat="44.53665" lon="4.24055">
        <ele>520.21</ele>
        <time>2016-05-08T07:16:30Z</time>
      </trkpt>
      <trkpt lat="44.53664" lon="4.24057">
        <ele>520.21</ele>
        <time>2016-05-08T07:16:31Z</time>
      </trkpt>
      <trkpt lat="44.53662" lon="4.24058">
        <ele>520.69</ele>
        <time>2016-05-08T07:16:32Z</time>
      </trkpt>
      <trkpt lat="44.53662" lon="4.24059">
        <ele>521.17</ele>
        <time>2016-05-08T07:16:33Z</time>
      </trkpt>
      <trkpt lat="44.53644" lon="4.24077">
        <ele>523.09</ele>
        <time>2016-05-08T07:16:43Z</time>
      </trkpt>
      <trkpt lat="44.53643" lon="4.24079">
        <ele>523.09</ele>
        <time>2016-05-08T07:16:44Z</time>
      </trkpt>
      <trkpt lat="44.53643" lon="4.24083">
        <ele>523.09</ele>
        <time>2016-05-08T07:16:45Z</time>
      </trkpt>
      <trkpt lat="44.53659" lon="4.24136">
        <ele>524.06</ele>
        <time>2016-05-08T07:16:55Z</time>
      </trkpt>
      <trkpt lat="44.53682" lon="4.24161">
        <ele>526.46</ele>
        <time>2016-05-08T07:17:03Z</time>
      </trkpt>
      <trkpt lat="44.53685" lon="4.24163">
        <ele>526.46</ele>
        <time>2016-05-08T07:17:04Z</time>
      </trkpt>
      <trkpt lat="44.53688" lon="4.24166">
        <ele>526.94</ele>
        <time>2016-05-08T07:17:05Z</time>
      </trkpt>
      <trkpt lat="44.53691" lon="4.24169">
        <ele>526.94</ele>
        <time>2016-05-08T07:17:06Z</time>
      </trkpt>
      <trkpt lat="44.53694" lon="4.24172">
        <ele>526.94</ele>
        <time>2016-05-08T07:17:07Z</time>
      </trkpt>
      <trkpt lat="44.53697" lon="4.24175">
        <ele>526.94</ele>
        <time>2016-05-08T07:17:08Z</time>
      </trkpt>
      <trkpt lat="44.53699" lon="4.24177">
        <ele>526.94</ele>
        <time>2016-05-08T07:17:09Z</time>
      </trkpt>
      <trkpt lat="44.53702" lon="4.2418">
        <ele>526.94</ele>
        <time>2016-05-08T07:17:10Z</time>
      </trkpt>
      <trkpt lat="44.53729" lon="4.2421">
        <ele>529.34</ele>
        <time>2016-05-08T07:17:22Z</time>
      </trkpt>
      <trkpt lat="44.53734" lon="4.24255">
        <ele>529.34</ele>
        <time>2016-05-08T07:17:32Z</time>
      </trkpt>
      <trkpt lat="44.53731" lon="4.24283">
        <ele>529.82</ele>
        <time>2016-05-08T07:17:39Z</time>
      </trkpt>
      <trkpt lat="44.5373" lon="4.24296">
        <ele>529.82</ele>
        <time>2016-05-08T07:17:41Z</time>
      </trkpt>
      <trkpt lat="44.53729" lon="4.24303">
        <ele>529.82</ele>
        <time>2016-05-08T07:17:42Z</time>
      </trkpt>
      <trkpt lat="44.53725" lon="4.24316">
        <ele>529.82</ele>
        <time>2016-05-08T07:17:44Z</time>
      </trkpt>
      <trkpt lat="44.53722" lon="4.24322">
        <ele>529.82</ele>
        <time>2016-05-08T07:17:45Z</time>
      </trkpt>
      <trkpt lat="44.53719" lon="4.24327">
        <ele>529.82</ele>
        <time>2016-05-08T07:17:46Z</time>
      </trkpt>
      <trkpt lat="44.53715" lon="4.24331">
        <ele>529.82</ele>
        <time>2016-05-08T07:17:47Z</time>
      </trkpt>
      <trkpt lat="44.53712" lon="4.24335">
        <ele>529.82</ele>
        <time>2016-05-08T07:17:48Z</time>
      </trkpt>
      <trkpt lat="44.53704" lon="4.24344">
        <ele>529.82</ele>
        <time>2016-05-08T07:17:50Z</time>
      </trkpt>
      <trkpt lat="44.53698" lon="4.24354">
        <ele>529.34</ele>
        <time>2016-05-08T07:17:52Z</time>
      </trkpt>
      <trkpt lat="44.53694" lon="4.24359">
        <ele>529.82</ele>
        <time>2016-05-08T07:17:53Z</time>
      </trkpt>
      <trkpt lat="44.53691" lon="4.24362">
        <ele>529.82</ele>
        <time>2016-05-08T07:17:54Z</time>
      </trkpt>
      <trkpt lat="44.5369" lon="4.24366">
        <ele>529.82</ele>
        <time>2016-05-08T07:17:55Z</time>
      </trkpt>
      <trkpt lat="44.53688" lon="4.24371">
        <ele>530.3</ele>
        <time>2016-05-08T07:17:56Z</time>
      </trkpt>
      <trkpt lat="44.53688" lon="4.24377">
        <ele>530.3</ele>
        <time>2016-05-08T07:17:57Z</time>
      </trkpt>
      <trkpt lat="44.53687" lon="4.24382">
        <ele>530.79</ele>
        <time>2016-05-08T07:17:58Z</time>
      </trkpt>
      <trkpt lat="44.53685" lon="4.24387">
        <ele>530.79</ele>
        <time>2016-05-08T07:17:59Z</time>
      </trkpt>
      <trkpt lat="44.53683" lon="4.24391">
        <ele>530.79</ele>
        <time>2016-05-08T07:18:00Z</time>
      </trkpt>
      <trkpt lat="44.53681" lon="4.24395">
        <ele>530.3</ele>
        <time>2016-05-08T07:18:01Z</time>
      </trkpt>
      <trkpt lat="44.53679" lon="4.24399">
        <ele>530.3</ele>
        <time>2016-05-08T07:18:02Z</time>
      </trkpt>
      <trkpt lat="44.53664" lon="4.2443">
        <ele>530.3</ele>
        <time>2016-05-08T07:18:09Z</time>
      </trkpt>
      <trkpt lat="44.53646" lon="4.24473">
        <ele>529.82</ele>
        <time>2016-05-08T07:18:17Z</time>
      </trkpt>
      <trkpt lat="44.53641" lon="4.24498">
        <ele>529.82</ele>
        <time>2016-05-08T07:18:21Z</time>
      </trkpt>
      <trkpt lat="44.53641" lon="4.24505">
        <ele>529.82</ele>
        <time>2016-05-08T07:18:22Z</time>
      </trkpt>
      <trkpt lat="44.53641" lon="4.24513">
        <ele>529.34</ele>
        <time>2016-05-08T07:18:23Z</time>
      </trkpt>
      <trkpt lat="44.53642" lon="4.2452">
        <ele>529.34</ele>
        <time>2016-05-08T07:18:24Z</time>
      </trkpt>
      <trkpt lat="44.53645" lon="4.24526">
        <ele>529.82</ele>
        <time>2016-05-08T07:18:25Z</time>
      </trkpt>
      <trkpt lat="44.53647" lon="4.24531">
        <ele>529.82</ele>
        <time>2016-05-08T07:18:26Z</time>
      </trkpt>
      <trkpt lat="44.5365" lon="4.24535">
        <ele>529.82</ele>
        <time>2016-05-08T07:18:27Z</time>
      </trkpt>
      <trkpt lat="44.53653" lon="4.24538">
        <ele>529.82</ele>
        <time>2016-05-08T07:18:28Z</time>
      </trkpt>
      <trkpt lat="44.53657" lon="4.24542">
        <ele>529.82</ele>
        <time>2016-05-08T07:18:29Z</time>
      </trkpt>
      <trkpt lat="44.5366" lon="4.24546">
        <ele>529.82</ele>
        <time>2016-05-08T07:18:30Z</time>
      </trkpt>
      <trkpt lat="44.53663" lon="4.24552">
        <ele>529.82</ele>
        <time>2016-05-08T07:18:31Z</time>
      </trkpt>
      <trkpt lat="44.53665" lon="4.24557">
        <ele>529.82</ele>
        <time>2016-05-08T07:18:32Z</time>
      </trkpt>
      <trkpt lat="44.53667" lon="4.24562">
        <ele>530.3</ele>
        <time>2016-05-08T07:18:33Z</time>
      </trkpt>
      <trkpt lat="44.5367" lon="4.24577">
        <ele>531.75</ele>
        <time>2016-05-08T07:18:36Z</time>
      </trkpt>
      <trkpt lat="44.53671" lon="4.24588">
        <ele>531.75</ele>
        <time>2016-05-08T07:18:38Z</time>
      </trkpt>
      <trkpt lat="44.5368" lon="4.2462">
        <ele>532.71</ele>
        <time>2016-05-08T07:18:45Z</time>
      </trkpt>
      <trkpt lat="44.53703" lon="4.24635">
        <ele>535.11</ele>
        <time>2016-05-08T07:18:54Z</time>
      </trkpt>
      <trkpt lat="44.53705" lon="4.24635">
        <ele>535.11</ele>
        <time>2016-05-08T07:18:55Z</time>
      </trkpt>
      <trkpt lat="44.53707" lon="4.24634">
        <ele>535.11</ele>
        <time>2016-05-08T07:18:56Z</time>
      </trkpt>
      <trkpt lat="44.53712" lon="4.24629">
        <ele>536.55</ele>
        <time>2016-05-08T07:18:59Z</time>
      </trkpt>
      <trkpt lat="44.53714" lon="4.24628">
        <ele>536.55</ele>
        <time>2016-05-08T07:19:00Z</time>
      </trkpt>
      <trkpt lat="44.53716" lon="4.24627">
        <ele>537.03</ele>
        <time>2016-05-08T07:19:01Z</time>
      </trkpt>
      <trkpt lat="44.53737" lon="4.24625">
        <ele>538.48</ele>
        <time>2016-05-08T07:19:12Z</time>
      </trkpt>
      <trkpt lat="44.53746" lon="4.24628">
        <ele>540.4</ele>
        <time>2016-05-08T07:19:19Z</time>
      </trkpt>
      <trkpt lat="44.53749" lon="4.24629">
        <ele>540.4</ele>
        <time>2016-05-08T07:19:20Z</time>
      </trkpt>
      <trkpt lat="44.53751" lon="4.2463">
        <ele>540.4</ele>
        <time>2016-05-08T07:19:21Z</time>
      </trkpt>
      <trkpt lat="44.53753" lon="4.24632">
        <ele>540.4</ele>
        <time>2016-05-08T07:19:22Z</time>
      </trkpt>
      <trkpt lat="44.53755" lon="4.24632">
        <ele>540.4</ele>
        <time>2016-05-08T07:19:23Z</time>
      </trkpt>
      <trkpt lat="44.53756" lon="4.24633">
        <ele>540.88</ele>
        <time>2016-05-08T07:19:24Z</time>
      </trkpt>
      <trkpt lat="44.53758" lon="4.24633">
        <ele>540.88</ele>
        <time>2016-05-08T07:19:25Z</time>
      </trkpt>
      <trkpt lat="44.53778" lon="4.24632">
        <ele>542.8</ele>
        <time>2016-05-08T07:19:36Z</time>
      </trkpt>
      <trkpt lat="44.53786" lon="4.24632">
        <ele>544.24</ele>
        <time>2016-05-08T07:19:40Z</time>
      </trkpt>
      <trkpt lat="44.53803" lon="4.24631">
        <ele>545.2</ele>
        <time>2016-05-08T07:19:47Z</time>
      </trkpt>
      <trkpt lat="44.53805" lon="4.24631">
        <ele>545.2</ele>
        <time>2016-05-08T07:19:48Z</time>
      </trkpt>
      <trkpt lat="44.53807" lon="4.24632">
        <ele>544.72</ele>
        <time>2016-05-08T07:20:02Z</time>
      </trkpt>
      <trkpt lat="44.53807" lon="4.24631">
        <ele>545.2</ele>
        <time>2016-05-08T07:20:31Z</time>
      </trkpt>
      <trkpt lat="44.53807" lon="4.24631">
        <ele>545.69</ele>
        <time>2016-05-08T07:20:59Z</time>
      </trkpt>
      <trkpt lat="44.53811" lon="4.2463">
        <ele>545.2</ele>
        <time>2016-05-08T07:21:27Z</time>
      </trkpt>
      <trkpt lat="44.53812" lon="4.24631">
        <ele>545.2</ele>
        <time>2016-05-08T07:21:28Z</time>
      </trkpt>
      <trkpt lat="44.53814" lon="4.24631">
        <ele>545.2</ele>
        <time>2016-05-08T07:21:29Z</time>
      </trkpt>
      <trkpt lat="44.53816" lon="4.24632">
        <ele>544.72</ele>
        <time>2016-05-08T07:21:30Z</time>
      </trkpt>
      <trkpt lat="44.53819" lon="4.24633">
        <ele>545.2</ele>
        <time>2016-05-08T07:21:31Z</time>
      </trkpt>
      <trkpt lat="44.53836" lon="4.24638">
        <ele>544.72</ele>
        <time>2016-05-08T07:21:38Z</time>
      </trkpt>
      <trkpt lat="44.53838" lon="4.24638">
        <ele>544.72</ele>
        <time>2016-05-08T07:21:39Z</time>
      </trkpt>
      <trkpt lat="44.53872" lon="4.24636">
        <ele>545.69</ele>
        <time>2016-05-08T07:21:50Z</time>
      </trkpt>
      <trkpt lat="44.539" lon="4.24648">
        <ele>544.24</ele>
        <time>2016-05-08T07:21:58Z</time>
      </trkpt>
      <trkpt lat="44.53904" lon="4.24648">
        <ele>543.76</ele>
        <time>2016-05-08T07:21:59Z</time>
      </trkpt>
      <trkpt lat="44.53909" lon="4.24648">
        <ele>543.28</ele>
        <time>2016-05-08T07:22:00Z</time>
      </trkpt>
      <trkpt lat="44.53912" lon="4.24649">
        <ele>543.28</ele>
        <time>2016-05-08T07:22:01Z</time>
      </trkpt>
      <trkpt lat="44.53915" lon="4.2465">
        <ele>542.8</ele>
        <time>2016-05-08T07:22:02Z</time>
      </trkpt>
      <trkpt lat="44.53926" lon="4.24652">
        <ele>541.36</ele>
        <time>2016-05-08T07:22:05Z</time>
      </trkpt>
      <trkpt lat="44.53932" lon="4.24654">
        <ele>540.88</ele>
        <time>2016-05-08T07:22:06Z</time>
      </trkpt>
      <trkpt lat="44.53938" lon="4.24656">
        <ele>540.4</ele>
        <time>2016-05-08T07:22:07Z</time>
      </trkpt>
      <trkpt lat="44.53952" lon="4.24659">
        <ele>538.96</ele>
        <time>2016-05-08T07:22:10Z</time>
      </trkpt>
      <trkpt lat="44.53957" lon="4.24658">
        <ele>538.48</ele>
        <time>2016-05-08T07:22:11Z</time>
      </trkpt>
      <trkpt lat="44.53975" lon="4.24653">
        <ele>536.07</ele>
        <time>2016-05-08T07:22:16Z</time>
      </trkpt>
      <trkpt lat="44.53976" lon="4.24653">
        <ele>536.07</ele>
        <time>2016-05-08T07:22:17Z</time>
      </trkpt>
      <trkpt lat="44.53977" lon="4.24652">
        <ele>535.59</ele>
        <time>2016-05-08T07:22:19Z</time>
      </trkpt>
      <trkpt lat="44.53976" lon="4.24652">
        <ele>535.11</ele>
        <time>2016-05-08T07:22:20Z</time>
      </trkpt>
      <trkpt lat="44.53975" lon="4.24653">
        <ele>535.11</ele>
        <time>2016-05-08T07:22:21Z</time>
      </trkpt>
      <trkpt lat="44.53973" lon="4.24652">
        <ele>534.15</ele>
        <time>2016-05-08T07:22:32Z</time>
      </trkpt>
      <trkpt lat="44.53972" lon="4.24652">
        <ele>534.15</ele>
        <time>2016-05-08T07:22:33Z</time>
      </trkpt>
      <trkpt lat="44.53971" lon="4.24654">
        <ele>534.15</ele>
        <time>2016-05-08T07:22:34Z</time>
      </trkpt>
      <trkpt lat="44.5397" lon="4.24655">
        <ele>533.67</ele>
        <time>2016-05-08T07:22:35Z</time>
      </trkpt>
      <trkpt lat="44.53969" lon="4.24657">
        <ele>533.19</ele>
        <time>2016-05-08T07:22:36Z</time>
      </trkpt>
      <trkpt lat="44.53968" lon="4.24659">
        <ele>533.19</ele>
        <time>2016-05-08T07:22:37Z</time>
      </trkpt>
      <trkpt lat="44.53969" lon="4.2466">
        <ele>532.71</ele>
        <time>2016-05-08T07:22:38Z</time>
      </trkpt>
      <trkpt lat="44.53972" lon="4.24661">
        <ele>532.71</ele>
        <time>2016-05-08T07:22:39Z</time>
      </trkpt>
      <trkpt lat="44.53999" lon="4.24674">
        <ele>530.3</ele>
        <time>2016-05-08T07:22:50Z</time>
      </trkpt>
      <trkpt lat="44.54026" lon="4.24678">
        <ele>528.86</ele>
        <time>2016-05-08T07:22:59Z</time>
      </trkpt>
      <trkpt lat="44.54049" lon="4.24691">
        <ele>527.9</ele>
        <time>2016-05-08T07:23:08Z</time>
      </trkpt>
      <trkpt lat="44.54057" lon="4.24697">
        <ele>527.42</ele>
        <time>2016-05-08T07:23:11Z</time>
      </trkpt>
      <trkpt lat="44.5406" lon="4.24699">
        <ele>527.42</ele>
        <time>2016-05-08T07:23:12Z</time>
      </trkpt>
      <trkpt lat="44.54062" lon="4.24702">
        <ele>526.94</ele>
        <time>2016-05-08T07:23:13Z</time>
      </trkpt>
      <trkpt lat="44.54064" lon="4.24702">
        <ele>526.94</ele>
        <time>2016-05-08T07:23:14Z</time>
      </trkpt>
      <trkpt lat="44.54066" lon="4.24702">
        <ele>526.94</ele>
        <time>2016-05-08T07:23:15Z</time>
      </trkpt>
      <trkpt lat="44.54067" lon="4.24702">
        <ele>526.46</ele>
        <time>2016-05-08T07:23:16Z</time>
      </trkpt>
      <trkpt lat="44.54069" lon="4.24702">
        <ele>526.46</ele>
        <time>2016-05-08T07:23:17Z</time>
      </trkpt>
      <trkpt lat="44.5407" lon="4.24701">
        <ele>526.46</ele>
        <time>2016-05-08T07:23:18Z</time>
      </trkpt>
      <trkpt lat="44.54072" lon="4.24701">
        <ele>525.98</ele>
        <time>2016-05-08T07:23:19Z</time>
      </trkpt>
      <trkpt lat="44.54074" lon="4.24701">
        <ele>525.98</ele>
        <time>2016-05-08T07:23:20Z</time>
      </trkpt>
      <trkpt lat="44.54076" lon="4.24701">
        <ele>525.5</ele>
        <time>2016-05-08T07:23:21Z</time>
      </trkpt>
      <trkpt lat="44.54079" lon="4.24702">
        <ele>525.5</ele>
        <time>2016-05-08T07:23:22Z</time>
      </trkpt>
      <trkpt lat="44.54082" lon="4.24702">
        <ele>525.5</ele>
        <time>2016-05-08T07:23:23Z</time>
      </trkpt>
      <trkpt lat="44.54085" lon="4.24703">
        <ele>525.02</ele>
        <time>2016-05-08T07:23:24Z</time>
      </trkpt>
      <trkpt lat="44.54087" lon="4.24702">
        <ele>525.02</ele>
        <time>2016-05-08T07:23:25Z</time>
      </trkpt>
      <trkpt lat="44.5409" lon="4.24701">
        <ele>524.54</ele>
        <time>2016-05-08T07:23:27Z</time>
      </trkpt>
      <trkpt lat="44.54091" lon="4.24698">
        <ele>524.54</ele>
        <time>2016-05-08T07:23:28Z</time>
      </trkpt>
      <trkpt lat="44.54093" lon="4.24696">
        <ele>524.54</ele>
        <time>2016-05-08T07:23:29Z</time>
      </trkpt>
      <trkpt lat="44.54096" lon="4.24694">
        <ele>524.54</ele>
        <time>2016-05-08T07:23:30Z</time>
      </trkpt>
      <trkpt lat="44.54098" lon="4.24693">
        <ele>524.54</ele>
        <time>2016-05-08T07:23:31Z</time>
      </trkpt>
      <trkpt lat="44.54102" lon="4.24692">
        <ele>524.54</ele>
        <time>2016-05-08T07:23:32Z</time>
      </trkpt>
      <trkpt lat="44.54132" lon="4.24689">
        <ele>521.65</ele>
        <time>2016-05-08T07:23:40Z</time>
      </trkpt>
      <trkpt lat="44.54158" lon="4.24688">
        <ele>519.73</ele>
        <time>2016-05-08T07:23:50Z</time>
      </trkpt>
      <trkpt lat="44.54166" lon="4.24686">
        <ele>519.25</ele>
        <time>2016-05-08T07:23:52Z</time>
      </trkpt>
      <trkpt lat="44.5417" lon="4.24684">
        <ele>518.77</ele>
        <time>2016-05-08T07:23:53Z</time>
      </trkpt>
      <trkpt lat="44.54174" lon="4.24681">
        <ele>518.77</ele>
        <time>2016-05-08T07:23:54Z</time>
      </trkpt>
      <trkpt lat="44.54177" lon="4.24678">
        <ele>518.77</ele>
        <time>2016-05-08T07:23:55Z</time>
      </trkpt>
      <trkpt lat="44.5418" lon="4.24675">
        <ele>518.29</ele>
        <time>2016-05-08T07:23:56Z</time>
      </trkpt>
      <trkpt lat="44.54182" lon="4.24669">
        <ele>518.29</ele>
        <time>2016-05-08T07:23:57Z</time>
      </trkpt>
      <trkpt lat="44.54184" lon="4.24664">
        <ele>518.29</ele>
        <time>2016-05-08T07:23:58Z</time>
      </trkpt>
      <trkpt lat="44.54198" lon="4.24624">
        <ele>515.4</ele>
        <time>2016-05-08T07:24:09Z</time>
      </trkpt>
      <trkpt lat="44.54205" lon="4.24582">
        <ele>512.04</ele>
        <time>2016-05-08T07:24:19Z</time>
      </trkpt>
      <trkpt lat="44.54206" lon="4.24566">
        <ele>512.04</ele>
        <time>2016-05-08T07:24:23Z</time>
      </trkpt>
      <trkpt lat="44.54209" lon="4.24555">
        <ele>512.04</ele>
        <time>2016-05-08T07:24:26Z</time>
      </trkpt>
      <trkpt lat="44.54211" lon="4.2455">
        <ele>511.56</ele>
        <time>2016-05-08T07:24:27Z</time>
      </trkpt>
      <trkpt lat="44.54222" lon="4.24519">
        <ele>511.08</ele>
        <time>2016-05-08T07:24:34Z</time>
      </trkpt>
      <trkpt lat="44.54224" lon="4.24505">
        <ele>510.6</ele>
        <time>2016-05-08T07:24:39Z</time>
      </trkpt>
      <trkpt lat="44.54225" lon="4.245">
        <ele>510.6</ele>
        <time>2016-05-08T07:24:40Z</time>
      </trkpt>
      <trkpt lat="44.54232" lon="4.24457">
        <ele>510.6</ele>
        <time>2016-05-08T07:24:48Z</time>
      </trkpt>
      <trkpt lat="44.54234" lon="4.24451">
        <ele>510.12</ele>
        <time>2016-05-08T07:24:49Z</time>
      </trkpt>
      <trkpt lat="44.54236" lon="4.24445">
        <ele>509.64</ele>
        <time>2016-05-08T07:24:50Z</time>
      </trkpt>
      <trkpt lat="44.54244" lon="4.24423">
        <ele>506.27</ele>
        <time>2016-05-08T07:24:55Z</time>
      </trkpt>
      <trkpt lat="44.54248" lon="4.24407">
        <ele>505.31</ele>
        <time>2016-05-08T07:25:05Z</time>
      </trkpt>
      <trkpt lat="44.5425" lon="4.24396">
        <ele>505.31</ele>
        <time>2016-05-08T07:25:10Z</time>
      </trkpt>
      <trkpt lat="44.54251" lon="4.24391">
        <ele>505.31</ele>
        <time>2016-05-08T07:25:11Z</time>
      </trkpt>
      <trkpt lat="44.54251" lon="4.24388">
        <ele>505.31</ele>
        <time>2016-05-08T07:25:12Z</time>
      </trkpt>
      <trkpt lat="44.54252" lon="4.24384">
        <ele>505.31</ele>
        <time>2016-05-08T07:25:13Z</time>
      </trkpt>
      <trkpt lat="44.54252" lon="4.2438">
        <ele>504.83</ele>
        <time>2016-05-08T07:25:14Z</time>
      </trkpt>
      <trkpt lat="44.54253" lon="4.24377">
        <ele>504.83</ele>
        <time>2016-05-08T07:25:15Z</time>
      </trkpt>
      <trkpt lat="44.54262" lon="4.24338">
        <ele>504.35</ele>
        <time>2016-05-08T07:25:26Z</time>
      </trkpt>
      <trkpt lat="44.54269" lon="4.24294">
        <ele>503.87</ele>
        <time>2016-05-08T07:25:38Z</time>
      </trkpt>
      <trkpt lat="44.54265" lon="4.24242">
        <ele>502.43</ele>
        <time>2016-05-08T07:25:47Z</time>
      </trkpt>
      <trkpt lat="44.54265" lon="4.24205">
        <ele>501.46</ele>
        <time>2016-05-08T07:25:56Z</time>
      </trkpt>
      <trkpt lat="44.5427" lon="4.24163">
        <ele>502.91</ele>
        <time>2016-05-08T07:26:05Z</time>
      </trkpt>
      <trkpt lat="44.54269" lon="4.24155">
        <ele>502.91</ele>
        <time>2016-05-08T07:26:08Z</time>
      </trkpt>
      <trkpt lat="44.54269" lon="4.24152">
        <ele>502.91</ele>
        <time>2016-05-08T07:26:19Z</time>
      </trkpt>
      <trkpt lat="44.54269" lon="4.2415">
        <ele>502.91</ele>
        <time>2016-05-08T07:26:34Z</time>
      </trkpt>
      <trkpt lat="44.54269" lon="4.2415">
        <ele>503.39</ele>
        <time>2016-05-08T07:26:59Z</time>
      </trkpt>
      <trkpt lat="44.54269" lon="4.24151">
        <ele>503.87</ele>
        <time>2016-05-08T07:27:19Z</time>
      </trkpt>
      <trkpt lat="44.54268" lon="4.24151">
        <ele>503.39</ele>
        <time>2016-05-08T07:27:38Z</time>
      </trkpt>
      <trkpt lat="44.54268" lon="4.24147">
        <ele>503.87</ele>
        <time>2016-05-08T07:28:02Z</time>
      </trkpt>
      <trkpt lat="44.54268" lon="4.24147">
        <ele>503.87</ele>
        <time>2016-05-08T07:28:29Z</time>
      </trkpt>
      <trkpt lat="44.54269" lon="4.24142">
        <ele>504.83</ele>
        <time>2016-05-08T07:28:42Z</time>
      </trkpt>
      <trkpt lat="44.5427" lon="4.24139">
        <ele>504.83</ele>
        <time>2016-05-08T07:28:43Z</time>
      </trkpt>
      <trkpt lat="44.54272" lon="4.24135">
        <ele>504.83</ele>
        <time>2016-05-08T07:28:44Z</time>
      </trkpt>
      <trkpt lat="44.54273" lon="4.24131">
        <ele>504.83</ele>
        <time>2016-05-08T07:28:45Z</time>
      </trkpt>
      <trkpt lat="44.54273" lon="4.24127">
        <ele>504.35</ele>
        <time>2016-05-08T07:28:46Z</time>
      </trkpt>
      <trkpt lat="44.54274" lon="4.24123">
        <ele>504.35</ele>
        <time>2016-05-08T07:28:47Z</time>
      </trkpt>
      <trkpt lat="44.54276" lon="4.24119">
        <ele>504.35</ele>
        <time>2016-05-08T07:28:48Z</time>
      </trkpt>
      <trkpt lat="44.5428" lon="4.24093">
        <ele>503.39</ele>
        <time>2016-05-08T07:28:53Z</time>
      </trkpt>
      <trkpt lat="44.54281" lon="4.24085">
        <ele>502.91</ele>
        <time>2016-05-08T07:28:54Z</time>
      </trkpt>
      <trkpt lat="44.54279" lon="4.24079">
        <ele>502.91</ele>
        <time>2016-05-08T07:28:55Z</time>
      </trkpt>
      <trkpt lat="44.54276" lon="4.24077">
        <ele>503.39</ele>
        <time>2016-05-08T07:28:56Z</time>
      </trkpt>
      <trkpt lat="44.54273" lon="4.24074">
        <ele>502.91</ele>
        <time>2016-05-08T07:28:57Z</time>
      </trkpt>
      <trkpt lat="44.5427" lon="4.24072">
        <ele>502.91</ele>
        <time>2016-05-08T07:28:58Z</time>
      </trkpt>
      <trkpt lat="44.54266" lon="4.24071">
        <ele>502.91</ele>
        <time>2016-05-08T07:28:59Z</time>
      </trkpt>
      <trkpt lat="44.54252" lon="4.24071">
        <ele>501.95</ele>
        <time>2016-05-08T07:29:02Z</time>
      </trkpt>
      <trkpt lat="44.54248" lon="4.24073">
        <ele>501.46</ele>
        <time>2016-05-08T07:29:03Z</time>
      </trkpt>
      <trkpt lat="44.54239" lon="4.24078">
        <ele>500.5</ele>
        <time>2016-05-08T07:29:05Z</time>
      </trkpt>
      <trkpt lat="44.54234" lon="4.24079">
        <ele>500.02</ele>
        <time>2016-05-08T07:29:06Z</time>
      </trkpt>
      <trkpt lat="44.54217" lon="4.24079">
        <ele>500.02</ele>
        <time>2016-05-08T07:29:09Z</time>
      </trkpt>
      <trkpt lat="44.54213" lon="4.24078">
        <ele>499.54</ele>
        <time>2016-05-08T07:29:10Z</time>
      </trkpt>
      <trkpt lat="44.54209" lon="4.24075">
        <ele>499.54</ele>
        <time>2016-05-08T07:29:11Z</time>
      </trkpt>
      <trkpt lat="44.54205" lon="4.24071">
        <ele>499.54</ele>
        <time>2016-05-08T07:29:12Z</time>
      </trkpt>
      <trkpt lat="44.54202" lon="4.24067">
        <ele>499.54</ele>
        <time>2016-05-08T07:29:13Z</time>
      </trkpt>
      <trkpt lat="44.542" lon="4.24063">
        <ele>499.06</ele>
        <time>2016-05-08T07:29:14Z</time>
      </trkpt>
      <trkpt lat="44.54188" lon="4.2404">
        <ele>497.14</ele>
        <time>2016-05-08T07:29:23Z</time>
      </trkpt>
      <trkpt lat="44.54187" lon="4.24038">
        <ele>497.14</ele>
        <time>2016-05-08T07:29:24Z</time>
      </trkpt>
      <trkpt lat="44.54187" lon="4.24035">
        <ele>497.14</ele>
        <time>2016-05-08T07:29:25Z</time>
      </trkpt>
      <trkpt lat="44.54182" lon="4.24015">
        <ele>495.7</ele>
        <time>2016-05-08T07:29:34Z</time>
      </trkpt>
      <trkpt lat="44.54181" lon="4.24014">
        <ele>495.7</ele>
        <time>2016-05-08T07:29:37Z</time>
      </trkpt>
      <trkpt lat="44.5418" lon="4.24012">
        <ele>496.18</ele>
        <time>2016-05-08T07:29:38Z</time>
      </trkpt>
      <trkpt lat="44.54178" lon="4.24009">
        <ele>496.66</ele>
        <time>2016-05-08T07:29:50Z</time>
      </trkpt>
      <trkpt lat="44.54172" lon="4.23991">
        <ele>499.06</ele>
        <time>2016-05-08T07:30:03Z</time>
      </trkpt>
      <trkpt lat="44.5417" lon="4.23991">
        <ele>499.06</ele>
        <time>2016-05-08T07:30:23Z</time>
      </trkpt>
      <trkpt lat="44.54167" lon="4.23985">
        <ele>499.54</ele>
        <time>2016-05-08T07:30:39Z</time>
      </trkpt>
      <trkpt lat="44.54165" lon="4.23972">
        <ele>501.46</ele>
        <time>2016-05-08T07:30:53Z</time>
      </trkpt>
      <trkpt lat="44.54165" lon="4.23972">
        <ele>501.95</ele>
        <time>2016-05-08T07:31:07Z</time>
      </trkpt>
      <trkpt lat="44.54169" lon="4.2397">
        <ele>502.43</ele>
        <time>2016-05-08T07:31:17Z</time>
      </trkpt>
      <trkpt lat="44.54171" lon="4.23969">
        <ele>502.43</ele>
        <time>2016-05-08T07:31:18Z</time>
      </trkpt>
      <trkpt lat="44.54172" lon="4.23968">
        <ele>502.91</ele>
        <time>2016-05-08T07:31:19Z</time>
      </trkpt>
      <trkpt lat="44.54189" lon="4.23961">
        <ele>504.35</ele>
        <time>2016-05-08T07:31:25Z</time>
      </trkpt>
      <trkpt lat="44.54205" lon="4.23939">
        <ele>506.75</ele>
        <time>2016-05-08T07:31:34Z</time>
      </trkpt>
      <trkpt lat="44.54208" lon="4.23929">
        <ele>506.75</ele>
        <time>2016-05-08T07:31:38Z</time>
      </trkpt>
      <trkpt lat="44.54208" lon="4.23897">
        <ele>508.19</ele>
        <time>2016-05-08T07:31:48Z</time>
      </trkpt>
      <trkpt lat="44.5421" lon="4.23881">
        <ele>508.67</ele>
        <time>2016-05-08T07:31:52Z</time>
      </trkpt>
      <trkpt lat="44.54211" lon="4.23869">
        <ele>509.16</ele>
        <time>2016-05-08T07:32:04Z</time>
      </trkpt>
      <trkpt lat="44.54212" lon="4.23865">
        <ele>509.64</ele>
        <time>2016-05-08T07:32:24Z</time>
      </trkpt>
      <trkpt lat="44.54213" lon="4.23861">
        <ele>511.56</ele>
        <time>2016-05-08T07:32:38Z</time>
      </trkpt>
      <trkpt lat="44.54215" lon="4.23861">
        <ele>513.48</ele>
        <time>2016-05-08T07:32:50Z</time>
      </trkpt>
      <trkpt lat="44.54217" lon="4.23841">
        <ele>515.88</ele>
        <time>2016-05-08T07:33:02Z</time>
      </trkpt>
      <trkpt lat="44.54218" lon="4.23838">
        <ele>516.37</ele>
        <time>2016-05-08T07:33:05Z</time>
      </trkpt>
      <trkpt lat="44.54221" lon="4.23831">
        <ele>518.29</ele>
        <time>2016-05-08T07:33:17Z</time>
      </trkpt>
      <trkpt lat="44.54221" lon="4.23831">
        <ele>518.77</ele>
        <time>2016-05-08T07:33:20Z</time>
      </trkpt>
      <trkpt lat="44.54241" lon="4.23821">
        <ele>521.17</ele>
        <time>2016-05-08T07:33:31Z</time>
      </trkpt>
      <trkpt lat="44.54242" lon="4.23814">
        <ele>521.17</ele>
        <time>2016-05-08T07:33:34Z</time>
      </trkpt>
      <trkpt lat="44.54241" lon="4.23799">
        <ele>521.65</ele>
        <time>2016-05-08T07:33:38Z</time>
      </trkpt>
      <trkpt lat="44.54237" lon="4.23737">
        <ele>522.61</ele>
        <time>2016-05-08T07:33:53Z</time>
      </trkpt>
      <trkpt lat="44.54225" lon="4.23695">
        <ele>524.06</ele>
        <time>2016-05-08T07:34:05Z</time>
      </trkpt>
      <trkpt lat="44.54223" lon="4.23668">
        <ele>525.02</ele>
        <time>2016-05-08T07:34:14Z</time>
      </trkpt>
      <trkpt lat="44.5423" lon="4.2363">
        <ele>526.46</ele>
        <time>2016-05-08T07:34:26Z</time>
      </trkpt>
      <trkpt lat="44.54232" lon="4.23589">
        <ele>528.38</ele>
        <time>2016-05-08T07:34:37Z</time>
      </trkpt>
      <trkpt lat="44.54239" lon="4.23543">
        <ele>529.82</ele>
        <time>2016-05-08T07:34:49Z</time>
      </trkpt>
      <trkpt lat="44.54239" lon="4.23532">
        <ele>530.79</ele>
        <time>2016-05-08T07:34:52Z</time>
      </trkpt>
      <trkpt lat="44.54243" lon="4.23511">
        <ele>530.79</ele>
        <time>2016-05-08T07:34:58Z</time>
      </trkpt>
      <trkpt lat="44.54253" lon="4.23463">
        <ele>533.19</ele>
        <time>2016-05-08T07:35:12Z</time>
      </trkpt>
      <trkpt lat="44.54263" lon="4.23428">
        <ele>535.11</ele>
        <time>2016-05-08T07:35:22Z</time>
      </trkpt>
      <trkpt lat="44.54269" lon="4.23425">
        <ele>535.59</ele>
        <time>2016-05-08T07:35:25Z</time>
      </trkpt>
      <trkpt lat="44.5429" lon="4.23412">
        <ele>537.51</ele>
        <time>2016-05-08T07:35:36Z</time>
      </trkpt>
      <trkpt lat="44.54313" lon="4.23394">
        <ele>539.92</ele>
        <time>2016-05-08T07:35:46Z</time>
      </trkpt>
      <trkpt lat="44.54323" lon="4.23388">
        <ele>540.88</ele>
        <time>2016-05-08T07:35:51Z</time>
      </trkpt>
      <trkpt lat="44.54336" lon="4.23375">
        <ele>543.28</ele>
        <time>2016-05-08T07:35:59Z</time>
      </trkpt>
      <trkpt lat="44.54352" lon="4.23367">
        <ele>545.69</ele>
        <time>2016-05-08T07:36:08Z</time>
      </trkpt>
      <trkpt lat="44.54354" lon="4.23381">
        <ele>547.13</ele>
        <time>2016-05-08T07:36:16Z</time>
      </trkpt>
      <trkpt lat="44.54374" lon="4.23385">
        <ele>550.01</ele>
        <time>2016-05-08T07:36:28Z</time>
      </trkpt>
      <trkpt lat="44.54385" lon="4.23377">
        <ele>551.93</ele>
        <time>2016-05-08T07:36:36Z</time>
      </trkpt>
      <trkpt lat="44.54397" lon="4.23365">
        <ele>554.34</ele>
        <time>2016-05-08T07:36:43Z</time>
      </trkpt>
      <trkpt lat="44.54411" lon="4.23354">
        <ele>556.26</ele>
        <time>2016-05-08T07:36:50Z</time>
      </trkpt>
      <trkpt lat="44.54423" lon="4.23353">
        <ele>557.22</ele>
        <time>2016-05-08T07:36:56Z</time>
      </trkpt>
      <trkpt lat="44.54432" lon="4.23351">
        <ele>558.18</ele>
        <time>2016-05-08T07:37:00Z</time>
      </trkpt>
      <trkpt lat="44.54435" lon="4.23345">
        <ele>559.14</ele>
        <time>2016-05-08T07:37:03Z</time>
      </trkpt>
      <trkpt lat="44.54444" lon="4.23334">
        <ele>561.07</ele>
        <time>2016-05-08T07:37:10Z</time>
      </trkpt>
      <trkpt lat="44.54458" lon="4.23303">
        <ele>564.43</ele>
        <time>2016-05-08T07:37:22Z</time>
      </trkpt>
      <trkpt lat="44.54459" lon="4.233">
        <ele>564.43</ele>
        <time>2016-05-08T07:37:23Z</time>
      </trkpt>
      <trkpt lat="44.54469" lon="4.23289">
        <ele>566.35</ele>
        <time>2016-05-08T07:37:30Z</time>
      </trkpt>
      <trkpt lat="44.54475" lon="4.23277">
        <ele>568.28</ele>
        <time>2016-05-08T07:37:35Z</time>
      </trkpt>
      <trkpt lat="44.54483" lon="4.23258">
        <ele>570.2</ele>
        <time>2016-05-08T07:37:42Z</time>
      </trkpt>
      <trkpt lat="44.54483" lon="4.23253">
        <ele>570.68</ele>
        <time>2016-05-08T07:37:44Z</time>
      </trkpt>
      <trkpt lat="44.54481" lon="4.23238">
        <ele>571.64</ele>
        <time>2016-05-08T07:37:49Z</time>
      </trkpt>
      <trkpt lat="44.54475" lon="4.23205">
        <ele>573.56</ele>
        <time>2016-05-08T07:37:58Z</time>
      </trkpt>
      <trkpt lat="44.54454" lon="4.23176">
        <ele>575.97</ele>
        <time>2016-05-08T07:38:11Z</time>
      </trkpt>
      <trkpt lat="44.54439" lon="4.23152">
        <ele>577.89</ele>
        <time>2016-05-08T07:38:22Z</time>
      </trkpt>
      <trkpt lat="44.54428" lon="4.23138">
        <ele>580.29</ele>
        <time>2016-05-08T07:38:32Z</time>
      </trkpt>
      <trkpt lat="44.54428" lon="4.23137">
        <ele>580.29</ele>
        <time>2016-05-08T07:38:33Z</time>
      </trkpt>
      <trkpt lat="44.54425" lon="4.23134">
        <ele>579.81</ele>
        <time>2016-05-08T07:38:39Z</time>
      </trkpt>
      <trkpt lat="44.54427" lon="4.23137">
        <ele>580.29</ele>
        <time>2016-05-08T07:38:46Z</time>
      </trkpt>
      <trkpt lat="44.54422" lon="4.23142">
        <ele>579.81</ele>
        <time>2016-05-08T07:38:56Z</time>
      </trkpt>
      <trkpt lat="44.54422" lon="4.23141">
        <ele>580.29</ele>
        <time>2016-05-08T07:38:57Z</time>
      </trkpt>
      <trkpt lat="44.54419" lon="4.23136">
        <ele>580.29</ele>
        <time>2016-05-08T07:39:01Z</time>
      </trkpt>
      <trkpt lat="44.54419" lon="4.23138">
        <ele>579.81</ele>
        <time>2016-05-08T07:39:12Z</time>
      </trkpt>
      <trkpt lat="44.54422" lon="4.23143">
        <ele>579.81</ele>
        <time>2016-05-08T07:39:20Z</time>
      </trkpt>
      <trkpt lat="44.54419" lon="4.23142">
        <ele>579.33</ele>
        <time>2016-05-08T07:39:28Z</time>
      </trkpt>
      <trkpt lat="44.54419" lon="4.23142">
        <ele>579.33</ele>
        <time>2016-05-08T07:39:47Z</time>
      </trkpt>
      <trkpt lat="44.54422" lon="4.23142">
        <ele>580.29</ele>
        <time>2016-05-08T07:40:05Z</time>
      </trkpt>
      <trkpt lat="44.54426" lon="4.23149">
        <ele>580.77</ele>
        <time>2016-05-08T07:40:12Z</time>
      </trkpt>
      <trkpt lat="44.54442" lon="4.2316">
        <ele>581.73</ele>
        <time>2016-05-08T07:40:22Z</time>
      </trkpt>
      <trkpt lat="44.54466" lon="4.23169">
        <ele>583.66</ele>
        <time>2016-05-08T07:40:35Z</time>
      </trkpt>
      <trkpt lat="44.5449" lon="4.23176">
        <ele>585.58</ele>
        <time>2016-05-08T07:40:47Z</time>
      </trkpt>
      <trkpt lat="44.54512" lon="4.23186">
        <ele>587.02</ele>
        <time>2016-05-08T07:40:58Z</time>
      </trkpt>
      <trkpt lat="44.54543" lon="4.23193">
        <ele>588.95</ele>
        <time>2016-05-08T07:41:11Z</time>
      </trkpt>
      <trkpt lat="44.54555" lon="4.23188">
        <ele>590.39</ele>
        <time>2016-05-08T07:41:18Z</time>
      </trkpt>
      <trkpt lat="44.54565" lon="4.23182">
        <ele>591.35</ele>
        <time>2016-05-08T07:41:23Z</time>
      </trkpt>
      <trkpt lat="44.54584" lon="4.23177">
        <ele>593.27</ele>
        <time>2016-05-08T07:41:35Z</time>
      </trkpt>
      <trkpt lat="44.54603" lon="4.23169">
        <ele>594.71</ele>
        <time>2016-05-08T07:41:45Z</time>
      </trkpt>
      <trkpt lat="44.54621" lon="4.23158">
        <ele>596.64</ele>
        <time>2016-05-08T07:41:54Z</time>
      </trkpt>
      <trkpt lat="44.54644" lon="4.23145">
        <ele>599.52</ele>
        <time>2016-05-08T07:42:07Z</time>
      </trkpt>
      <trkpt lat="44.54649" lon="4.23141">
        <ele>600.48</ele>
        <time>2016-05-08T07:42:12Z</time>
      </trkpt>
      <trkpt lat="44.54656" lon="4.23135">
        <ele>601.44</ele>
        <time>2016-05-08T07:42:17Z</time>
      </trkpt>
      <trkpt lat="44.54661" lon="4.23129">
        <ele>601.44</ele>
        <time>2016-05-08T07:42:21Z</time>
      </trkpt>
      <trkpt lat="44.54666" lon="4.23119">
        <ele>602.4</ele>
        <time>2016-05-08T07:42:25Z</time>
      </trkpt>
      <trkpt lat="44.54683" lon="4.23104">
        <ele>604.33</ele>
        <time>2016-05-08T07:42:36Z</time>
      </trkpt>
      <trkpt lat="44.54692" lon="4.23092">
        <ele>605.77</ele>
        <time>2016-05-08T07:42:44Z</time>
      </trkpt>
      <trkpt lat="44.54696" lon="4.23084">
        <ele>606.25</ele>
        <time>2016-05-08T07:42:48Z</time>
      </trkpt>
      <trkpt lat="44.547" lon="4.23077">
        <ele>607.21</ele>
        <time>2016-05-08T07:42:52Z</time>
      </trkpt>
      <trkpt lat="44.54701" lon="4.23066">
        <ele>607.69</ele>
        <time>2016-05-08T07:42:57Z</time>
      </trkpt>
      <trkpt lat="44.547" lon="4.23025">
        <ele>609.61</ele>
        <time>2016-05-08T07:43:10Z</time>
      </trkpt>
      <trkpt lat="44.54697" lon="4.23023">
        <ele>610.09</ele>
        <time>2016-05-08T07:43:13Z</time>
      </trkpt>
      <trkpt lat="44.5468" lon="4.23015">
        <ele>611.06</ele>
        <time>2016-05-08T07:43:20Z</time>
      </trkpt>
      <trkpt lat="44.54675" lon="4.23014">
        <ele>611.54</ele>
        <time>2016-05-08T07:43:24Z</time>
      </trkpt>
      <trkpt lat="44.54656" lon="4.23014">
        <ele>612.98</ele>
        <time>2016-05-08T07:43:37Z</time>
      </trkpt>
      <trkpt lat="44.54653" lon="4.23014">
        <ele>612.98</ele>
        <time>2016-05-08T07:43:39Z</time>
      </trkpt>
      <trkpt lat="44.54643" lon="4.23013">
        <ele>613.94</ele>
        <time>2016-05-08T07:43:47Z</time>
      </trkpt>
      <trkpt lat="44.54632" lon="4.23013">
        <ele>614.42</ele>
        <time>2016-05-08T07:43:54Z</time>
      </trkpt>
      <trkpt lat="44.54605" lon="4.23007">
        <ele>617.3</ele>
        <time>2016-05-08T07:44:06Z</time>
      </trkpt>
      <trkpt lat="44.54594" lon="4.22994">
        <ele>619.71</ele>
        <time>2016-05-08T07:44:15Z</time>
      </trkpt>
      <trkpt lat="44.54594" lon="4.22991">
        <ele>619.71</ele>
        <time>2016-05-08T07:44:18Z</time>
      </trkpt>
      <trkpt lat="44.54587" lon="4.22986">
        <ele>620.67</ele>
        <time>2016-05-08T07:44:23Z</time>
      </trkpt>
      <trkpt lat="44.54591" lon="4.22988">
        <ele>621.63</ele>
        <time>2016-05-08T07:44:30Z</time>
      </trkpt>
      <trkpt lat="44.54594" lon="4.22988">
        <ele>621.63</ele>
        <time>2016-05-08T07:44:33Z</time>
      </trkpt>
      <trkpt lat="44.54602" lon="4.22986">
        <ele>622.59</ele>
        <time>2016-05-08T07:44:38Z</time>
      </trkpt>
      <trkpt lat="44.54608" lon="4.22984">
        <ele>623.07</ele>
        <time>2016-05-08T07:44:42Z</time>
      </trkpt>
      <trkpt lat="44.54622" lon="4.22978">
        <ele>624.51</ele>
        <time>2016-05-08T07:44:51Z</time>
      </trkpt>
      <trkpt lat="44.54636" lon="4.22972">
        <ele>625.47</ele>
        <time>2016-05-08T07:45:00Z</time>
      </trkpt>
      <trkpt lat="44.5464" lon="4.22971">
        <ele>625.96</ele>
        <time>2016-05-08T07:45:02Z</time>
      </trkpt>
      <trkpt lat="44.5465" lon="4.22963">
        <ele>626.92</ele>
        <time>2016-05-08T07:45:08Z</time>
      </trkpt>
      <trkpt lat="44.54657" lon="4.22966">
        <ele>627.4</ele>
        <time>2016-05-08T07:45:12Z</time>
      </trkpt>
      <trkpt lat="44.5468" lon="4.22941">
        <ele>629.32</ele>
        <time>2016-05-08T07:45:23Z</time>
      </trkpt>
      <trkpt lat="44.54697" lon="4.2292">
        <ele>631.24</ele>
        <time>2016-05-08T07:45:36Z</time>
      </trkpt>
      <trkpt lat="44.54699" lon="4.22918">
        <ele>631.72</ele>
        <time>2016-05-08T07:45:37Z</time>
      </trkpt>
      <trkpt lat="44.54703" lon="4.22907">
        <ele>632.2</ele>
        <time>2016-05-08T07:45:40Z</time>
      </trkpt>
      <trkpt lat="44.54718" lon="4.22887">
        <ele>634.13</ele>
        <time>2016-05-08T07:45:49Z</time>
      </trkpt>
      <trkpt lat="44.54738" lon="4.22871">
        <ele>636.53</ele>
        <time>2016-05-08T07:46:00Z</time>
      </trkpt>
      <trkpt lat="44.54762" lon="4.22851">
        <ele>639.89</ele>
        <time>2016-05-08T07:46:13Z</time>
      </trkpt>
      <trkpt lat="44.54768" lon="4.22846">
        <ele>641.34</ele>
        <time>2016-05-08T07:46:16Z</time>
      </trkpt>
      <trkpt lat="44.5478" lon="4.22842">
        <ele>643.26</ele>
        <time>2016-05-08T07:46:20Z</time>
      </trkpt>
      <trkpt lat="44.54791" lon="4.22817">
        <ele>643.26</ele>
        <time>2016-05-08T07:46:24Z</time>
      </trkpt>
      <trkpt lat="44.54804" lon="4.22793">
        <ele>644.22</ele>
        <time>2016-05-08T07:46:29Z</time>
      </trkpt>
      <trkpt lat="44.54806" lon="4.22787">
        <ele>644.22</ele>
        <time>2016-05-08T07:46:30Z</time>
      </trkpt>
      <trkpt lat="44.54808" lon="4.22781">
        <ele>644.7</ele>
        <time>2016-05-08T07:46:31Z</time>
      </trkpt>
      <trkpt lat="44.5481" lon="4.22774">
        <ele>645.18</ele>
        <time>2016-05-08T07:46:32Z</time>
      </trkpt>
      <trkpt lat="44.54811" lon="4.22767">
        <ele>645.66</ele>
        <time>2016-05-08T07:46:33Z</time>
      </trkpt>
      <trkpt lat="44.54813" lon="4.22761">
        <ele>646.14</ele>
        <time>2016-05-08T07:46:34Z</time>
      </trkpt>
      <trkpt lat="44.54814" lon="4.22755">
        <ele>646.62</ele>
        <time>2016-05-08T07:46:35Z</time>
      </trkpt>
      <trkpt lat="44.54814" lon="4.22749">
        <ele>646.62</ele>
        <time>2016-05-08T07:46:36Z</time>
      </trkpt>
      <trkpt lat="44.54816" lon="4.22735">
        <ele>647.59</ele>
        <time>2016-05-08T07:46:38Z</time>
      </trkpt>
      <trkpt lat="44.54816" lon="4.22675">
        <ele>650.47</ele>
        <time>2016-05-08T07:46:46Z</time>
      </trkpt>
      <trkpt lat="44.5481" lon="4.22608">
        <ele>653.35</ele>
        <time>2016-05-08T07:46:58Z</time>
      </trkpt>
      <trkpt lat="44.54798" lon="4.22555">
        <ele>656.72</ele>
        <time>2016-05-08T07:47:09Z</time>
      </trkpt>
      <trkpt lat="44.54793" lon="4.22541">
        <ele>657.68</ele>
        <time>2016-05-08T07:47:12Z</time>
      </trkpt>
      <trkpt lat="44.54776" lon="4.22491">
        <ele>660.56</ele>
        <time>2016-05-08T07:47:26Z</time>
      </trkpt>
      <trkpt lat="44.54773" lon="4.22489">
        <ele>660.56</ele>
        <time>2016-05-08T07:47:27Z</time>
      </trkpt>
      <trkpt lat="44.5477" lon="4.22489">
        <ele>661.04</ele>
        <time>2016-05-08T07:47:28Z</time>
      </trkpt>
      <trkpt lat="44.54733" lon="4.22507">
        <ele>664.41</ele>
        <time>2016-05-08T07:47:40Z</time>
      </trkpt>
      <trkpt lat="44.547" lon="4.22528">
        <ele>666.33</ele>
        <time>2016-05-08T07:47:51Z</time>
      </trkpt>
      <trkpt lat="44.54659" lon="4.22526">
        <ele>666.81</ele>
        <time>2016-05-08T07:48:00Z</time>
      </trkpt>
      <trkpt lat="44.54655" lon="4.22524">
        <ele>666.81</ele>
        <time>2016-05-08T07:48:01Z</time>
      </trkpt>
      <trkpt lat="44.54631" lon="4.22506">
        <ele>666.81</ele>
        <time>2016-05-08T07:48:06Z</time>
      </trkpt>
      <trkpt lat="44.54626" lon="4.225">
        <ele>666.33</ele>
        <time>2016-05-08T07:48:07Z</time>
      </trkpt>
      <trkpt lat="44.54618" lon="4.2249">
        <ele>666.33</ele>
        <time>2016-05-08T07:48:09Z</time>
      </trkpt>
      <trkpt lat="44.54614" lon="4.22485">
        <ele>666.33</ele>
        <time>2016-05-08T07:48:10Z</time>
      </trkpt>
      <trkpt lat="44.54589" lon="4.22437">
        <ele>668.25</ele>
        <time>2016-05-08T07:48:21Z</time>
      </trkpt>
      <trkpt lat="44.54587" lon="4.22426">
        <ele>669.7</ele>
        <time>2016-05-08T07:48:24Z</time>
      </trkpt>
      <trkpt lat="44.54585" lon="4.22423">
        <ele>669.7</ele>
        <time>2016-05-08T07:48:25Z</time>
      </trkpt>
      <trkpt lat="44.54583" lon="4.22419">
        <ele>669.7</ele>
        <time>2016-05-08T07:48:26Z</time>
      </trkpt>
      <trkpt lat="44.54583" lon="4.22415">
        <ele>670.18</ele>
        <time>2016-05-08T07:48:27Z</time>
      </trkpt>
      <trkpt lat="44.54582" lon="4.22412">
        <ele>670.18</ele>
        <time>2016-05-08T07:48:28Z</time>
      </trkpt>
      <trkpt lat="44.54581" lon="4.22409">
        <ele>670.66</ele>
        <time>2016-05-08T07:48:29Z</time>
      </trkpt>
      <trkpt lat="44.54572" lon="4.22373">
        <ele>673.06</ele>
        <time>2016-05-08T07:48:40Z</time>
      </trkpt>
      <trkpt lat="44.54568" lon="4.22361">
        <ele>674.98</ele>
        <time>2016-05-08T07:48:46Z</time>
      </trkpt>
      <trkpt lat="44.54568" lon="4.22358">
        <ele>674.98</ele>
        <time>2016-05-08T07:48:47Z</time>
      </trkpt>
      <trkpt lat="44.54567" lon="4.22356">
        <ele>675.46</ele>
        <time>2016-05-08T07:48:48Z</time>
      </trkpt>
      <trkpt lat="44.54566" lon="4.22352">
        <ele>675.94</ele>
        <time>2016-05-08T07:48:49Z</time>
      </trkpt>
      <trkpt lat="44.54565" lon="4.22349">
        <ele>675.94</ele>
        <time>2016-05-08T07:48:50Z</time>
      </trkpt>
      <trkpt lat="44.54556" lon="4.22306">
        <ele>678.83</ele>
        <time>2016-05-08T07:49:02Z</time>
      </trkpt>
      <trkpt lat="44.54537" lon="4.22272">
        <ele>682.19</ele>
        <time>2016-05-08T07:49:15Z</time>
      </trkpt>
      <trkpt lat="44.54516" lon="4.22244">
        <ele>685.08</ele>
        <time>2016-05-08T07:49:27Z</time>
      </trkpt>
      <trkpt lat="44.54508" lon="4.22225">
        <ele>687.48</ele>
        <time>2016-05-08T07:49:36Z</time>
      </trkpt>
      <trkpt lat="44.54486" lon="4.22191">
        <ele>690.36</ele>
        <time>2016-05-08T07:49:49Z</time>
      </trkpt>
      <trkpt lat="44.54467" lon="4.2216">
        <ele>693.25</ele>
        <time>2016-05-08T07:50:00Z</time>
      </trkpt>
      <trkpt lat="44.54457" lon="4.22126">
        <ele>696.61</ele>
        <time>2016-05-08T07:50:10Z</time>
      </trkpt>
      <trkpt lat="44.54448" lon="4.22086">
        <ele>699.02</ele>
        <time>2016-05-08T07:50:22Z</time>
      </trkpt>
      <trkpt lat="44.54437" lon="4.22043">
        <ele>702.38</ele>
        <time>2016-05-08T07:50:36Z</time>
      </trkpt>
      <trkpt lat="44.5442" lon="4.22018">
        <ele>704.78</ele>
        <time>2016-05-08T07:50:47Z</time>
      </trkpt>
      <trkpt lat="44.54387" lon="4.22037">
        <ele>705.75</ele>
        <time>2016-05-08T07:50:57Z</time>
      </trkpt>
      <trkpt lat="44.54373" lon="4.22044">
        <ele>705.75</ele>
        <time>2016-05-08T07:51:00Z</time>
      </trkpt>
      <trkpt lat="44.54369" lon="4.22046">
        <ele>705.75</ele>
        <time>2016-05-08T07:51:01Z</time>
      </trkpt>
      <trkpt lat="44.54364" lon="4.22048">
        <ele>705.75</ele>
        <time>2016-05-08T07:51:02Z</time>
      </trkpt>
      <trkpt lat="44.54359" lon="4.22049">
        <ele>705.75</ele>
        <time>2016-05-08T07:51:03Z</time>
      </trkpt>
      <trkpt lat="44.54355" lon="4.22047">
        <ele>706.23</ele>
        <time>2016-05-08T07:51:04Z</time>
      </trkpt>
      <trkpt lat="44.54352" lon="4.22045">
        <ele>706.23</ele>
        <time>2016-05-08T07:51:05Z</time>
      </trkpt>
      <trkpt lat="44.54349" lon="4.22042">
        <ele>706.23</ele>
        <time>2016-05-08T07:51:06Z</time>
      </trkpt>
      <trkpt lat="44.54346" lon="4.22039">
        <ele>706.71</ele>
        <time>2016-05-08T07:51:07Z</time>
      </trkpt>
      <trkpt lat="44.5433" lon="4.22001">
        <ele>709.59</ele>
        <time>2016-05-08T07:51:19Z</time>
      </trkpt>
      <trkpt lat="44.54328" lon="4.21966">
        <ele>712.47</ele>
        <time>2016-05-08T07:51:32Z</time>
      </trkpt>
      <trkpt lat="44.54331" lon="4.21955">
        <ele>713.44</ele>
        <time>2016-05-08T07:51:38Z</time>
      </trkpt>
      <trkpt lat="44.54331" lon="4.21953">
        <ele>713.92</ele>
        <time>2016-05-08T07:51:39Z</time>
      </trkpt>
      <trkpt lat="44.54332" lon="4.21948">
        <ele>714.4</ele>
        <time>2016-05-08T07:51:41Z</time>
      </trkpt>
      <trkpt lat="44.54332" lon="4.21945">
        <ele>714.4</ele>
        <time>2016-05-08T07:51:42Z</time>
      </trkpt>
      <trkpt lat="44.54333" lon="4.21942">
        <ele>714.88</ele>
        <time>2016-05-08T07:51:43Z</time>
      </trkpt>
      <trkpt lat="44.54333" lon="4.21939">
        <ele>714.88</ele>
        <time>2016-05-08T07:51:44Z</time>
      </trkpt>
      <trkpt lat="44.54334" lon="4.21937">
        <ele>714.88</ele>
        <time>2016-05-08T07:51:45Z</time>
      </trkpt>
      <trkpt lat="44.54334" lon="4.21934">
        <ele>715.36</ele>
        <time>2016-05-08T07:51:46Z</time>
      </trkpt>
      <trkpt lat="44.54335" lon="4.21932">
        <ele>715.36</ele>
        <time>2016-05-08T07:51:47Z</time>
      </trkpt>
      <trkpt lat="44.54335" lon="4.2193">
        <ele>715.84</ele>
        <time>2016-05-08T07:51:48Z</time>
      </trkpt>
      <trkpt lat="44.54333" lon="4.21889">
        <ele>718.24</ele>
        <time>2016-05-08T07:52:01Z</time>
      </trkpt>
      <trkpt lat="44.54331" lon="4.21869">
        <ele>719.68</ele>
        <time>2016-05-08T07:52:07Z</time>
      </trkpt>
      <trkpt lat="44.54331" lon="4.21866">
        <ele>720.16</ele>
        <time>2016-05-08T07:52:08Z</time>
      </trkpt>
      <trkpt lat="44.5433" lon="4.21863">
        <ele>720.16</ele>
        <time>2016-05-08T07:52:09Z</time>
      </trkpt>
      <trkpt lat="44.5433" lon="4.21861">
        <ele>720.65</ele>
        <time>2016-05-08T07:52:10Z</time>
      </trkpt>
      <trkpt lat="44.54329" lon="4.21859">
        <ele>721.13</ele>
        <time>2016-05-08T07:52:11Z</time>
      </trkpt>
      <trkpt lat="44.54329" lon="4.21857">
        <ele>721.61</ele>
        <time>2016-05-08T07:52:12Z</time>
      </trkpt>
      <trkpt lat="44.54328" lon="4.21855">
        <ele>721.61</ele>
        <time>2016-05-08T07:52:13Z</time>
      </trkpt>
      <trkpt lat="44.54328" lon="4.21852">
        <ele>722.09</ele>
        <time>2016-05-08T07:52:14Z</time>
      </trkpt>
      <trkpt lat="44.54327" lon="4.21846">
        <ele>723.05</ele>
        <time>2016-05-08T07:52:17Z</time>
      </trkpt>
      <trkpt lat="44.54326" lon="4.21844">
        <ele>723.53</ele>
        <time>2016-05-08T07:52:18Z</time>
      </trkpt>
      <trkpt lat="44.54327" lon="4.21842">
        <ele>723.53</ele>
        <time>2016-05-08T07:52:19Z</time>
      </trkpt>
      <trkpt lat="44.54327" lon="4.2184">
        <ele>724.01</ele>
        <time>2016-05-08T07:52:20Z</time>
      </trkpt>
      <trkpt lat="44.54327" lon="4.21834">
        <ele>724.49</ele>
        <time>2016-05-08T07:52:22Z</time>
      </trkpt>
      <trkpt lat="44.54326" lon="4.21832">
        <ele>724.49</ele>
        <time>2016-05-08T07:52:23Z</time>
      </trkpt>
      <trkpt lat="44.54325" lon="4.21829">
        <ele>724.49</ele>
        <time>2016-05-08T07:52:24Z</time>
      </trkpt>
      <trkpt lat="44.54322" lon="4.21822">
        <ele>725.45</ele>
        <time>2016-05-08T07:52:27Z</time>
      </trkpt>
      <trkpt lat="44.54326" lon="4.21817">
        <ele>727.37</ele>
        <time>2016-05-08T07:52:32Z</time>
      </trkpt>
      <trkpt lat="44.54328" lon="4.21818">
        <ele>727.86</ele>
        <time>2016-05-08T07:52:34Z</time>
      </trkpt>
      <trkpt lat="44.54331" lon="4.21821">
        <ele>728.34</ele>
        <time>2016-05-08T07:52:37Z</time>
      </trkpt>
      <trkpt lat="44.54349" lon="4.21849">
        <ele>731.7</ele>
        <time>2016-05-08T07:52:51Z</time>
      </trkpt>
      <trkpt lat="44.54373" lon="4.21868">
        <ele>734.1</ele>
        <time>2016-05-08T07:53:02Z</time>
      </trkpt>
      <trkpt lat="44.54406" lon="4.21887">
        <ele>737.47</ele>
        <time>2016-05-08T07:53:15Z</time>
      </trkpt>
      <trkpt lat="44.54412" lon="4.21886">
        <ele>737.47</ele>
        <time>2016-05-08T07:53:17Z</time>
      </trkpt>
      <trkpt lat="44.54435" lon="4.21898">
        <ele>739.39</ele>
        <time>2016-05-08T07:53:29Z</time>
      </trkpt>
      <trkpt lat="44.5446" lon="4.21914">
        <ele>741.31</ele>
        <time>2016-05-08T07:53:42Z</time>
      </trkpt>
      <trkpt lat="44.54478" lon="4.21902">
        <ele>744.68</ele>
        <time>2016-05-08T07:53:51Z</time>
      </trkpt>
      <trkpt lat="44.54477" lon="4.21897">
        <ele>745.64</ele>
        <time>2016-05-08T07:53:53Z</time>
      </trkpt>
      <trkpt lat="44.54463" lon="4.2186">
        <ele>749</ele>
        <time>2016-05-08T07:54:04Z</time>
      </trkpt>
      <trkpt lat="44.54453" lon="4.21835">
        <ele>752.37</ele>
        <time>2016-05-08T07:54:14Z</time>
      </trkpt>
      <trkpt lat="44.54445" lon="4.21796">
        <ele>754.77</ele>
        <time>2016-05-08T07:54:27Z</time>
      </trkpt>
      <trkpt lat="44.54437" lon="4.21763">
        <ele>757.66</ele>
        <time>2016-05-08T07:54:39Z</time>
      </trkpt>
      <trkpt lat="44.54428" lon="4.21715">
        <ele>761.02</ele>
        <time>2016-05-08T07:54:54Z</time>
      </trkpt>
      <trkpt lat="44.54429" lon="4.21708">
        <ele>761.02</ele>
        <time>2016-05-08T07:54:57Z</time>
      </trkpt>
      <trkpt lat="44.54439" lon="4.21709">
        <ele>762.94</ele>
        <time>2016-05-08T07:55:05Z</time>
      </trkpt>
      <trkpt lat="44.54439" lon="4.21711">
        <ele>763.42</ele>
        <time>2016-05-08T07:55:06Z</time>
      </trkpt>
      <trkpt lat="44.54449" lon="4.21739">
        <ele>766.79</ele>
        <time>2016-05-08T07:55:19Z</time>
      </trkpt>
      <trkpt lat="44.5447" lon="4.21748">
        <ele>769.19</ele>
        <time>2016-05-08T07:55:28Z</time>
      </trkpt>
      <trkpt lat="44.54498" lon="4.2175">
        <ele>772.56</ele>
        <time>2016-05-08T07:55:41Z</time>
      </trkpt>
      <trkpt lat="44.545" lon="4.21748">
        <ele>773.04</ele>
        <time>2016-05-08T07:55:42Z</time>
      </trkpt>
      <trkpt lat="44.54499" lon="4.21732">
        <ele>774</ele>
        <time>2016-05-08T07:55:51Z</time>
      </trkpt>
      <trkpt lat="44.54499" lon="4.21733">
        <ele>774</ele>
        <time>2016-05-08T07:56:02Z</time>
      </trkpt>
      <trkpt lat="44.54499" lon="4.21734">
        <ele>770.63</ele>
        <time>2016-05-08T07:56:07Z</time>
      </trkpt>
      <trkpt lat="44.54499" lon="4.21734">
        <ele>774</ele>
        <time>2016-05-08T07:56:08Z</time>
      </trkpt>
      <trkpt lat="44.54494" lon="4.21736">
        <ele>774.48</ele>
        <time>2016-05-08T08:07:17Z</time>
      </trkpt>
      <trkpt lat="44.54493" lon="4.21736">
        <ele>774.48</ele>
        <time>2016-05-08T08:07:18Z</time>
      </trkpt>
      <trkpt lat="44.54496" lon="4.21735">
        <ele>771.11</ele>
        <time>2016-05-08T08:07:37Z</time>
      </trkpt>
      <trkpt lat="44.54495" lon="4.21733">
        <ele>770.15</ele>
        <time>2016-05-08T08:07:48Z</time>
      </trkpt>
      <trkpt lat="44.54497" lon="4.21737">
        <ele>769.19</ele>
        <time>2016-05-08T08:07:54Z</time>
      </trkpt>
      <trkpt lat="44.54499" lon="4.21745">
        <ele>768.23</ele>
        <time>2016-05-08T08:08:08Z</time>
      </trkpt>
      <trkpt lat="44.545" lon="4.21746">
        <ele>768.23</ele>
        <time>2016-05-08T08:08:27Z</time>
      </trkpt>
      <trkpt lat="44.54497" lon="4.21749">
        <ele>768.23</ele>
        <time>2016-05-08T08:08:48Z</time>
      </trkpt>
      <trkpt lat="44.54492" lon="4.21746">
        <ele>768.23</ele>
        <time>2016-05-08T08:09:14Z</time>
      </trkpt>
      <trkpt lat="44.54492" lon="4.21746">
        <ele>768.23</ele>
        <time>2016-05-08T08:09:36Z</time>
      </trkpt>
      <trkpt lat="44.54493" lon="4.21746">
        <ele>768.23</ele>
        <time>2016-05-08T08:09:48Z</time>
      </trkpt>
      <trkpt lat="44.54499" lon="4.21751">
        <ele>768.71</ele>
        <time>2016-05-08T08:09:54Z</time>
      </trkpt>
      <trkpt lat="44.54515" lon="4.21782">
        <ele>767.75</ele>
        <time>2016-05-08T08:10:04Z</time>
      </trkpt>
      <trkpt lat="44.54527" lon="4.21811">
        <ele>766.31</ele>
        <time>2016-05-08T08:10:09Z</time>
      </trkpt>
      <trkpt lat="44.54529" lon="4.21817">
        <ele>766.31</ele>
        <time>2016-05-08T08:10:10Z</time>
      </trkpt>
      <trkpt lat="44.54532" lon="4.21822">
        <ele>766.31</ele>
        <time>2016-05-08T08:10:11Z</time>
      </trkpt>
      <trkpt lat="44.54534" lon="4.21827">
        <ele>766.31</ele>
        <time>2016-05-08T08:10:12Z</time>
      </trkpt>
      <trkpt lat="44.54536" lon="4.21832">
        <ele>766.31</ele>
        <time>2016-05-08T08:10:13Z</time>
      </trkpt>
      <trkpt lat="44.54553" lon="4.21866">
        <ele>767.27</ele>
        <time>2016-05-08T08:10:23Z</time>
      </trkpt>
      <trkpt lat="44.54556" lon="4.21868">
        <ele>767.75</ele>
        <time>2016-05-08T08:10:24Z</time>
      </trkpt>
      <trkpt lat="44.5456" lon="4.21871">
        <ele>767.75</ele>
        <time>2016-05-08T08:10:25Z</time>
      </trkpt>
      <trkpt lat="44.54564" lon="4.21872">
        <ele>767.75</ele>
        <time>2016-05-08T08:10:26Z</time>
      </trkpt>
      <trkpt lat="44.54566" lon="4.21871">
        <ele>768.71</ele>
        <time>2016-05-08T08:10:27Z</time>
      </trkpt>
      <trkpt lat="44.54567" lon="4.21868">
        <ele>768.71</ele>
        <time>2016-05-08T08:10:28Z</time>
      </trkpt>
      <trkpt lat="44.54567" lon="4.21864">
        <ele>768.71</ele>
        <time>2016-05-08T08:10:29Z</time>
      </trkpt>
      <trkpt lat="44.54567" lon="4.21861">
        <ele>768.71</ele>
        <time>2016-05-08T08:10:30Z</time>
      </trkpt>
      <trkpt lat="44.54566" lon="4.21857">
        <ele>768.71</ele>
        <time>2016-05-08T08:10:31Z</time>
      </trkpt>
      <trkpt lat="44.54565" lon="4.21854">
        <ele>768.71</ele>
        <time>2016-05-08T08:10:32Z</time>
      </trkpt>
      <trkpt lat="44.54564" lon="4.21851">
        <ele>769.19</ele>
        <time>2016-05-08T08:10:33Z</time>
      </trkpt>
      <trkpt lat="44.54556" lon="4.21815">
        <ele>772.08</ele>
        <time>2016-05-08T08:10:45Z</time>
      </trkpt>
      <trkpt lat="44.54552" lon="4.21786">
        <ele>775.92</ele>
        <time>2016-05-08T08:10:54Z</time>
      </trkpt>
      <trkpt lat="44.54549" lon="4.21745">
        <ele>778.32</ele>
        <time>2016-05-08T08:11:06Z</time>
      </trkpt>
      <trkpt lat="44.54541" lon="4.217">
        <ele>779.77</ele>
        <time>2016-05-08T08:11:19Z</time>
      </trkpt>
      <trkpt lat="44.54541" lon="4.21684">
        <ele>781.69</ele>
        <time>2016-05-08T08:11:25Z</time>
      </trkpt>
      <trkpt lat="44.54539" lon="4.21681">
        <ele>782.17</ele>
        <time>2016-05-08T08:11:27Z</time>
      </trkpt>
      <trkpt lat="44.54537" lon="4.2168">
        <ele>782.17</ele>
        <time>2016-05-08T08:11:28Z</time>
      </trkpt>
      <trkpt lat="44.54535" lon="4.2168">
        <ele>782.65</ele>
        <time>2016-05-08T08:11:29Z</time>
      </trkpt>
      <trkpt lat="44.54533" lon="4.2168">
        <ele>782.65</ele>
        <time>2016-05-08T08:11:30Z</time>
      </trkpt>
      <trkpt lat="44.54531" lon="4.2168">
        <ele>783.13</ele>
        <time>2016-05-08T08:11:31Z</time>
      </trkpt>
      <trkpt lat="44.54523" lon="4.21679">
        <ele>784.57</ele>
        <time>2016-05-08T08:11:35Z</time>
      </trkpt>
      <trkpt lat="44.54522" lon="4.21677">
        <ele>784.57</ele>
        <time>2016-05-08T08:11:36Z</time>
      </trkpt>
      <trkpt lat="44.54521" lon="4.21674">
        <ele>784.57</ele>
        <time>2016-05-08T08:11:37Z</time>
      </trkpt>
      <trkpt lat="44.54521" lon="4.21663">
        <ele>784.57</ele>
        <time>2016-05-08T08:11:41Z</time>
      </trkpt>
      <trkpt lat="44.54521" lon="4.21659">
        <ele>784.57</ele>
        <time>2016-05-08T08:11:42Z</time>
      </trkpt>
      <trkpt lat="44.54522" lon="4.21656">
        <ele>785.05</ele>
        <time>2016-05-08T08:11:43Z</time>
      </trkpt>
      <trkpt lat="44.54523" lon="4.21654">
        <ele>785.05</ele>
        <time>2016-05-08T08:11:44Z</time>
      </trkpt>
      <trkpt lat="44.54524" lon="4.21651">
        <ele>785.05</ele>
        <time>2016-05-08T08:11:45Z</time>
      </trkpt>
      <trkpt lat="44.54525" lon="4.21649">
        <ele>785.53</ele>
        <time>2016-05-08T08:11:46Z</time>
      </trkpt>
      <trkpt lat="44.54526" lon="4.21647">
        <ele>785.53</ele>
        <time>2016-05-08T08:11:47Z</time>
      </trkpt>
      <trkpt lat="44.54527" lon="4.21644">
        <ele>785.53</ele>
        <time>2016-05-08T08:11:48Z</time>
      </trkpt>
      <trkpt lat="44.54528" lon="4.21643">
        <ele>785.53</ele>
        <time>2016-05-08T08:11:49Z</time>
      </trkpt>
      <trkpt lat="44.54531" lon="4.21636">
        <ele>785.05</ele>
        <time>2016-05-08T08:11:57Z</time>
      </trkpt>
      <trkpt lat="44.54535" lon="4.21631">
        <ele>784.57</ele>
        <time>2016-05-08T08:12:01Z</time>
      </trkpt>
      <trkpt lat="44.54537" lon="4.2163">
        <ele>784.57</ele>
        <time>2016-05-08T08:12:03Z</time>
      </trkpt>
      <trkpt lat="44.54538" lon="4.2163">
        <ele>784.57</ele>
        <time>2016-05-08T08:12:04Z</time>
      </trkpt>
      <trkpt lat="44.54539" lon="4.21629">
        <ele>784.57</ele>
        <time>2016-05-08T08:12:05Z</time>
      </trkpt>
      <trkpt lat="44.5454" lon="4.21629">
        <ele>784.57</ele>
        <time>2016-05-08T08:12:22Z</time>
      </trkpt>
      <trkpt lat="44.5454" lon="4.21629">
        <ele>784.57</ele>
        <time>2016-05-08T08:12:48Z</time>
      </trkpt>
      <trkpt lat="44.5454" lon="4.21629">
        <ele>784.57</ele>
        <time>2016-05-08T08:13:04Z</time>
      </trkpt>
      <trkpt lat="44.5454" lon="4.21628">
        <ele>784.57</ele>
        <time>2016-05-08T08:13:18Z</time>
      </trkpt>
      <trkpt lat="44.5454" lon="4.21628">
        <ele>784.57</ele>
        <time>2016-05-08T08:13:38Z</time>
      </trkpt>
      <trkpt lat="44.54539" lon="4.21628">
        <ele>784.57</ele>
        <time>2016-05-08T08:13:51Z</time>
      </trkpt>
      <trkpt lat="44.54536" lon="4.21629">
        <ele>784.57</ele>
        <time>2016-05-08T08:13:59Z</time>
      </trkpt>
      <trkpt lat="44.54536" lon="4.21631">
        <ele>784.57</ele>
        <time>2016-05-08T08:14:00Z</time>
      </trkpt>
      <trkpt lat="44.54536" lon="4.21632">
        <ele>784.09</ele>
        <time>2016-05-08T08:14:01Z</time>
      </trkpt>
      <trkpt lat="44.54537" lon="4.21634">
        <ele>784.09</ele>
        <time>2016-05-08T08:14:02Z</time>
      </trkpt>
      <trkpt lat="44.54539" lon="4.21635">
        <ele>784.09</ele>
        <time>2016-05-08T08:14:08Z</time>
      </trkpt>
      <trkpt lat="44.54539" lon="4.21634">
        <ele>784.57</ele>
        <time>2016-05-08T08:14:09Z</time>
      </trkpt>
      <trkpt lat="44.54538" lon="4.21632">
        <ele>784.57</ele>
        <time>2016-05-08T08:14:10Z</time>
      </trkpt>
      <trkpt lat="44.54538" lon="4.21627">
        <ele>784.57</ele>
        <time>2016-05-08T08:14:21Z</time>
      </trkpt>
      <trkpt lat="44.54538" lon="4.21627">
        <ele>784.57</ele>
        <time>2016-05-08T08:14:34Z</time>
      </trkpt>
      <trkpt lat="44.54538" lon="4.21627">
        <ele>784.09</ele>
        <time>2016-05-08T08:14:48Z</time>
      </trkpt>
      <trkpt lat="44.54538" lon="4.21627">
        <ele>784.09</ele>
        <time>2016-05-08T08:15:06Z</time>
      </trkpt>
      <trkpt lat="44.54538" lon="4.21626">
        <ele>783.61</ele>
        <time>2016-05-08T08:15:22Z</time>
      </trkpt>
      <trkpt lat="44.54538" lon="4.21626">
        <ele>784.09</ele>
        <time>2016-05-08T08:15:41Z</time>
      </trkpt>
      <trkpt lat="44.54538" lon="4.21627">
        <ele>784.09</ele>
        <time>2016-05-08T08:16:05Z</time>
      </trkpt>
      <trkpt lat="44.54538" lon="4.21626">
        <ele>783.61</ele>
        <time>2016-05-08T08:16:25Z</time>
      </trkpt>
      <trkpt lat="44.54538" lon="4.21626">
        <ele>783.61</ele>
        <time>2016-05-08T08:16:48Z</time>
      </trkpt>
      <trkpt lat="44.54537" lon="4.21626">
        <ele>784.09</ele>
        <time>2016-05-08T08:17:07Z</time>
      </trkpt>
      <trkpt lat="44.54537" lon="4.21627">
        <ele>784.09</ele>
        <time>2016-05-08T08:17:27Z</time>
      </trkpt>
      <trkpt lat="44.54536" lon="4.21628">
        <ele>784.57</ele>
        <time>2016-05-08T08:17:34Z</time>
      </trkpt>
      <trkpt lat="44.54535" lon="4.2163">
        <ele>784.57</ele>
        <time>2016-05-08T08:17:35Z</time>
      </trkpt>
      <trkpt lat="44.54533" lon="4.21631">
        <ele>784.57</ele>
        <time>2016-05-08T08:17:36Z</time>
      </trkpt>
      <trkpt lat="44.54532" lon="4.21632">
        <ele>784.57</ele>
        <time>2016-05-08T08:17:37Z</time>
      </trkpt>
      <trkpt lat="44.54531" lon="4.21633">
        <ele>784.57</ele>
        <time>2016-05-08T08:17:38Z</time>
      </trkpt>
      <trkpt lat="44.5453" lon="4.21634">
        <ele>784.57</ele>
        <time>2016-05-08T08:17:39Z</time>
      </trkpt>
      <trkpt lat="44.54529" lon="4.21633">
        <ele>784.57</ele>
        <time>2016-05-08T08:17:47Z</time>
      </trkpt>
      <trkpt lat="44.54528" lon="4.21631">
        <ele>784.57</ele>
        <time>2016-05-08T08:17:48Z</time>
      </trkpt>
      <trkpt lat="44.54527" lon="4.2163">
        <ele>784.57</ele>
        <time>2016-05-08T08:17:50Z</time>
      </trkpt>
      <trkpt lat="44.54526" lon="4.2163">
        <ele>784.57</ele>
        <time>2016-05-08T08:17:51Z</time>
      </trkpt>
      <trkpt lat="44.54524" lon="4.21632">
        <ele>784.57</ele>
        <time>2016-05-08T08:17:52Z</time>
      </trkpt>
      <trkpt lat="44.54523" lon="4.21633">
        <ele>784.57</ele>
        <time>2016-05-08T08:17:53Z</time>
      </trkpt>
      <trkpt lat="44.54523" lon="4.21636">
        <ele>784.57</ele>
        <time>2016-05-08T08:17:54Z</time>
      </trkpt>
      <trkpt lat="44.54523" lon="4.21638">
        <ele>785.05</ele>
        <time>2016-05-08T08:17:55Z</time>
      </trkpt>
      <trkpt lat="44.54524" lon="4.2164">
        <ele>784.57</ele>
        <time>2016-05-08T08:17:56Z</time>
      </trkpt>
      <trkpt lat="44.54525" lon="4.21642">
        <ele>784.57</ele>
        <time>2016-05-08T08:17:57Z</time>
      </trkpt>
      <trkpt lat="44.54525" lon="4.21645">
        <ele>784.57</ele>
        <time>2016-05-08T08:17:58Z</time>
      </trkpt>
      <trkpt lat="44.54524" lon="4.21647">
        <ele>785.05</ele>
        <time>2016-05-08T08:17:59Z</time>
      </trkpt>
      <trkpt lat="44.54524" lon="4.21649">
        <ele>785.05</ele>
        <time>2016-05-08T08:18:00Z</time>
      </trkpt>
      <trkpt lat="44.54523" lon="4.21651">
        <ele>785.05</ele>
        <time>2016-05-08T08:18:01Z</time>
      </trkpt>
      <trkpt lat="44.54522" lon="4.21654">
        <ele>784.57</ele>
        <time>2016-05-08T08:18:02Z</time>
      </trkpt>
      <trkpt lat="44.54518" lon="4.21669">
        <ele>783.61</ele>
        <time>2016-05-08T08:18:08Z</time>
      </trkpt>
      <trkpt lat="44.54519" lon="4.21671">
        <ele>783.61</ele>
        <time>2016-05-08T08:18:09Z</time>
      </trkpt>
      <trkpt lat="44.54519" lon="4.21672">
        <ele>783.61</ele>
        <time>2016-05-08T08:18:10Z</time>
      </trkpt>
      <trkpt lat="44.5452" lon="4.21673">
        <ele>783.61</ele>
        <time>2016-05-08T08:18:11Z</time>
      </trkpt>
      <trkpt lat="44.54521" lon="4.21675">
        <ele>783.61</ele>
        <time>2016-05-08T08:18:12Z</time>
      </trkpt>
      <trkpt lat="44.54522" lon="4.21676">
        <ele>783.13</ele>
        <time>2016-05-08T08:18:13Z</time>
      </trkpt>
      <trkpt lat="44.54525" lon="4.21678">
        <ele>783.13</ele>
        <time>2016-05-08T08:18:14Z</time>
      </trkpt>
      <trkpt lat="44.54528" lon="4.21679">
        <ele>782.65</ele>
        <time>2016-05-08T08:18:15Z</time>
      </trkpt>
      <trkpt lat="44.54531" lon="4.21681">
        <ele>782.17</ele>
        <time>2016-05-08T08:18:16Z</time>
      </trkpt>
      <trkpt lat="44.54533" lon="4.21682">
        <ele>781.69</ele>
        <time>2016-05-08T08:18:17Z</time>
      </trkpt>
      <trkpt lat="44.54534" lon="4.21684">
        <ele>781.21</ele>
        <time>2016-05-08T08:18:18Z</time>
      </trkpt>
      <trkpt lat="44.54534" lon="4.21686">
        <ele>780.73</ele>
        <time>2016-05-08T08:18:19Z</time>
      </trkpt>
      <trkpt lat="44.54534" lon="4.21689">
        <ele>780.25</ele>
        <time>2016-05-08T08:18:20Z</time>
      </trkpt>
      <trkpt lat="44.54532" lon="4.21692">
        <ele>780.25</ele>
        <time>2016-05-08T08:18:21Z</time>
      </trkpt>
      <trkpt lat="44.5453" lon="4.21695">
        <ele>779.77</ele>
        <time>2016-05-08T08:18:22Z</time>
      </trkpt>
      <trkpt lat="44.54528" lon="4.21698">
        <ele>779.29</ele>
        <time>2016-05-08T08:18:23Z</time>
      </trkpt>
      <trkpt lat="44.54525" lon="4.21699">
        <ele>779.29</ele>
        <time>2016-05-08T08:18:24Z</time>
      </trkpt>
      <trkpt lat="44.54524" lon="4.21699">
        <ele>779.29</ele>
        <time>2016-05-08T08:18:25Z</time>
      </trkpt>
      <trkpt lat="44.54516" lon="4.21705">
        <ele>775.92</ele>
        <time>2016-05-08T08:18:33Z</time>
      </trkpt>
      <trkpt lat="44.54511" lon="4.21705">
        <ele>774.48</ele>
        <time>2016-05-08T08:18:44Z</time>
      </trkpt>
      <trkpt lat="44.54508" lon="4.21703">
        <ele>774.96</ele>
        <time>2016-05-08T08:18:49Z</time>
      </trkpt>
      <trkpt lat="44.54506" lon="4.21699">
        <ele>774.48</ele>
        <time>2016-05-08T08:18:50Z</time>
      </trkpt>
      <trkpt lat="44.54499" lon="4.2169">
        <ele>773.04</ele>
        <time>2016-05-08T08:18:53Z</time>
      </trkpt>
      <trkpt lat="44.54497" lon="4.21689">
        <ele>772.08</ele>
        <time>2016-05-08T08:18:54Z</time>
      </trkpt>
      <trkpt lat="44.54495" lon="4.21689">
        <ele>772.08</ele>
        <time>2016-05-08T08:18:55Z</time>
      </trkpt>
      <trkpt lat="44.54484" lon="4.21704">
        <ele>770.15</ele>
        <time>2016-05-08T08:19:02Z</time>
      </trkpt>
      <trkpt lat="44.54484" lon="4.21709">
        <ele>770.15</ele>
        <time>2016-05-08T08:19:03Z</time>
      </trkpt>
      <trkpt lat="44.54486" lon="4.21713">
        <ele>770.15</ele>
        <time>2016-05-08T08:19:04Z</time>
      </trkpt>
      <trkpt lat="44.54495" lon="4.21734">
        <ele>769.19</ele>
        <time>2016-05-08T08:19:09Z</time>
      </trkpt>
      <trkpt lat="44.54494" lon="4.21739">
        <ele>769.19</ele>
        <time>2016-05-08T08:19:10Z</time>
      </trkpt>
      <trkpt lat="44.54493" lon="4.21742">
        <ele>768.71</ele>
        <time>2016-05-08T08:19:11Z</time>
      </trkpt>
      <trkpt lat="44.5449" lon="4.21743">
        <ele>768.23</ele>
        <time>2016-05-08T08:19:12Z</time>
      </trkpt>
      <trkpt lat="44.54486" lon="4.21743">
        <ele>767.27</ele>
        <time>2016-05-08T08:19:13Z</time>
      </trkpt>
      <trkpt lat="44.54482" lon="4.21742">
        <ele>766.31</ele>
        <time>2016-05-08T08:19:14Z</time>
      </trkpt>
      <trkpt lat="44.54479" lon="4.2174">
        <ele>765.35</ele>
        <time>2016-05-08T08:19:15Z</time>
      </trkpt>
      <trkpt lat="44.54475" lon="4.21739">
        <ele>765.35</ele>
        <time>2016-05-08T08:19:16Z</time>
      </trkpt>
      <trkpt lat="44.54454" lon="4.21733">
        <ele>763.42</ele>
        <time>2016-05-08T08:19:20Z</time>
      </trkpt>
      <trkpt lat="44.54449" lon="4.21729">
        <ele>762.46</ele>
        <time>2016-05-08T08:19:21Z</time>
      </trkpt>
      <trkpt lat="44.54445" lon="4.21723">
        <ele>761.5</ele>
        <time>2016-05-08T08:19:22Z</time>
      </trkpt>
      <trkpt lat="44.54442" lon="4.21717">
        <ele>760.54</ele>
        <time>2016-05-08T08:19:23Z</time>
      </trkpt>
      <trkpt lat="44.5444" lon="4.21711">
        <ele>760.06</ele>
        <time>2016-05-08T08:19:24Z</time>
      </trkpt>
      <trkpt lat="44.54439" lon="4.21705">
        <ele>759.58</ele>
        <time>2016-05-08T08:19:25Z</time>
      </trkpt>
      <trkpt lat="44.54438" lon="4.21701">
        <ele>758.62</ele>
        <time>2016-05-08T08:19:26Z</time>
      </trkpt>
      <trkpt lat="44.54435" lon="4.21698">
        <ele>756.69</ele>
        <time>2016-05-08T08:19:27Z</time>
      </trkpt>
      <trkpt lat="44.54432" lon="4.21699">
        <ele>755.73</ele>
        <time>2016-05-08T08:19:28Z</time>
      </trkpt>
      <trkpt lat="44.54429" lon="4.21701">
        <ele>755.73</ele>
        <time>2016-05-08T08:19:29Z</time>
      </trkpt>
      <trkpt lat="44.54427" lon="4.21703">
        <ele>755.73</ele>
        <time>2016-05-08T08:19:30Z</time>
      </trkpt>
      <trkpt lat="44.54426" lon="4.21705">
        <ele>755.25</ele>
        <time>2016-05-08T08:19:31Z</time>
      </trkpt>
      <trkpt lat="44.54425" lon="4.21706">
        <ele>755.25</ele>
        <time>2016-05-08T08:19:32Z</time>
      </trkpt>
      <trkpt lat="44.54423" lon="4.21707">
        <ele>755.25</ele>
        <time>2016-05-08T08:19:33Z</time>
      </trkpt>
      <trkpt lat="44.54421" lon="4.21708">
        <ele>754.77</ele>
        <time>2016-05-08T08:19:34Z</time>
      </trkpt>
      <trkpt lat="44.54419" lon="4.21709">
        <ele>753.81</ele>
        <time>2016-05-08T08:19:35Z</time>
      </trkpt>
      <trkpt lat="44.54416" lon="4.21709">
        <ele>752.85</ele>
        <time>2016-05-08T08:19:36Z</time>
      </trkpt>
      <trkpt lat="44.54413" lon="4.21709">
        <ele>752.37</ele>
        <time>2016-05-08T08:19:37Z</time>
      </trkpt>
      <trkpt lat="44.5441" lon="4.21709">
        <ele>751.89</ele>
        <time>2016-05-08T08:19:38Z</time>
      </trkpt>
      <trkpt lat="44.54407" lon="4.21709">
        <ele>750.93</ele>
        <time>2016-05-08T08:19:40Z</time>
      </trkpt>
      <trkpt lat="44.54406" lon="4.21707">
        <ele>750.45</ele>
        <time>2016-05-08T08:19:41Z</time>
      </trkpt>
      <trkpt lat="44.54403" lon="4.21704">
        <ele>749.97</ele>
        <time>2016-05-08T08:19:42Z</time>
      </trkpt>
      <trkpt lat="44.54401" lon="4.21701">
        <ele>749.49</ele>
        <time>2016-05-08T08:19:43Z</time>
      </trkpt>
      <trkpt lat="44.544" lon="4.21697">
        <ele>749.49</ele>
        <time>2016-05-08T08:19:44Z</time>
      </trkpt>
      <trkpt lat="44.54399" lon="4.21693">
        <ele>748.52</ele>
        <time>2016-05-08T08:19:45Z</time>
      </trkpt>
      <trkpt lat="44.54397" lon="4.2169">
        <ele>748.52</ele>
        <time>2016-05-08T08:19:46Z</time>
      </trkpt>
      <trkpt lat="44.54394" lon="4.21686">
        <ele>748.04</ele>
        <time>2016-05-08T08:19:47Z</time>
      </trkpt>
      <trkpt lat="44.54392" lon="4.2168">
        <ele>748.04</ele>
        <time>2016-05-08T08:19:48Z</time>
      </trkpt>
      <trkpt lat="44.5439" lon="4.21674">
        <ele>748.04</ele>
        <time>2016-05-08T08:19:49Z</time>
      </trkpt>
      <trkpt lat="44.54389" lon="4.21669">
        <ele>748.04</ele>
        <time>2016-05-08T08:19:50Z</time>
      </trkpt>
      <trkpt lat="44.54388" lon="4.21664">
        <ele>748.04</ele>
        <time>2016-05-08T08:19:51Z</time>
      </trkpt>
      <trkpt lat="44.54388" lon="4.21642">
        <ele>746.6</ele>
        <time>2016-05-08T08:19:55Z</time>
      </trkpt>
      <trkpt lat="44.54387" lon="4.21636">
        <ele>745.64</ele>
        <time>2016-05-08T08:19:56Z</time>
      </trkpt>
      <trkpt lat="44.54384" lon="4.21632">
        <ele>745.64</ele>
        <time>2016-05-08T08:19:57Z</time>
      </trkpt>
      <trkpt lat="44.54379" lon="4.21629">
        <ele>745.64</ele>
        <time>2016-05-08T08:19:58Z</time>
      </trkpt>
      <trkpt lat="44.54376" lon="4.21628">
        <ele>746.12</ele>
        <time>2016-05-08T08:19:59Z</time>
      </trkpt>
      <trkpt lat="44.54374" lon="4.21627">
        <ele>746.12</ele>
        <time>2016-05-08T08:20:00Z</time>
      </trkpt>
      <trkpt lat="44.54369" lon="4.21626">
        <ele>747.08</ele>
        <time>2016-05-08T08:20:09Z</time>
      </trkpt>
      <trkpt lat="44.54369" lon="4.21626">
        <ele>746.6</ele>
        <time>2016-05-08T08:20:28Z</time>
      </trkpt>
      <trkpt lat="44.54366" lon="4.21627">
        <ele>746.6</ele>
        <time>2016-05-08T08:20:35Z</time>
      </trkpt>
      <trkpt lat="44.54364" lon="4.21627">
        <ele>747.08</ele>
        <time>2016-05-08T08:20:36Z</time>
      </trkpt>
      <trkpt lat="44.54362" lon="4.21627">
        <ele>746.6</ele>
        <time>2016-05-08T08:20:37Z</time>
      </trkpt>
      <trkpt lat="44.54361" lon="4.21625">
        <ele>746.6</ele>
        <time>2016-05-08T08:20:38Z</time>
      </trkpt>
      <trkpt lat="44.54359" lon="4.21624">
        <ele>746.6</ele>
        <time>2016-05-08T08:20:39Z</time>
      </trkpt>
      <trkpt lat="44.54357" lon="4.21624">
        <ele>746.6</ele>
        <time>2016-05-08T08:20:40Z</time>
      </trkpt>
      <trkpt lat="44.54353" lon="4.21623">
        <ele>746.6</ele>
        <time>2016-05-08T08:20:41Z</time>
      </trkpt>
      <trkpt lat="44.54349" lon="4.21622">
        <ele>746.12</ele>
        <time>2016-05-08T08:20:42Z</time>
      </trkpt>
      <trkpt lat="44.54345" lon="4.21619">
        <ele>745.64</ele>
        <time>2016-05-08T08:20:43Z</time>
      </trkpt>
      <trkpt lat="44.54341" lon="4.21616">
        <ele>744.68</ele>
        <time>2016-05-08T08:20:44Z</time>
      </trkpt>
      <trkpt lat="44.54337" lon="4.21612">
        <ele>744.2</ele>
        <time>2016-05-08T08:20:45Z</time>
      </trkpt>
      <trkpt lat="44.54332" lon="4.21609">
        <ele>743.72</ele>
        <time>2016-05-08T08:20:46Z</time>
      </trkpt>
      <trkpt lat="44.54327" lon="4.21606">
        <ele>743.24</ele>
        <time>2016-05-08T08:20:47Z</time>
      </trkpt>
      <trkpt lat="44.54323" lon="4.21602">
        <ele>742.28</ele>
        <time>2016-05-08T08:20:48Z</time>
      </trkpt>
      <trkpt lat="44.54318" lon="4.21599">
        <ele>741.79</ele>
        <time>2016-05-08T08:20:49Z</time>
      </trkpt>
      <trkpt lat="44.54313" lon="4.21596">
        <ele>740.83</ele>
        <time>2016-05-08T08:20:50Z</time>
      </trkpt>
      <trkpt lat="44.54308" lon="4.21595">
        <ele>740.83</ele>
        <time>2016-05-08T08:20:51Z</time>
      </trkpt>
      <trkpt lat="44.54303" lon="4.21595">
        <ele>740.35</ele>
        <time>2016-05-08T08:20:52Z</time>
      </trkpt>
      <trkpt lat="44.54298" lon="4.21594">
        <ele>739.87</ele>
        <time>2016-05-08T08:20:53Z</time>
      </trkpt>
      <trkpt lat="44.54294" lon="4.21593">
        <ele>738.91</ele>
        <time>2016-05-08T08:20:54Z</time>
      </trkpt>
      <trkpt lat="44.5429" lon="4.21592">
        <ele>738.43</ele>
        <time>2016-05-08T08:20:55Z</time>
      </trkpt>
      <trkpt lat="44.54285" lon="4.21592">
        <ele>737.95</ele>
        <time>2016-05-08T08:20:56Z</time>
      </trkpt>
      <trkpt lat="44.54281" lon="4.21592">
        <ele>736.99</ele>
        <time>2016-05-08T08:20:57Z</time>
      </trkpt>
      <trkpt lat="44.54277" lon="4.21593">
        <ele>736.03</ele>
        <time>2016-05-08T08:20:58Z</time>
      </trkpt>
      <trkpt lat="44.54274" lon="4.21593">
        <ele>735.07</ele>
        <time>2016-05-08T08:20:59Z</time>
      </trkpt>
      <trkpt lat="44.54271" lon="4.21591">
        <ele>734.58</ele>
        <time>2016-05-08T08:21:00Z</time>
      </trkpt>
      <trkpt lat="44.54268" lon="4.21589">
        <ele>733.62</ele>
        <time>2016-05-08T08:21:01Z</time>
      </trkpt>
      <trkpt lat="44.54265" lon="4.21587">
        <ele>732.66</ele>
        <time>2016-05-08T08:21:02Z</time>
      </trkpt>
      <trkpt lat="44.54259" lon="4.21584">
        <ele>729.78</ele>
        <time>2016-05-08T08:21:04Z</time>
      </trkpt>
      <trkpt lat="44.54256" lon="4.21584">
        <ele>728.82</ele>
        <time>2016-05-08T08:21:05Z</time>
      </trkpt>
      <trkpt lat="44.54253" lon="4.21585">
        <ele>728.34</ele>
        <time>2016-05-08T08:21:06Z</time>
      </trkpt>
      <trkpt lat="44.5425" lon="4.21585">
        <ele>727.37</ele>
        <time>2016-05-08T08:21:07Z</time>
      </trkpt>
      <trkpt lat="44.54247" lon="4.21584">
        <ele>726.41</ele>
        <time>2016-05-08T08:21:08Z</time>
      </trkpt>
      <trkpt lat="44.54237" lon="4.21587">
        <ele>723.53</ele>
        <time>2016-05-08T08:21:11Z</time>
      </trkpt>
      <trkpt lat="44.54223" lon="4.21578">
        <ele>718.72</ele>
        <time>2016-05-08T08:21:17Z</time>
      </trkpt>
      <trkpt lat="44.5422" lon="4.21575">
        <ele>717.76</ele>
        <time>2016-05-08T08:21:18Z</time>
      </trkpt>
      <trkpt lat="44.54216" lon="4.21573">
        <ele>716.32</ele>
        <time>2016-05-08T08:21:19Z</time>
      </trkpt>
      <trkpt lat="44.54207" lon="4.2157">
        <ele>714.4</ele>
        <time>2016-05-08T08:21:21Z</time>
      </trkpt>
      <trkpt lat="44.54197" lon="4.21566">
        <ele>711.99</ele>
        <time>2016-05-08T08:21:23Z</time>
      </trkpt>
      <trkpt lat="44.54192" lon="4.21564">
        <ele>710.55</ele>
        <time>2016-05-08T08:21:24Z</time>
      </trkpt>
      <trkpt lat="44.54187" lon="4.21561">
        <ele>709.59</ele>
        <time>2016-05-08T08:21:25Z</time>
      </trkpt>
      <trkpt lat="44.54183" lon="4.21558">
        <ele>708.63</ele>
        <time>2016-05-08T08:21:26Z</time>
      </trkpt>
      <trkpt lat="44.54178" lon="4.21555">
        <ele>707.19</ele>
        <time>2016-05-08T08:21:27Z</time>
      </trkpt>
      <trkpt lat="44.54175" lon="4.21552">
        <ele>706.23</ele>
        <time>2016-05-08T08:21:28Z</time>
      </trkpt>
      <trkpt lat="44.54171" lon="4.2155">
        <ele>704.78</ele>
        <time>2016-05-08T08:21:29Z</time>
      </trkpt>
      <trkpt lat="44.54166" lon="4.21549">
        <ele>703.82</ele>
        <time>2016-05-08T08:21:30Z</time>
      </trkpt>
      <trkpt lat="44.54162" lon="4.2155">
        <ele>703.34</ele>
        <time>2016-05-08T08:21:31Z</time>
      </trkpt>
      <trkpt lat="44.54157" lon="4.2155">
        <ele>702.86</ele>
        <time>2016-05-08T08:21:32Z</time>
      </trkpt>
      <trkpt lat="44.54152" lon="4.21552">
        <ele>702.86</ele>
        <time>2016-05-08T08:21:33Z</time>
      </trkpt>
      <trkpt lat="44.54147" lon="4.21553">
        <ele>702.38</ele>
        <time>2016-05-08T08:21:34Z</time>
      </trkpt>
      <trkpt lat="44.54141" lon="4.21553">
        <ele>701.42</ele>
        <time>2016-05-08T08:21:35Z</time>
      </trkpt>
      <trkpt lat="44.54136" lon="4.21552">
        <ele>700.94</ele>
        <time>2016-05-08T08:21:36Z</time>
      </trkpt>
      <trkpt lat="44.54132" lon="4.21553">
        <ele>699.98</ele>
        <time>2016-05-08T08:21:37Z</time>
      </trkpt>
      <trkpt lat="44.54127" lon="4.21553">
        <ele>699.02</ele>
        <time>2016-05-08T08:21:38Z</time>
      </trkpt>
      <trkpt lat="44.54122" lon="4.21552">
        <ele>698.05</ele>
        <time>2016-05-08T08:21:39Z</time>
      </trkpt>
      <trkpt lat="44.54117" lon="4.21553">
        <ele>697.57</ele>
        <time>2016-05-08T08:21:40Z</time>
      </trkpt>
      <trkpt lat="44.54111" lon="4.21553">
        <ele>696.13</ele>
        <time>2016-05-08T08:21:41Z</time>
      </trkpt>
      <trkpt lat="44.54106" lon="4.21554">
        <ele>695.17</ele>
        <time>2016-05-08T08:21:42Z</time>
      </trkpt>
      <trkpt lat="44.54101" lon="4.21555">
        <ele>694.69</ele>
        <time>2016-05-08T08:21:43Z</time>
      </trkpt>
      <trkpt lat="44.54096" lon="4.21555">
        <ele>693.73</ele>
        <time>2016-05-08T08:21:44Z</time>
      </trkpt>
      <trkpt lat="44.54091" lon="4.21555">
        <ele>693.25</ele>
        <time>2016-05-08T08:21:45Z</time>
      </trkpt>
      <trkpt lat="44.54086" lon="4.21553">
        <ele>692.29</ele>
        <time>2016-05-08T08:21:46Z</time>
      </trkpt>
      <trkpt lat="44.5408" lon="4.2155">
        <ele>691.33</ele>
        <time>2016-05-08T08:21:47Z</time>
      </trkpt>
      <trkpt lat="44.54075" lon="4.21546">
        <ele>690.36</ele>
        <time>2016-05-08T08:21:48Z</time>
      </trkpt>
      <trkpt lat="44.54067" lon="4.21534">
        <ele>688.92</ele>
        <time>2016-05-08T08:21:50Z</time>
      </trkpt>
      <trkpt lat="44.54063" lon="4.2153">
        <ele>687.96</ele>
        <time>2016-05-08T08:21:51Z</time>
      </trkpt>
      <trkpt lat="44.54049" lon="4.21521">
        <ele>684.6</ele>
        <time>2016-05-08T08:21:54Z</time>
      </trkpt>
      <trkpt lat="44.54044" lon="4.21518">
        <ele>683.63</ele>
        <time>2016-05-08T08:21:55Z</time>
      </trkpt>
      <trkpt lat="44.54035" lon="4.21514">
        <ele>682.19</ele>
        <time>2016-05-08T08:21:57Z</time>
      </trkpt>
      <trkpt lat="44.5403" lon="4.21509">
        <ele>681.71</ele>
        <time>2016-05-08T08:21:58Z</time>
      </trkpt>
      <trkpt lat="44.54025" lon="4.21504">
        <ele>680.75</ele>
        <time>2016-05-08T08:21:59Z</time>
      </trkpt>
      <trkpt lat="44.54009" lon="4.21489">
        <ele>679.31</ele>
        <time>2016-05-08T08:22:02Z</time>
      </trkpt>
      <trkpt lat="44.53991" lon="4.21473">
        <ele>676.91</ele>
        <time>2016-05-08T08:22:05Z</time>
      </trkpt>
      <trkpt lat="44.53985" lon="4.21469">
        <ele>675.94</ele>
        <time>2016-05-08T08:22:06Z</time>
      </trkpt>
      <trkpt lat="44.53978" lon="4.21468">
        <ele>675.46</ele>
        <time>2016-05-08T08:22:07Z</time>
      </trkpt>
      <trkpt lat="44.53972" lon="4.21467">
        <ele>674.98</ele>
        <time>2016-05-08T08:22:08Z</time>
      </trkpt>
      <trkpt lat="44.53965" lon="4.21468">
        <ele>674.02</ele>
        <time>2016-05-08T08:22:09Z</time>
      </trkpt>
      <trkpt lat="44.53933" lon="4.21473">
        <ele>672.1</ele>
        <time>2016-05-08T08:22:13Z</time>
      </trkpt>
      <trkpt lat="44.53925" lon="4.21472">
        <ele>671.62</ele>
        <time>2016-05-08T08:22:14Z</time>
      </trkpt>
      <trkpt lat="44.53916" lon="4.2147">
        <ele>670.66</ele>
        <time>2016-05-08T08:22:15Z</time>
      </trkpt>
      <trkpt lat="44.53908" lon="4.21467">
        <ele>670.18</ele>
        <time>2016-05-08T08:22:16Z</time>
      </trkpt>
      <trkpt lat="44.539" lon="4.21463">
        <ele>669.7</ele>
        <time>2016-05-08T08:22:17Z</time>
      </trkpt>
      <trkpt lat="44.53857" lon="4.21447">
        <ele>666.81</ele>
        <time>2016-05-08T08:22:22Z</time>
      </trkpt>
      <trkpt lat="44.53849" lon="4.21445">
        <ele>666.81</ele>
        <time>2016-05-08T08:22:23Z</time>
      </trkpt>
      <trkpt lat="44.53842" lon="4.21442">
        <ele>666.33</ele>
        <time>2016-05-08T08:22:24Z</time>
      </trkpt>
      <trkpt lat="44.53836" lon="4.21438">
        <ele>666.33</ele>
        <time>2016-05-08T08:22:25Z</time>
      </trkpt>
      <trkpt lat="44.53831" lon="4.21433">
        <ele>666.81</ele>
        <time>2016-05-08T08:22:26Z</time>
      </trkpt>
      <trkpt lat="44.53828" lon="4.21429">
        <ele>666.81</ele>
        <time>2016-05-08T08:22:27Z</time>
      </trkpt>
      <trkpt lat="44.53825" lon="4.21424">
        <ele>666.81</ele>
        <time>2016-05-08T08:22:28Z</time>
      </trkpt>
      <trkpt lat="44.53822" lon="4.21419">
        <ele>666.33</ele>
        <time>2016-05-08T08:22:29Z</time>
      </trkpt>
      <trkpt lat="44.5382" lon="4.21415">
        <ele>665.85</ele>
        <time>2016-05-08T08:22:30Z</time>
      </trkpt>
      <trkpt lat="44.5382" lon="4.21414">
        <ele>665.37</ele>
        <time>2016-05-08T08:22:40Z</time>
      </trkpt>
      <trkpt lat="44.53819" lon="4.21415">
        <ele>664.89</ele>
        <time>2016-05-08T08:22:53Z</time>
      </trkpt>
      <trkpt lat="44.53818" lon="4.21414">
        <ele>664.89</ele>
        <time>2016-05-08T08:23:03Z</time>
      </trkpt>
      <trkpt lat="44.53817" lon="4.21409">
        <ele>665.37</ele>
        <time>2016-05-08T08:23:05Z</time>
      </trkpt>
      <trkpt lat="44.53815" lon="4.21406">
        <ele>665.37</ele>
        <time>2016-05-08T08:23:06Z</time>
      </trkpt>
      <trkpt lat="44.53813" lon="4.21401">
        <ele>665.37</ele>
        <time>2016-05-08T08:23:07Z</time>
      </trkpt>
      <trkpt lat="44.5381" lon="4.21396">
        <ele>664.41</ele>
        <time>2016-05-08T08:23:08Z</time>
      </trkpt>
      <trkpt lat="44.53806" lon="4.21389">
        <ele>663.45</ele>
        <time>2016-05-08T08:23:09Z</time>
      </trkpt>
      <trkpt lat="44.53802" lon="4.21382">
        <ele>662.97</ele>
        <time>2016-05-08T08:23:10Z</time>
      </trkpt>
      <trkpt lat="44.53796" lon="4.21374">
        <ele>662.49</ele>
        <time>2016-05-08T08:23:11Z</time>
      </trkpt>
      <trkpt lat="44.5379" lon="4.21367">
        <ele>662.01</ele>
        <time>2016-05-08T08:23:12Z</time>
      </trkpt>
      <trkpt lat="44.53776" lon="4.21351">
        <ele>659.12</ele>
        <time>2016-05-08T08:23:14Z</time>
      </trkpt>
      <trkpt lat="44.5374" lon="4.21312">
        <ele>655.76</ele>
        <time>2016-05-08T08:23:19Z</time>
      </trkpt>
      <trkpt lat="44.53734" lon="4.21302">
        <ele>654.31</ele>
        <time>2016-05-08T08:23:20Z</time>
      </trkpt>
      <trkpt lat="44.53729" lon="4.21291">
        <ele>653.35</ele>
        <time>2016-05-08T08:23:21Z</time>
      </trkpt>
      <trkpt lat="44.53709" lon="4.21237">
        <ele>650.95</ele>
        <time>2016-05-08T08:23:26Z</time>
      </trkpt>
      <trkpt lat="44.53704" lon="4.21229">
        <ele>650.47</ele>
        <time>2016-05-08T08:23:27Z</time>
      </trkpt>
      <trkpt lat="44.53694" lon="4.21211">
        <ele>649.03</ele>
        <time>2016-05-08T08:23:29Z</time>
      </trkpt>
      <trkpt lat="44.53691" lon="4.21201">
        <ele>646.62</ele>
        <time>2016-05-08T08:23:30Z</time>
      </trkpt>
      <trkpt lat="44.53688" lon="4.21192">
        <ele>645.66</ele>
        <time>2016-05-08T08:23:31Z</time>
      </trkpt>
      <trkpt lat="44.53684" lon="4.21178">
        <ele>642.78</ele>
        <time>2016-05-08T08:23:33Z</time>
      </trkpt>
      <trkpt lat="44.53682" lon="4.21176">
        <ele>642.3</ele>
        <time>2016-05-08T08:23:34Z</time>
      </trkpt>
      <trkpt lat="44.53679" lon="4.21175">
        <ele>641.82</ele>
        <time>2016-05-08T08:23:35Z</time>
      </trkpt>
      <trkpt lat="44.53676" lon="4.21175">
        <ele>641.34</ele>
        <time>2016-05-08T08:23:36Z</time>
      </trkpt>
      <trkpt lat="44.53672" lon="4.21176">
        <ele>641.34</ele>
        <time>2016-05-08T08:23:37Z</time>
      </trkpt>
      <trkpt lat="44.53667" lon="4.21178">
        <ele>640.86</ele>
        <time>2016-05-08T08:23:38Z</time>
      </trkpt>
      <trkpt lat="44.53664" lon="4.21182">
        <ele>639.89</ele>
        <time>2016-05-08T08:23:39Z</time>
      </trkpt>
      <trkpt lat="44.5366" lon="4.21187">
        <ele>638.45</ele>
        <time>2016-05-08T08:23:40Z</time>
      </trkpt>
      <trkpt lat="44.53658" lon="4.21193">
        <ele>637.97</ele>
        <time>2016-05-08T08:23:41Z</time>
      </trkpt>
      <trkpt lat="44.53654" lon="4.212">
        <ele>637.01</ele>
        <time>2016-05-08T08:23:42Z</time>
      </trkpt>
      <trkpt lat="44.53641" lon="4.21221">
        <ele>633.65</ele>
        <time>2016-05-08T08:23:45Z</time>
      </trkpt>
      <trkpt lat="44.53628" lon="4.21246">
        <ele>629.8</ele>
        <time>2016-05-08T08:23:48Z</time>
      </trkpt>
      <trkpt lat="44.5362" lon="4.21261">
        <ele>627.4</ele>
        <time>2016-05-08T08:23:50Z</time>
      </trkpt>
      <trkpt lat="44.53618" lon="4.21268">
        <ele>626.44</ele>
        <time>2016-05-08T08:23:51Z</time>
      </trkpt>
      <trkpt lat="44.53611" lon="4.21282">
        <ele>624.03</ele>
        <time>2016-05-08T08:23:53Z</time>
      </trkpt>
      <trkpt lat="44.53607" lon="4.21288">
        <ele>623.07</ele>
        <time>2016-05-08T08:23:54Z</time>
      </trkpt>
      <trkpt lat="44.53602" lon="4.21295">
        <ele>622.59</ele>
        <time>2016-05-08T08:23:55Z</time>
      </trkpt>
      <trkpt lat="44.5359" lon="4.21315">
        <ele>618.26</ele>
        <time>2016-05-08T08:23:58Z</time>
      </trkpt>
      <trkpt lat="44.53588" lon="4.21324">
        <ele>616.82</ele>
        <time>2016-05-08T08:23:59Z</time>
      </trkpt>
      <trkpt lat="44.53581" lon="4.2135">
        <ele>614.42</ele>
        <time>2016-05-08T08:24:02Z</time>
      </trkpt>
      <trkpt lat="44.53581" lon="4.2136">
        <ele>613.46</ele>
        <time>2016-05-08T08:24:03Z</time>
      </trkpt>
      <trkpt lat="44.53582" lon="4.21379">
        <ele>611.54</ele>
        <time>2016-05-08T08:24:05Z</time>
      </trkpt>
      <trkpt lat="44.53583" lon="4.21389">
        <ele>610.57</ele>
        <time>2016-05-08T08:24:06Z</time>
      </trkpt>
      <trkpt lat="44.53586" lon="4.214">
        <ele>610.09</ele>
        <time>2016-05-08T08:24:07Z</time>
      </trkpt>
      <trkpt lat="44.5359" lon="4.2141">
        <ele>608.65</ele>
        <time>2016-05-08T08:24:08Z</time>
      </trkpt>
      <trkpt lat="44.53594" lon="4.2142">
        <ele>607.69</ele>
        <time>2016-05-08T08:24:09Z</time>
      </trkpt>
      <trkpt lat="44.53599" lon="4.2143">
        <ele>607.69</ele>
        <time>2016-05-08T08:24:10Z</time>
      </trkpt>
      <trkpt lat="44.53614" lon="4.21457">
        <ele>605.29</ele>
        <time>2016-05-08T08:24:13Z</time>
      </trkpt>
      <trkpt lat="44.5362" lon="4.21463">
        <ele>603.85</ele>
        <time>2016-05-08T08:24:14Z</time>
      </trkpt>
      <trkpt lat="44.53632" lon="4.21478">
        <ele>602.88</ele>
        <time>2016-05-08T08:24:16Z</time>
      </trkpt>
      <trkpt lat="44.53643" lon="4.21491">
        <ele>601.92</ele>
        <time>2016-05-08T08:24:18Z</time>
      </trkpt>
      <trkpt lat="44.53648" lon="4.21499">
        <ele>600.96</ele>
        <time>2016-05-08T08:24:19Z</time>
      </trkpt>
      <trkpt lat="44.53652" lon="4.21507">
        <ele>600.96</ele>
        <time>2016-05-08T08:24:20Z</time>
      </trkpt>
      <trkpt lat="44.53655" lon="4.21515">
        <ele>600.96</ele>
        <time>2016-05-08T08:24:21Z</time>
      </trkpt>
      <trkpt lat="44.53657" lon="4.21524">
        <ele>600.96</ele>
        <time>2016-05-08T08:24:22Z</time>
      </trkpt>
      <trkpt lat="44.53663" lon="4.21542">
        <ele>599.04</ele>
        <time>2016-05-08T08:24:24Z</time>
      </trkpt>
      <trkpt lat="44.53669" lon="4.21555">
        <ele>598.08</ele>
        <time>2016-05-08T08:24:26Z</time>
      </trkpt>
      <trkpt lat="44.53673" lon="4.21562">
        <ele>597.6</ele>
        <time>2016-05-08T08:24:27Z</time>
      </trkpt>
      <trkpt lat="44.53676" lon="4.21567">
        <ele>597.12</ele>
        <time>2016-05-08T08:24:28Z</time>
      </trkpt>
      <trkpt lat="44.53684" lon="4.21587">
        <ele>596.15</ele>
        <time>2016-05-08T08:24:31Z</time>
      </trkpt>
      <trkpt lat="44.53709" lon="4.21633">
        <ele>593.27</ele>
        <time>2016-05-08T08:24:36Z</time>
      </trkpt>
      <trkpt lat="44.53729" lon="4.21667">
        <ele>590.39</ele>
        <time>2016-05-08T08:24:40Z</time>
      </trkpt>
      <trkpt lat="44.53734" lon="4.21672">
        <ele>589.91</ele>
        <time>2016-05-08T08:24:41Z</time>
      </trkpt>
      <trkpt lat="44.5374" lon="4.21675">
        <ele>589.43</ele>
        <time>2016-05-08T08:24:42Z</time>
      </trkpt>
      <trkpt lat="44.53745" lon="4.21679">
        <ele>588.95</ele>
        <time>2016-05-08T08:24:43Z</time>
      </trkpt>
      <trkpt lat="44.53749" lon="4.21684">
        <ele>588.46</ele>
        <time>2016-05-08T08:24:44Z</time>
      </trkpt>
      <trkpt lat="44.53751" lon="4.21691">
        <ele>588.95</ele>
        <time>2016-05-08T08:24:45Z</time>
      </trkpt>
      <trkpt lat="44.53751" lon="4.21696">
        <ele>588.95</ele>
        <time>2016-05-08T08:24:46Z</time>
      </trkpt>
      <trkpt lat="44.53749" lon="4.21701">
        <ele>588.95</ele>
        <time>2016-05-08T08:24:47Z</time>
      </trkpt>
      <trkpt lat="44.53746" lon="4.21706">
        <ele>588.95</ele>
        <time>2016-05-08T08:24:48Z</time>
      </trkpt>
      <trkpt lat="44.53743" lon="4.21712">
        <ele>588.46</ele>
        <time>2016-05-08T08:24:49Z</time>
      </trkpt>
      <trkpt lat="44.53735" lon="4.21723">
        <ele>587.5</ele>
        <time>2016-05-08T08:24:51Z</time>
      </trkpt>
      <trkpt lat="44.5373" lon="4.21727">
        <ele>587.02</ele>
        <time>2016-05-08T08:24:52Z</time>
      </trkpt>
      <trkpt lat="44.53704" lon="4.21746">
        <ele>583.18</ele>
        <time>2016-05-08T08:24:56Z</time>
      </trkpt>
      <trkpt lat="44.53682" lon="4.21764">
        <ele>579.81</ele>
        <time>2016-05-08T08:24:59Z</time>
      </trkpt>
      <trkpt lat="44.53675" lon="4.21768">
        <ele>578.85</ele>
        <time>2016-05-08T08:25:00Z</time>
      </trkpt>
      <trkpt lat="44.53662" lon="4.21771">
        <ele>577.41</ele>
        <time>2016-05-08T08:25:02Z</time>
      </trkpt>
      <trkpt lat="44.53656" lon="4.21771">
        <ele>576.45</ele>
        <time>2016-05-08T08:25:03Z</time>
      </trkpt>
      <trkpt lat="44.53651" lon="4.2177">
        <ele>575.49</ele>
        <time>2016-05-08T08:25:04Z</time>
      </trkpt>
      <trkpt lat="44.53646" lon="4.2177">
        <ele>574.53</ele>
        <time>2016-05-08T08:25:05Z</time>
      </trkpt>
      <trkpt lat="44.5364" lon="4.21771">
        <ele>574.04</ele>
        <time>2016-05-08T08:25:06Z</time>
      </trkpt>
      <trkpt lat="44.53637" lon="4.21775">
        <ele>573.56</ele>
        <time>2016-05-08T08:25:07Z</time>
      </trkpt>
      <trkpt lat="44.53636" lon="4.21778">
        <ele>573.08</ele>
        <time>2016-05-08T08:25:08Z</time>
      </trkpt>
      <trkpt lat="44.53634" lon="4.21784">
        <ele>571.64</ele>
        <time>2016-05-08T08:25:21Z</time>
      </trkpt>
      <trkpt lat="44.53633" lon="4.21785">
        <ele>571.64</ele>
        <time>2016-05-08T08:25:25Z</time>
      </trkpt>
      <trkpt lat="44.53629" lon="4.218">
        <ele>571.16</ele>
        <time>2016-05-08T08:25:29Z</time>
      </trkpt>
      <trkpt lat="44.53627" lon="4.21807">
        <ele>571.16</ele>
        <time>2016-05-08T08:25:30Z</time>
      </trkpt>
      <trkpt lat="44.53618" lon="4.21842">
        <ele>568.28</ele>
        <time>2016-05-08T08:25:34Z</time>
      </trkpt>
      <trkpt lat="44.53613" lon="4.21852">
        <ele>567.8</ele>
        <time>2016-05-08T08:25:35Z</time>
      </trkpt>
      <trkpt lat="44.53607" lon="4.21861">
        <ele>567.32</ele>
        <time>2016-05-08T08:25:36Z</time>
      </trkpt>
      <trkpt lat="44.53601" lon="4.21872">
        <ele>566.35</ele>
        <time>2016-05-08T08:25:37Z</time>
      </trkpt>
      <trkpt lat="44.53597" lon="4.21883">
        <ele>564.43</ele>
        <time>2016-05-08T08:25:38Z</time>
      </trkpt>
      <trkpt lat="44.53594" lon="4.21897">
        <ele>563.95</ele>
        <time>2016-05-08T08:25:39Z</time>
      </trkpt>
      <trkpt lat="44.53594" lon="4.2191">
        <ele>563.47</ele>
        <time>2016-05-08T08:25:40Z</time>
      </trkpt>
      <trkpt lat="44.53594" lon="4.21924">
        <ele>562.99</ele>
        <time>2016-05-08T08:25:41Z</time>
      </trkpt>
      <trkpt lat="44.53594" lon="4.21937">
        <ele>562.03</ele>
        <time>2016-05-08T08:25:42Z</time>
      </trkpt>
      <trkpt lat="44.53594" lon="4.2195">
        <ele>561.07</ele>
        <time>2016-05-08T08:25:43Z</time>
      </trkpt>
      <trkpt lat="44.53592" lon="4.21964">
        <ele>560.59</ele>
        <time>2016-05-08T08:25:44Z</time>
      </trkpt>
      <trkpt lat="44.53588" lon="4.21976">
        <ele>560.59</ele>
        <time>2016-05-08T08:25:45Z</time>
      </trkpt>
      <trkpt lat="44.53585" lon="4.21989">
        <ele>560.59</ele>
        <time>2016-05-08T08:25:46Z</time>
      </trkpt>
      <trkpt lat="44.53572" lon="4.22053">
        <ele>556.74</ele>
        <time>2016-05-08T08:25:51Z</time>
      </trkpt>
      <trkpt lat="44.53569" lon="4.22065">
        <ele>555.78</ele>
        <time>2016-05-08T08:25:52Z</time>
      </trkpt>
      <trkpt lat="44.53564" lon="4.22075">
        <ele>554.82</ele>
        <time>2016-05-08T08:25:53Z</time>
      </trkpt>
      <trkpt lat="44.5356" lon="4.22082">
        <ele>553.38</ele>
        <time>2016-05-08T08:25:54Z</time>
      </trkpt>
      <trkpt lat="44.53554" lon="4.22087">
        <ele>552.41</ele>
        <time>2016-05-08T08:25:55Z</time>
      </trkpt>
      <trkpt lat="44.53548" lon="4.22091">
        <ele>552.41</ele>
        <time>2016-05-08T08:25:56Z</time>
      </trkpt>
      <trkpt lat="44.53542" lon="4.22094">
        <ele>552.41</ele>
        <time>2016-05-08T08:25:57Z</time>
      </trkpt>
      <trkpt lat="44.53486" lon="4.22116">
        <ele>550.49</ele>
        <time>2016-05-08T08:26:05Z</time>
      </trkpt>
      <trkpt lat="44.5348" lon="4.22118">
        <ele>550.01</ele>
        <time>2016-05-08T08:26:06Z</time>
      </trkpt>
      <trkpt lat="44.53474" lon="4.22118">
        <ele>549.53</ele>
        <time>2016-05-08T08:26:07Z</time>
      </trkpt>
      <trkpt lat="44.53468" lon="4.22118">
        <ele>549.05</ele>
        <time>2016-05-08T08:26:08Z</time>
      </trkpt>
      <trkpt lat="44.53443" lon="4.22117">
        <ele>548.09</ele>
        <time>2016-05-08T08:26:12Z</time>
      </trkpt>
      <trkpt lat="44.53436" lon="4.22117">
        <ele>547.61</ele>
        <time>2016-05-08T08:26:13Z</time>
      </trkpt>
      <trkpt lat="44.53413" lon="4.2212">
        <ele>546.65</ele>
        <time>2016-05-08T08:26:17Z</time>
      </trkpt>
      <trkpt lat="44.53409" lon="4.22118">
        <ele>546.65</ele>
        <time>2016-05-08T08:26:18Z</time>
      </trkpt>
      <trkpt lat="44.53405" lon="4.22116">
        <ele>546.65</ele>
        <time>2016-05-08T08:26:19Z</time>
      </trkpt>
      <trkpt lat="44.53401" lon="4.22113">
        <ele>546.17</ele>
        <time>2016-05-08T08:26:20Z</time>
      </trkpt>
      <trkpt lat="44.53397" lon="4.22111">
        <ele>545.69</ele>
        <time>2016-05-08T08:26:21Z</time>
      </trkpt>
      <trkpt lat="44.53376" lon="4.22099">
        <ele>544.72</ele>
        <time>2016-05-08T08:26:27Z</time>
      </trkpt>
      <trkpt lat="44.53372" lon="4.22098">
        <ele>544.72</ele>
        <time>2016-05-08T08:26:28Z</time>
      </trkpt>
      <trkpt lat="44.53332" lon="4.22076">
        <ele>543.76</ele>
        <time>2016-05-08T08:26:40Z</time>
      </trkpt>
      <trkpt lat="44.53327" lon="4.22075">
        <ele>543.28</ele>
        <time>2016-05-08T08:26:41Z</time>
      </trkpt>
      <trkpt lat="44.53318" lon="4.22075">
        <ele>542.8</ele>
        <time>2016-05-08T08:26:43Z</time>
      </trkpt>
      <trkpt lat="44.53314" lon="4.22074">
        <ele>542.8</ele>
        <time>2016-05-08T08:26:44Z</time>
      </trkpt>
      <trkpt lat="44.5331" lon="4.22071">
        <ele>542.8</ele>
        <time>2016-05-08T08:26:45Z</time>
      </trkpt>
      <trkpt lat="44.53305" lon="4.22069">
        <ele>542.8</ele>
        <time>2016-05-08T08:26:46Z</time>
      </trkpt>
      <trkpt lat="44.533" lon="4.22068">
        <ele>543.28</ele>
        <time>2016-05-08T08:26:47Z</time>
      </trkpt>
      <trkpt lat="44.53296" lon="4.22067">
        <ele>542.8</ele>
        <time>2016-05-08T08:26:48Z</time>
      </trkpt>
      <trkpt lat="44.53291" lon="4.22065">
        <ele>542.32</ele>
        <time>2016-05-08T08:26:49Z</time>
      </trkpt>
      <trkpt lat="44.53287" lon="4.22063">
        <ele>541.84</ele>
        <time>2016-05-08T08:26:50Z</time>
      </trkpt>
      <trkpt lat="44.53282" lon="4.22061">
        <ele>541.84</ele>
        <time>2016-05-08T08:26:51Z</time>
      </trkpt>
      <trkpt lat="44.53264" lon="4.22054">
        <ele>541.84</ele>
        <time>2016-05-08T08:26:54Z</time>
      </trkpt>
      <trkpt lat="44.53258" lon="4.2205">
        <ele>542.32</ele>
        <time>2016-05-08T08:26:55Z</time>
      </trkpt>
      <trkpt lat="44.53252" lon="4.22045">
        <ele>542.32</ele>
        <time>2016-05-08T08:26:56Z</time>
      </trkpt>
      <trkpt lat="44.53237" lon="4.22032">
        <ele>541.84</ele>
        <time>2016-05-08T08:26:59Z</time>
      </trkpt>
      <trkpt lat="44.53215" lon="4.22015">
        <ele>541.84</ele>
        <time>2016-05-08T08:27:04Z</time>
      </trkpt>
      <trkpt lat="44.5321" lon="4.22013">
        <ele>541.84</ele>
        <time>2016-05-08T08:27:05Z</time>
      </trkpt>
      <trkpt lat="44.53165" lon="4.21986">
        <ele>544.24</ele>
        <time>2016-05-08T08:27:15Z</time>
      </trkpt>
      <trkpt lat="44.53142" lon="4.2195">
        <ele>544.72</ele>
        <time>2016-05-08T08:27:24Z</time>
      </trkpt>
      <trkpt lat="44.53141" lon="4.21945">
        <ele>544.72</ele>
        <time>2016-05-08T08:27:25Z</time>
      </trkpt>
      <trkpt lat="44.53141" lon="4.21941">
        <ele>544.72</ele>
        <time>2016-05-08T08:27:26Z</time>
      </trkpt>
      <trkpt lat="44.53142" lon="4.21929">
        <ele>544.72</ele>
        <time>2016-05-08T08:27:29Z</time>
      </trkpt>
      <trkpt lat="44.53138" lon="4.21913">
        <ele>544.72</ele>
        <time>2016-05-08T08:27:35Z</time>
      </trkpt>
      <trkpt lat="44.53134" lon="4.21909">
        <ele>544.72</ele>
        <time>2016-05-08T08:27:37Z</time>
      </trkpt>
      <trkpt lat="44.5311" lon="4.21884">
        <ele>545.2</ele>
        <time>2016-05-08T08:27:47Z</time>
      </trkpt>
      <trkpt lat="44.53108" lon="4.21882">
        <ele>544.72</ele>
        <time>2016-05-08T08:27:48Z</time>
      </trkpt>
      <trkpt lat="44.53105" lon="4.21882">
        <ele>544.72</ele>
        <time>2016-05-08T08:27:49Z</time>
      </trkpt>
      <trkpt lat="44.53102" lon="4.2188">
        <ele>545.2</ele>
        <time>2016-05-08T08:27:50Z</time>
      </trkpt>
      <trkpt lat="44.531" lon="4.21877">
        <ele>544.72</ele>
        <time>2016-05-08T08:27:51Z</time>
      </trkpt>
      <trkpt lat="44.53098" lon="4.21874">
        <ele>545.2</ele>
        <time>2016-05-08T08:27:52Z</time>
      </trkpt>
      <trkpt lat="44.53086" lon="4.21855">
        <ele>544.72</ele>
        <time>2016-05-08T08:27:57Z</time>
      </trkpt>
      <trkpt lat="44.53084" lon="4.21851">
        <ele>544.72</ele>
        <time>2016-05-08T08:27:58Z</time>
      </trkpt>
      <trkpt lat="44.53082" lon="4.21847">
        <ele>544.72</ele>
        <time>2016-05-08T08:27:59Z</time>
      </trkpt>
      <trkpt lat="44.5308" lon="4.21843">
        <ele>544.72</ele>
        <time>2016-05-08T08:28:00Z</time>
      </trkpt>
      <trkpt lat="44.53077" lon="4.2184">
        <ele>544.72</ele>
        <time>2016-05-08T08:28:01Z</time>
      </trkpt>
      <trkpt lat="44.53075" lon="4.21836">
        <ele>544.72</ele>
        <time>2016-05-08T08:28:02Z</time>
      </trkpt>
      <trkpt lat="44.53072" lon="4.21832">
        <ele>544.24</ele>
        <time>2016-05-08T08:28:03Z</time>
      </trkpt>
      <trkpt lat="44.53042" lon="4.21784">
        <ele>544.24</ele>
        <time>2016-05-08T08:28:15Z</time>
      </trkpt>
      <trkpt lat="44.53013" lon="4.2176">
        <ele>545.2</ele>
        <time>2016-05-08T08:28:25Z</time>
      </trkpt>
      <trkpt lat="44.53006" lon="4.21756">
        <ele>545.2</ele>
        <time>2016-05-08T08:28:27Z</time>
      </trkpt>
      <trkpt lat="44.53003" lon="4.21752">
        <ele>544.72</ele>
        <time>2016-05-08T08:28:28Z</time>
      </trkpt>
      <trkpt lat="44.53002" lon="4.21748">
        <ele>544.72</ele>
        <time>2016-05-08T08:28:29Z</time>
      </trkpt>
      <trkpt lat="44.53001" lon="4.21744">
        <ele>544.72</ele>
        <time>2016-05-08T08:28:30Z</time>
      </trkpt>
      <trkpt lat="44.53002" lon="4.21741">
        <ele>544.72</ele>
        <time>2016-05-08T08:28:31Z</time>
      </trkpt>
      <trkpt lat="44.53003" lon="4.21738">
        <ele>544.72</ele>
        <time>2016-05-08T08:28:32Z</time>
      </trkpt>
      <trkpt lat="44.53004" lon="4.21734">
        <ele>544.72</ele>
        <time>2016-05-08T08:28:33Z</time>
      </trkpt>
      <trkpt lat="44.53014" lon="4.21701">
        <ele>544.72</ele>
        <time>2016-05-08T08:28:44Z</time>
      </trkpt>
      <trkpt lat="44.53002" lon="4.2167">
        <ele>544.72</ele>
        <time>2016-05-08T08:28:55Z</time>
      </trkpt>
      <trkpt lat="44.52988" lon="4.21651">
        <ele>544.24</ele>
        <time>2016-05-08T08:29:03Z</time>
      </trkpt>
      <trkpt lat="44.52975" lon="4.2164">
        <ele>544.72</ele>
        <time>2016-05-08T08:29:08Z</time>
      </trkpt>
      <trkpt lat="44.52946" lon="4.21609">
        <ele>545.2</ele>
        <time>2016-05-08T08:29:17Z</time>
      </trkpt>
      <trkpt lat="44.52944" lon="4.21605">
        <ele>545.2</ele>
        <time>2016-05-08T08:29:18Z</time>
      </trkpt>
      <trkpt lat="44.52943" lon="4.21601">
        <ele>545.2</ele>
        <time>2016-05-08T08:29:19Z</time>
      </trkpt>
      <trkpt lat="44.52942" lon="4.21596">
        <ele>545.2</ele>
        <time>2016-05-08T08:29:20Z</time>
      </trkpt>
      <trkpt lat="44.5294" lon="4.21592">
        <ele>545.2</ele>
        <time>2016-05-08T08:29:21Z</time>
      </trkpt>
      <trkpt lat="44.52938" lon="4.21587">
        <ele>545.2</ele>
        <time>2016-05-08T08:29:22Z</time>
      </trkpt>
      <trkpt lat="44.52937" lon="4.21584">
        <ele>545.2</ele>
        <time>2016-05-08T08:29:23Z</time>
      </trkpt>
      <trkpt lat="44.52935" lon="4.2158">
        <ele>545.2</ele>
        <time>2016-05-08T08:29:24Z</time>
      </trkpt>
      <trkpt lat="44.52933" lon="4.21577">
        <ele>545.2</ele>
        <time>2016-05-08T08:29:25Z</time>
      </trkpt>
      <trkpt lat="44.5293" lon="4.21574">
        <ele>545.2</ele>
        <time>2016-05-08T08:29:26Z</time>
      </trkpt>
      <trkpt lat="44.52927" lon="4.21572">
        <ele>545.2</ele>
        <time>2016-05-08T08:29:27Z</time>
      </trkpt>
      <trkpt lat="44.52917" lon="4.21565">
        <ele>545.69</ele>
        <time>2016-05-08T08:29:30Z</time>
      </trkpt>
      <trkpt lat="44.5287" lon="4.21548">
        <ele>546.65</ele>
        <time>2016-05-08T08:29:40Z</time>
      </trkpt>
      <trkpt lat="44.52865" lon="4.21547">
        <ele>546.65</ele>
        <time>2016-05-08T08:29:41Z</time>
      </trkpt>
      <trkpt lat="44.5286" lon="4.21545">
        <ele>546.17</ele>
        <time>2016-05-08T08:29:42Z</time>
      </trkpt>
      <trkpt lat="44.52855" lon="4.21543">
        <ele>546.17</ele>
        <time>2016-05-08T08:29:43Z</time>
      </trkpt>
      <trkpt lat="44.52851" lon="4.21542">
        <ele>546.17</ele>
        <time>2016-05-08T08:29:44Z</time>
      </trkpt>
      <trkpt lat="44.52846" lon="4.21541">
        <ele>546.17</ele>
        <time>2016-05-08T08:29:45Z</time>
      </trkpt>
      <trkpt lat="44.52842" lon="4.21539">
        <ele>546.17</ele>
        <time>2016-05-08T08:29:46Z</time>
      </trkpt>
      <trkpt lat="44.52837" lon="4.21539">
        <ele>545.69</ele>
        <time>2016-05-08T08:29:47Z</time>
      </trkpt>
      <trkpt lat="44.52832" lon="4.21538">
        <ele>546.17</ele>
        <time>2016-05-08T08:29:48Z</time>
      </trkpt>
      <trkpt lat="44.52828" lon="4.21538">
        <ele>546.17</ele>
        <time>2016-05-08T08:29:49Z</time>
      </trkpt>
      <trkpt lat="44.52822" lon="4.21537">
        <ele>546.17</ele>
        <time>2016-05-08T08:29:50Z</time>
      </trkpt>
      <trkpt lat="44.52817" lon="4.21538">
        <ele>545.69</ele>
        <time>2016-05-08T08:29:51Z</time>
      </trkpt>
      <trkpt lat="44.52811" lon="4.2154">
        <ele>545.2</ele>
        <time>2016-05-08T08:29:52Z</time>
      </trkpt>
      <trkpt lat="44.52806" lon="4.21543">
        <ele>544.72</ele>
        <time>2016-05-08T08:29:53Z</time>
      </trkpt>
      <trkpt lat="44.52801" lon="4.21547">
        <ele>544.24</ele>
        <time>2016-05-08T08:29:54Z</time>
      </trkpt>
      <trkpt lat="44.52786" lon="4.21559">
        <ele>542.32</ele>
        <time>2016-05-08T08:29:57Z</time>
      </trkpt>
      <trkpt lat="44.5278" lon="4.21562">
        <ele>541.36</ele>
        <time>2016-05-08T08:29:58Z</time>
      </trkpt>
      <trkpt lat="44.52767" lon="4.21568">
        <ele>540.4</ele>
        <time>2016-05-08T08:30:00Z</time>
      </trkpt>
      <trkpt lat="44.52761" lon="4.21569">
        <ele>539.92</ele>
        <time>2016-05-08T08:30:01Z</time>
      </trkpt>
      <trkpt lat="44.52754" lon="4.21568">
        <ele>539.92</ele>
        <time>2016-05-08T08:30:02Z</time>
      </trkpt>
      <trkpt lat="44.52731" lon="4.21565">
        <ele>538.96</ele>
        <time>2016-05-08T08:30:06Z</time>
      </trkpt>
      <trkpt lat="44.52701" lon="4.21564">
        <ele>538.48</ele>
        <time>2016-05-08T08:30:13Z</time>
      </trkpt>
      <trkpt lat="44.52697" lon="4.21566">
        <ele>538.96</ele>
        <time>2016-05-08T08:30:14Z</time>
      </trkpt>
      <trkpt lat="44.52693" lon="4.21569">
        <ele>538.96</ele>
        <time>2016-05-08T08:30:15Z</time>
      </trkpt>
      <trkpt lat="44.5269" lon="4.21572">
        <ele>538.96</ele>
        <time>2016-05-08T08:30:16Z</time>
      </trkpt>
      <trkpt lat="44.52687" lon="4.21575">
        <ele>538.96</ele>
        <time>2016-05-08T08:30:17Z</time>
      </trkpt>
      <trkpt lat="44.52656" lon="4.21601">
        <ele>538.96</ele>
        <time>2016-05-08T08:30:27Z</time>
      </trkpt>
      <trkpt lat="44.52634" lon="4.21614">
        <ele>538.48</ele>
        <time>2016-05-08T08:30:32Z</time>
      </trkpt>
      <trkpt lat="44.52574" lon="4.21651">
        <ele>536.07</ele>
        <time>2016-05-08T08:30:44Z</time>
      </trkpt>
      <trkpt lat="44.52571" lon="4.21653">
        <ele>535.59</ele>
        <time>2016-05-08T08:30:45Z</time>
      </trkpt>
      <trkpt lat="44.52569" lon="4.21653">
        <ele>535.11</ele>
        <time>2016-05-08T08:30:46Z</time>
      </trkpt>
      <trkpt lat="44.52569" lon="4.21653">
        <ele>535.11</ele>
        <time>2016-05-08T08:30:47Z</time>
      </trkpt>
      <trkpt lat="44.52568" lon="4.21651">
        <ele>535.11</ele>
        <time>2016-05-08T08:30:48Z</time>
      </trkpt>
      <trkpt lat="44.52567" lon="4.21649">
        <ele>535.11</ele>
        <time>2016-05-08T08:30:49Z</time>
      </trkpt>
      <trkpt lat="44.52565" lon="4.21646">
        <ele>535.11</ele>
        <time>2016-05-08T08:30:50Z</time>
      </trkpt>
      <trkpt lat="44.52564" lon="4.21641">
        <ele>534.63</ele>
        <time>2016-05-08T08:30:51Z</time>
      </trkpt>
      <trkpt lat="44.52563" lon="4.21637">
        <ele>534.15</ele>
        <time>2016-05-08T08:30:52Z</time>
      </trkpt>
      <trkpt lat="44.52542" lon="4.21581">
        <ele>532.23</ele>
        <time>2016-05-08T08:31:03Z</time>
      </trkpt>
      <trkpt lat="44.52537" lon="4.21571">
        <ele>531.75</ele>
        <time>2016-05-08T08:31:05Z</time>
      </trkpt>
      <trkpt lat="44.52534" lon="4.21568">
        <ele>531.75</ele>
        <time>2016-05-08T08:31:06Z</time>
      </trkpt>
      <trkpt lat="44.5253" lon="4.21566">
        <ele>531.75</ele>
        <time>2016-05-08T08:31:07Z</time>
      </trkpt>
      <trkpt lat="44.52526" lon="4.21565">
        <ele>531.75</ele>
        <time>2016-05-08T08:31:08Z</time>
      </trkpt>
      <trkpt lat="44.52522" lon="4.21566">
        <ele>531.75</ele>
        <time>2016-05-08T08:31:09Z</time>
      </trkpt>
      <trkpt lat="44.52518" lon="4.21567">
        <ele>531.27</ele>
        <time>2016-05-08T08:31:10Z</time>
      </trkpt>
      <trkpt lat="44.52514" lon="4.21569">
        <ele>531.27</ele>
        <time>2016-05-08T08:31:11Z</time>
      </trkpt>
      <trkpt lat="44.52505" lon="4.21573">
        <ele>530.3</ele>
        <time>2016-05-08T08:31:13Z</time>
      </trkpt>
      <trkpt lat="44.52492" lon="4.21575">
        <ele>528.86</ele>
        <time>2016-05-08T08:31:16Z</time>
      </trkpt>
      <trkpt lat="44.52488" lon="4.21576">
        <ele>528.86</ele>
        <time>2016-05-08T08:31:17Z</time>
      </trkpt>
      <trkpt lat="44.52482" lon="4.21577">
        <ele>528.38</ele>
        <time>2016-05-08T08:31:18Z</time>
      </trkpt>
      <trkpt lat="44.52477" lon="4.21578">
        <ele>527.9</ele>
        <time>2016-05-08T08:31:19Z</time>
      </trkpt>
      <trkpt lat="44.52452" lon="4.21579">
        <ele>525.5</ele>
        <time>2016-05-08T08:31:23Z</time>
      </trkpt>
      <trkpt lat="44.52445" lon="4.2158">
        <ele>524.54</ele>
        <time>2016-05-08T08:31:24Z</time>
      </trkpt>
      <trkpt lat="44.52434" lon="4.21583">
        <ele>523.09</ele>
        <time>2016-05-08T08:31:26Z</time>
      </trkpt>
      <trkpt lat="44.5243" lon="4.21586">
        <ele>522.13</ele>
        <time>2016-05-08T08:31:27Z</time>
      </trkpt>
      <trkpt lat="44.52426" lon="4.21591">
        <ele>521.65</ele>
        <time>2016-05-08T08:31:28Z</time>
      </trkpt>
      <trkpt lat="44.52425" lon="4.21596">
        <ele>520.69</ele>
        <time>2016-05-08T08:31:29Z</time>
      </trkpt>
      <trkpt lat="44.52425" lon="4.21603">
        <ele>520.21</ele>
        <time>2016-05-08T08:31:30Z</time>
      </trkpt>
      <trkpt lat="44.52425" lon="4.21611">
        <ele>520.21</ele>
        <time>2016-05-08T08:31:31Z</time>
      </trkpt>
      <trkpt lat="44.52425" lon="4.21635">
        <ele>518.77</ele>
        <time>2016-05-08T08:31:34Z</time>
      </trkpt>
      <trkpt lat="44.52422" lon="4.21641">
        <ele>518.29</ele>
        <time>2016-05-08T08:31:35Z</time>
      </trkpt>
      <trkpt lat="44.52417" lon="4.21646">
        <ele>517.81</ele>
        <time>2016-05-08T08:31:36Z</time>
      </trkpt>
      <trkpt lat="44.52412" lon="4.21648">
        <ele>517.81</ele>
        <time>2016-05-08T08:31:37Z</time>
      </trkpt>
      <trkpt lat="44.52406" lon="4.21649">
        <ele>517.33</ele>
        <time>2016-05-08T08:31:38Z</time>
      </trkpt>
      <trkpt lat="44.524" lon="4.2165">
        <ele>516.85</ele>
        <time>2016-05-08T08:31:39Z</time>
      </trkpt>
      <trkpt lat="44.52393" lon="4.2165">
        <ele>516.37</ele>
        <time>2016-05-08T08:31:40Z</time>
      </trkpt>
      <trkpt lat="44.52387" lon="4.21648">
        <ele>515.88</ele>
        <time>2016-05-08T08:31:41Z</time>
      </trkpt>
      <trkpt lat="44.52381" lon="4.21647">
        <ele>515.4</ele>
        <time>2016-05-08T08:31:42Z</time>
      </trkpt>
      <trkpt lat="44.52375" lon="4.21646">
        <ele>515.4</ele>
        <time>2016-05-08T08:31:43Z</time>
      </trkpt>
      <trkpt lat="44.52369" lon="4.21646">
        <ele>514.92</ele>
        <time>2016-05-08T08:31:44Z</time>
      </trkpt>
      <trkpt lat="44.52363" lon="4.21645">
        <ele>514.44</ele>
        <time>2016-05-08T08:31:45Z</time>
      </trkpt>
      <trkpt lat="44.52357" lon="4.21644">
        <ele>513.48</ele>
        <time>2016-05-08T08:31:46Z</time>
      </trkpt>
      <trkpt lat="44.52352" lon="4.21642">
        <ele>511.08</ele>
        <time>2016-05-08T08:31:47Z</time>
      </trkpt>
      <trkpt lat="44.52347" lon="4.21641">
        <ele>510.6</ele>
        <time>2016-05-08T08:31:48Z</time>
      </trkpt>
      <trkpt lat="44.52341" lon="4.21641">
        <ele>510.12</ele>
        <time>2016-05-08T08:31:49Z</time>
      </trkpt>
      <trkpt lat="44.52336" lon="4.21641">
        <ele>509.16</ele>
        <time>2016-05-08T08:31:50Z</time>
      </trkpt>
      <trkpt lat="44.5233" lon="4.21641">
        <ele>508.19</ele>
        <time>2016-05-08T08:31:51Z</time>
      </trkpt>
      <trkpt lat="44.52315" lon="4.21637">
        <ele>505.79</ele>
        <time>2016-05-08T08:31:54Z</time>
      </trkpt>
      <trkpt lat="44.52311" lon="4.21638">
        <ele>505.31</ele>
        <time>2016-05-08T08:31:55Z</time>
      </trkpt>
      <trkpt lat="44.52308" lon="4.2164">
        <ele>504.83</ele>
        <time>2016-05-08T08:31:56Z</time>
      </trkpt>
      <trkpt lat="44.52305" lon="4.21644">
        <ele>504.83</ele>
        <time>2016-05-08T08:31:57Z</time>
      </trkpt>
      <trkpt lat="44.52303" lon="4.21648">
        <ele>505.31</ele>
        <time>2016-05-08T08:31:58Z</time>
      </trkpt>
      <trkpt lat="44.52301" lon="4.21653">
        <ele>505.79</ele>
        <time>2016-05-08T08:31:59Z</time>
      </trkpt>
      <trkpt lat="44.523" lon="4.21658">
        <ele>506.27</ele>
        <time>2016-05-08T08:32:00Z</time>
      </trkpt>
      <trkpt lat="44.52299" lon="4.21665">
        <ele>506.27</ele>
        <time>2016-05-08T08:32:01Z</time>
      </trkpt>
      <trkpt lat="44.52299" lon="4.21673">
        <ele>506.27</ele>
        <time>2016-05-08T08:32:02Z</time>
      </trkpt>
      <trkpt lat="44.52301" lon="4.2168">
        <ele>506.75</ele>
        <time>2016-05-08T08:32:03Z</time>
      </trkpt>
      <trkpt lat="44.52302" lon="4.21687">
        <ele>507.23</ele>
        <time>2016-05-08T08:32:04Z</time>
      </trkpt>
      <trkpt lat="44.52303" lon="4.21694">
        <ele>507.23</ele>
        <time>2016-05-08T08:32:05Z</time>
      </trkpt>
      <trkpt lat="44.52303" lon="4.217">
        <ele>507.71</ele>
        <time>2016-05-08T08:32:06Z</time>
      </trkpt>
      <trkpt lat="44.52303" lon="4.21706">
        <ele>507.71</ele>
        <time>2016-05-08T08:32:07Z</time>
      </trkpt>
      <trkpt lat="44.52302" lon="4.21712">
        <ele>507.71</ele>
        <time>2016-05-08T08:32:08Z</time>
      </trkpt>
      <trkpt lat="44.52302" lon="4.21717">
        <ele>507.23</ele>
        <time>2016-05-08T08:32:09Z</time>
      </trkpt>
      <trkpt lat="44.523" lon="4.21723">
        <ele>507.23</ele>
        <time>2016-05-08T08:32:10Z</time>
      </trkpt>
      <trkpt lat="44.52297" lon="4.21736">
        <ele>506.75</ele>
        <time>2016-05-08T08:32:12Z</time>
      </trkpt>
      <trkpt lat="44.52297" lon="4.21743">
        <ele>505.79</ele>
        <time>2016-05-08T08:32:13Z</time>
      </trkpt>
      <trkpt lat="44.52298" lon="4.21751">
        <ele>505.31</ele>
        <time>2016-05-08T08:32:14Z</time>
      </trkpt>
      <trkpt lat="44.523" lon="4.21758">
        <ele>505.31</ele>
        <time>2016-05-08T08:32:15Z</time>
      </trkpt>
      <trkpt lat="44.52303" lon="4.21764">
        <ele>505.31</ele>
        <time>2016-05-08T08:32:16Z</time>
      </trkpt>
      <trkpt lat="44.52306" lon="4.2177">
        <ele>505.31</ele>
        <time>2016-05-08T08:32:17Z</time>
      </trkpt>
      <trkpt lat="44.52326" lon="4.21811">
        <ele>504.83</ele>
        <time>2016-05-08T08:32:27Z</time>
      </trkpt>
      <trkpt lat="44.52329" lon="4.21816">
        <ele>504.35</ele>
        <time>2016-05-08T08:32:28Z</time>
      </trkpt>
      <trkpt lat="44.5237" lon="4.21874">
        <ele>503.39</ele>
        <time>2016-05-08T08:32:40Z</time>
      </trkpt>
      <trkpt lat="44.52374" lon="4.21879">
        <ele>503.39</ele>
        <time>2016-05-08T08:32:41Z</time>
      </trkpt>
      <trkpt lat="44.52379" lon="4.21883">
        <ele>503.39</ele>
        <time>2016-05-08T08:32:42Z</time>
      </trkpt>
      <trkpt lat="44.52383" lon="4.21886">
        <ele>503.39</ele>
        <time>2016-05-08T08:32:43Z</time>
      </trkpt>
      <trkpt lat="44.52388" lon="4.21887">
        <ele>503.39</ele>
        <time>2016-05-08T08:32:44Z</time>
      </trkpt>
      <trkpt lat="44.5241" lon="4.2189">
        <ele>503.39</ele>
        <time>2016-05-08T08:32:50Z</time>
      </trkpt>
      <trkpt lat="44.52411" lon="4.21891">
        <ele>503.87</ele>
        <time>2016-05-08T08:32:51Z</time>
      </trkpt>
      <trkpt lat="44.52412" lon="4.2189">
        <ele>504.35</ele>
        <time>2016-05-08T08:32:53Z</time>
      </trkpt>
      <trkpt lat="44.52411" lon="4.21889">
        <ele>504.35</ele>
        <time>2016-05-08T08:32:54Z</time>
      </trkpt>
      <trkpt lat="44.52409" lon="4.21889">
        <ele>504.35</ele>
        <time>2016-05-08T08:32:55Z</time>
      </trkpt>
      <trkpt lat="44.52406" lon="4.21889">
        <ele>504.35</ele>
        <time>2016-05-08T08:32:56Z</time>
      </trkpt>
      <trkpt lat="44.52403" lon="4.21889">
        <ele>504.35</ele>
        <time>2016-05-08T08:32:57Z</time>
      </trkpt>
      <trkpt lat="44.524" lon="4.21889">
        <ele>504.35</ele>
        <time>2016-05-08T08:32:58Z</time>
      </trkpt>
      <trkpt lat="44.52398" lon="4.2189">
        <ele>504.35</ele>
        <time>2016-05-08T08:32:59Z</time>
      </trkpt>
      <trkpt lat="44.52396" lon="4.21889">
        <ele>503.39</ele>
        <time>2016-05-08T08:33:00Z</time>
      </trkpt>
      <trkpt lat="44.52395" lon="4.21888">
        <ele>502.91</ele>
        <time>2016-05-08T08:33:12Z</time>
      </trkpt>
      <trkpt lat="44.52395" lon="4.21888">
        <ele>502.91</ele>
        <time>2016-05-08T08:33:43Z</time>
      </trkpt>
      <trkpt lat="44.52395" lon="4.21888">
        <ele>502.91</ele>
        <time>2016-05-08T08:33:53Z</time>
      </trkpt>
      <trkpt lat="44.52406" lon="4.21889">
        <ele>503.39</ele>
        <time>2016-05-08T08:33:58Z</time>
      </trkpt>
      <trkpt lat="44.52431" lon="4.21892">
        <ele>504.35</ele>
        <time>2016-05-08T08:34:10Z</time>
      </trkpt>
      <trkpt lat="44.52436" lon="4.21893">
        <ele>504.35</ele>
        <time>2016-05-08T08:34:13Z</time>
      </trkpt>
      <trkpt lat="44.5243" lon="4.21896">
        <ele>503.87</ele>
        <time>2016-05-08T08:34:21Z</time>
      </trkpt>
      <trkpt lat="44.52426" lon="4.21896">
        <ele>503.39</ele>
        <time>2016-05-08T08:34:22Z</time>
      </trkpt>
      <trkpt lat="44.52421" lon="4.21895">
        <ele>503.39</ele>
        <time>2016-05-08T08:34:23Z</time>
      </trkpt>
      <trkpt lat="44.52415" lon="4.21896">
        <ele>502.91</ele>
        <time>2016-05-08T08:34:24Z</time>
      </trkpt>
      <trkpt lat="44.5241" lon="4.21897">
        <ele>502.43</ele>
        <time>2016-05-08T08:34:25Z</time>
      </trkpt>
      <trkpt lat="44.52405" lon="4.21899">
        <ele>501.95</ele>
        <time>2016-05-08T08:34:26Z</time>
      </trkpt>
      <trkpt lat="44.52399" lon="4.21901">
        <ele>501.46</ele>
        <time>2016-05-08T08:34:27Z</time>
      </trkpt>
      <trkpt lat="44.52393" lon="4.21904">
        <ele>500.98</ele>
        <time>2016-05-08T08:34:28Z</time>
      </trkpt>
      <trkpt lat="44.52387" lon="4.21906">
        <ele>500.5</ele>
        <time>2016-05-08T08:34:29Z</time>
      </trkpt>
      <trkpt lat="44.52364" lon="4.21907">
        <ele>497.14</ele>
        <time>2016-05-08T08:34:33Z</time>
      </trkpt>
      <trkpt lat="44.5236" lon="4.21909">
        <ele>496.18</ele>
        <time>2016-05-08T08:34:35Z</time>
      </trkpt>
      <trkpt lat="44.5236" lon="4.21913">
        <ele>495.7</ele>
        <time>2016-05-08T08:34:36Z</time>
      </trkpt>
      <trkpt lat="44.52362" lon="4.21916">
        <ele>495.7</ele>
        <time>2016-05-08T08:34:37Z</time>
      </trkpt>
      <trkpt lat="44.52364" lon="4.21918">
        <ele>495.22</ele>
        <time>2016-05-08T08:34:38Z</time>
      </trkpt>
      <trkpt lat="44.52368" lon="4.2192">
        <ele>495.22</ele>
        <time>2016-05-08T08:34:39Z</time>
      </trkpt>
      <trkpt lat="44.52412" lon="4.21943">
        <ele>492.81</ele>
        <time>2016-05-08T08:34:48Z</time>
      </trkpt>
      <trkpt lat="44.52417" lon="4.21949">
        <ele>492.81</ele>
        <time>2016-05-08T08:34:49Z</time>
      </trkpt>
      <trkpt lat="44.52421" lon="4.21955">
        <ele>492.81</ele>
        <time>2016-05-08T08:34:50Z</time>
      </trkpt>
      <trkpt lat="44.52428" lon="4.21968">
        <ele>491.37</ele>
        <time>2016-05-08T08:34:52Z</time>
      </trkpt>
      <trkpt lat="44.52431" lon="4.21973">
        <ele>490.89</ele>
        <time>2016-05-08T08:34:53Z</time>
      </trkpt>
      <trkpt lat="44.52442" lon="4.2199">
        <ele>488.49</ele>
        <time>2016-05-08T08:34:57Z</time>
      </trkpt>
      <trkpt lat="44.52442" lon="4.21993">
        <ele>488.49</ele>
        <time>2016-05-08T08:34:58Z</time>
      </trkpt>
      <trkpt lat="44.52441" lon="4.21996">
        <ele>488.49</ele>
        <time>2016-05-08T08:34:59Z</time>
      </trkpt>
      <trkpt lat="44.52429" lon="4.22024">
        <ele>487.05</ele>
        <time>2016-05-08T08:35:03Z</time>
      </trkpt>
      <trkpt lat="44.52427" lon="4.22034">
        <ele>485.6</ele>
        <time>2016-05-08T08:35:04Z</time>
      </trkpt>
      <trkpt lat="44.52425" lon="4.22045">
        <ele>484.64</ele>
        <time>2016-05-08T08:35:05Z</time>
      </trkpt>
      <trkpt lat="44.52421" lon="4.22087">
        <ele>481.28</ele>
        <time>2016-05-08T08:35:09Z</time>
      </trkpt>
      <trkpt lat="44.52421" lon="4.22096">
        <ele>480.8</ele>
        <time>2016-05-08T08:35:10Z</time>
      </trkpt>
      <trkpt lat="44.52424" lon="4.22114">
        <ele>479.84</ele>
        <time>2016-05-08T08:35:12Z</time>
      </trkpt>
      <trkpt lat="44.52423" lon="4.22123">
        <ele>479.84</ele>
        <time>2016-05-08T08:35:13Z</time>
      </trkpt>
      <trkpt lat="44.52422" lon="4.22132">
        <ele>479.84</ele>
        <time>2016-05-08T08:35:14Z</time>
      </trkpt>
      <trkpt lat="44.52421" lon="4.2214">
        <ele>479.84</ele>
        <time>2016-05-08T08:35:15Z</time>
      </trkpt>
      <trkpt lat="44.5242" lon="4.22149">
        <ele>479.35</ele>
        <time>2016-05-08T08:35:16Z</time>
      </trkpt>
      <trkpt lat="44.5242" lon="4.22157">
        <ele>479.35</ele>
        <time>2016-05-08T08:35:17Z</time>
      </trkpt>
      <trkpt lat="44.52416" lon="4.22248">
        <ele>478.39</ele>
        <time>2016-05-08T08:35:31Z</time>
      </trkpt>
      <trkpt lat="44.52412" lon="4.22276">
        <ele>476.95</ele>
        <time>2016-05-08T08:35:36Z</time>
      </trkpt>
      <trkpt lat="44.52411" lon="4.22282">
        <ele>476.95</ele>
        <time>2016-05-08T08:35:37Z</time>
      </trkpt>
      <trkpt lat="44.52409" lon="4.22288">
        <ele>476.95</ele>
        <time>2016-05-08T08:35:38Z</time>
      </trkpt>
      <trkpt lat="44.52408" lon="4.22294">
        <ele>476.95</ele>
        <time>2016-05-08T08:35:39Z</time>
      </trkpt>
      <trkpt lat="44.52405" lon="4.22301">
        <ele>476.47</ele>
        <time>2016-05-08T08:35:40Z</time>
      </trkpt>
      <trkpt lat="44.52403" lon="4.22308">
        <ele>476.47</ele>
        <time>2016-05-08T08:35:41Z</time>
      </trkpt>
      <trkpt lat="44.52394" lon="4.22331">
        <ele>475.03</ele>
        <time>2016-05-08T08:35:46Z</time>
      </trkpt>
      <trkpt lat="44.52394" lon="4.22334">
        <ele>474.55</ele>
        <time>2016-05-08T08:35:47Z</time>
      </trkpt>
      <trkpt lat="44.52393" lon="4.22337">
        <ele>474.55</ele>
        <time>2016-05-08T08:35:48Z</time>
      </trkpt>
      <trkpt lat="44.52392" lon="4.2234">
        <ele>474.55</ele>
        <time>2016-05-08T08:35:49Z</time>
      </trkpt>
      <trkpt lat="44.52391" lon="4.22343">
        <ele>474.07</ele>
        <time>2016-05-08T08:35:50Z</time>
      </trkpt>
      <trkpt lat="44.52389" lon="4.22345">
        <ele>474.07</ele>
        <time>2016-05-08T08:35:51Z</time>
      </trkpt>
      <trkpt lat="44.52387" lon="4.22348">
        <ele>474.07</ele>
        <time>2016-05-08T08:35:52Z</time>
      </trkpt>
      <trkpt lat="44.5237" lon="4.22375">
        <ele>472.63</ele>
        <time>2016-05-08T08:35:58Z</time>
      </trkpt>
      <trkpt lat="44.52365" lon="4.22381">
        <ele>472.14</ele>
        <time>2016-05-08T08:35:59Z</time>
      </trkpt>
      <trkpt lat="44.52362" lon="4.22386">
        <ele>472.14</ele>
        <time>2016-05-08T08:36:00Z</time>
      </trkpt>
      <trkpt lat="44.52358" lon="4.22393">
        <ele>471.66</ele>
        <time>2016-05-08T08:36:01Z</time>
      </trkpt>
      <trkpt lat="44.52354" lon="4.22399">
        <ele>471.18</ele>
        <time>2016-05-08T08:36:02Z</time>
      </trkpt>
      <trkpt lat="44.52341" lon="4.22425">
        <ele>470.22</ele>
        <time>2016-05-08T08:36:05Z</time>
      </trkpt>
      <trkpt lat="44.52338" lon="4.22435">
        <ele>469.26</ele>
        <time>2016-05-08T08:36:06Z</time>
      </trkpt>
      <trkpt lat="44.52333" lon="4.22456">
        <ele>468.3</ele>
        <time>2016-05-08T08:36:08Z</time>
      </trkpt>
      <trkpt lat="44.52322" lon="4.22493">
        <ele>467.82</ele>
        <time>2016-05-08T08:36:11Z</time>
      </trkpt>
      <trkpt lat="44.52317" lon="4.22505">
        <ele>466.38</ele>
        <time>2016-05-08T08:36:12Z</time>
      </trkpt>
      <trkpt lat="44.52312" lon="4.22515">
        <ele>465.9</ele>
        <time>2016-05-08T08:36:13Z</time>
      </trkpt>
      <trkpt lat="44.52306" lon="4.22524">
        <ele>465.9</ele>
        <time>2016-05-08T08:36:14Z</time>
      </trkpt>
      <trkpt lat="44.52301" lon="4.22532">
        <ele>465.42</ele>
        <time>2016-05-08T08:36:15Z</time>
      </trkpt>
      <trkpt lat="44.52297" lon="4.22538">
        <ele>465.42</ele>
        <time>2016-05-08T08:36:16Z</time>
      </trkpt>
      <trkpt lat="44.52292" lon="4.22543">
        <ele>464.93</ele>
        <time>2016-05-08T08:36:17Z</time>
      </trkpt>
      <trkpt lat="44.52271" lon="4.22564">
        <ele>464.93</ele>
        <time>2016-05-08T08:36:21Z</time>
      </trkpt>
      <trkpt lat="44.52266" lon="4.22568">
        <ele>464.93</ele>
        <time>2016-05-08T08:36:22Z</time>
      </trkpt>
      <trkpt lat="44.52262" lon="4.22571">
        <ele>464.93</ele>
        <time>2016-05-08T08:36:23Z</time>
      </trkpt>
      <trkpt lat="44.52258" lon="4.22573">
        <ele>465.42</ele>
        <time>2016-05-08T08:36:24Z</time>
      </trkpt>
      <trkpt lat="44.52254" lon="4.22575">
        <ele>465.42</ele>
        <time>2016-05-08T08:36:25Z</time>
      </trkpt>
      <trkpt lat="44.5225" lon="4.22577">
        <ele>465.42</ele>
        <time>2016-05-08T08:36:26Z</time>
      </trkpt>
      <trkpt lat="44.52246" lon="4.22579">
        <ele>464.93</ele>
        <time>2016-05-08T08:36:27Z</time>
      </trkpt>
      <trkpt lat="44.52243" lon="4.22581">
        <ele>464.93</ele>
        <time>2016-05-08T08:36:28Z</time>
      </trkpt>
      <trkpt lat="44.52231" lon="4.226">
        <ele>463.97</ele>
        <time>2016-05-08T08:36:33Z</time>
      </trkpt>
      <trkpt lat="44.52224" lon="4.22608">
        <ele>463.49</ele>
        <time>2016-05-08T08:36:35Z</time>
      </trkpt>
      <trkpt lat="44.5222" lon="4.2261">
        <ele>463.49</ele>
        <time>2016-05-08T08:36:36Z</time>
      </trkpt>
      <trkpt lat="44.52181" lon="4.22616">
        <ele>460.13</ele>
        <time>2016-05-08T08:36:42Z</time>
      </trkpt>
      <trkpt lat="44.52173" lon="4.22617">
        <ele>459.17</ele>
        <time>2016-05-08T08:36:43Z</time>
      </trkpt>
      <trkpt lat="44.5216" lon="4.22616">
        <ele>458.21</ele>
        <time>2016-05-08T08:36:45Z</time>
      </trkpt>
      <trkpt lat="44.52154" lon="4.22615">
        <ele>458.21</ele>
        <time>2016-05-08T08:36:46Z</time>
      </trkpt>
      <trkpt lat="44.52148" lon="4.22614">
        <ele>458.21</ele>
        <time>2016-05-08T08:36:47Z</time>
      </trkpt>
      <trkpt lat="44.52108" lon="4.22605">
        <ele>461.09</ele>
        <time>2016-05-08T08:36:57Z</time>
      </trkpt>
      <trkpt lat="44.52094" lon="4.22604">
        <ele>461.57</ele>
        <time>2016-05-08T08:37:00Z</time>
      </trkpt>
      <trkpt lat="44.52082" lon="4.22604">
        <ele>461.57</ele>
        <time>2016-05-08T08:37:02Z</time>
      </trkpt>
      <trkpt lat="44.52075" lon="4.22602">
        <ele>461.57</ele>
        <time>2016-05-08T08:37:03Z</time>
      </trkpt>
      <trkpt lat="44.52067" lon="4.22599">
        <ele>461.57</ele>
        <time>2016-05-08T08:37:04Z</time>
      </trkpt>
      <trkpt lat="44.52052" lon="4.22593">
        <ele>461.09</ele>
        <time>2016-05-08T08:37:06Z</time>
      </trkpt>
      <trkpt lat="44.52044" lon="4.22594">
        <ele>461.09</ele>
        <time>2016-05-08T08:37:07Z</time>
      </trkpt>
      <trkpt lat="44.52036" lon="4.22597">
        <ele>461.09</ele>
        <time>2016-05-08T08:37:08Z</time>
      </trkpt>
      <trkpt lat="44.52029" lon="4.22601">
        <ele>460.61</ele>
        <time>2016-05-08T08:37:09Z</time>
      </trkpt>
      <trkpt lat="44.52022" lon="4.22607">
        <ele>460.61</ele>
        <time>2016-05-08T08:37:10Z</time>
      </trkpt>
      <trkpt lat="44.52015" lon="4.22613">
        <ele>460.61</ele>
        <time>2016-05-08T08:37:11Z</time>
      </trkpt>
      <trkpt lat="44.51959" lon="4.22662">
        <ele>461.09</ele>
        <time>2016-05-08T08:37:19Z</time>
      </trkpt>
      <trkpt lat="44.51955" lon="4.22667">
        <ele>460.61</ele>
        <time>2016-05-08T08:37:20Z</time>
      </trkpt>
      <trkpt lat="44.51934" lon="4.2269">
        <ele>460.13</ele>
        <time>2016-05-08T08:37:27Z</time>
      </trkpt>
      <trkpt lat="44.5193" lon="4.22692">
        <ele>460.13</ele>
        <time>2016-05-08T08:37:28Z</time>
      </trkpt>
      <trkpt lat="44.51919" lon="4.22698">
        <ele>459.65</ele>
        <time>2016-05-08T08:37:30Z</time>
      </trkpt>
      <trkpt lat="44.51913" lon="4.22703">
        <ele>459.65</ele>
        <time>2016-05-08T08:37:31Z</time>
      </trkpt>
      <trkpt lat="44.51909" lon="4.22709">
        <ele>459.17</ele>
        <time>2016-05-08T08:37:32Z</time>
      </trkpt>
      <trkpt lat="44.5189" lon="4.22732">
        <ele>459.17</ele>
        <time>2016-05-08T08:37:36Z</time>
      </trkpt>
      <trkpt lat="44.51886" lon="4.22737">
        <ele>458.69</ele>
        <time>2016-05-08T08:37:37Z</time>
      </trkpt>
      <trkpt lat="44.51877" lon="4.22748">
        <ele>458.69</ele>
        <time>2016-05-08T08:37:39Z</time>
      </trkpt>
      <trkpt lat="44.51871" lon="4.22754">
        <ele>458.69</ele>
        <time>2016-05-08T08:37:40Z</time>
      </trkpt>
      <trkpt lat="44.51826" lon="4.22801">
        <ele>460.61</ele>
        <time>2016-05-08T08:37:51Z</time>
      </trkpt>
      <trkpt lat="44.51809" lon="4.22823">
        <ele>459.65</ele>
        <time>2016-05-08T08:38:00Z</time>
      </trkpt>
      <trkpt lat="44.51786" lon="4.22842">
        <ele>459.65</ele>
        <time>2016-05-08T08:38:09Z</time>
      </trkpt>
      <trkpt lat="44.51784" lon="4.22843">
        <ele>459.17</ele>
        <time>2016-05-08T08:38:10Z</time>
      </trkpt>
      <trkpt lat="44.51782" lon="4.22845">
        <ele>459.17</ele>
        <time>2016-05-08T08:38:11Z</time>
      </trkpt>
      <trkpt lat="44.5176" lon="4.22868">
        <ele>458.21</ele>
        <time>2016-05-08T08:38:22Z</time>
      </trkpt>
      <trkpt lat="44.51759" lon="4.22871">
        <ele>457.72</ele>
        <time>2016-05-08T08:38:33Z</time>
      </trkpt>
      <trkpt lat="44.51756" lon="4.22877">
        <ele>456.28</ele>
        <time>2016-05-08T08:38:43Z</time>
      </trkpt>
      <trkpt lat="44.51754" lon="4.22883">
        <ele>456.28</ele>
        <time>2016-05-08T08:38:50Z</time>
      </trkpt>
      <trkpt lat="44.51752" lon="4.22906">
        <ele>454.84</ele>
        <time>2016-05-08T08:38:55Z</time>
      </trkpt>
      <trkpt lat="44.5175" lon="4.22913">
        <ele>454.36</ele>
        <time>2016-05-08T08:38:56Z</time>
      </trkpt>
      <trkpt lat="44.51749" lon="4.22919">
        <ele>453.88</ele>
        <time>2016-05-08T08:38:57Z</time>
      </trkpt>
      <trkpt lat="44.5174" lon="4.22946">
        <ele>451.96</ele>
        <time>2016-05-08T08:39:01Z</time>
      </trkpt>
      <trkpt lat="44.51738" lon="4.22953">
        <ele>451.48</ele>
        <time>2016-05-08T08:39:02Z</time>
      </trkpt>
      <trkpt lat="44.51736" lon="4.22961">
        <ele>450.52</ele>
        <time>2016-05-08T08:39:03Z</time>
      </trkpt>
      <trkpt lat="44.51725" lon="4.22995">
        <ele>447.15</ele>
        <time>2016-05-08T08:39:09Z</time>
      </trkpt>
      <trkpt lat="44.51719" lon="4.23008">
        <ele>446.19</ele>
        <time>2016-05-08T08:39:11Z</time>
      </trkpt>
      <trkpt lat="44.51716" lon="4.23014">
        <ele>445.71</ele>
        <time>2016-05-08T08:39:12Z</time>
      </trkpt>
      <trkpt lat="44.51713" lon="4.23022">
        <ele>444.75</ele>
        <time>2016-05-08T08:39:13Z</time>
      </trkpt>
      <trkpt lat="44.51708" lon="4.23037">
        <ele>443.79</ele>
        <time>2016-05-08T08:39:15Z</time>
      </trkpt>
      <trkpt lat="44.51704" lon="4.23044">
        <ele>443.79</ele>
        <time>2016-05-08T08:39:16Z</time>
      </trkpt>
      <trkpt lat="44.51699" lon="4.23051">
        <ele>442.82</ele>
        <time>2016-05-08T08:39:17Z</time>
      </trkpt>
      <trkpt lat="44.51693" lon="4.23058">
        <ele>442.34</ele>
        <time>2016-05-08T08:39:18Z</time>
      </trkpt>
      <trkpt lat="44.51688" lon="4.23065">
        <ele>441.86</ele>
        <time>2016-05-08T08:39:19Z</time>
      </trkpt>
      <trkpt lat="44.51684" lon="4.23073">
        <ele>441.38</ele>
        <time>2016-05-08T08:39:20Z</time>
      </trkpt>
      <trkpt lat="44.51663" lon="4.23104">
        <ele>438.02</ele>
        <time>2016-05-08T08:39:24Z</time>
      </trkpt>
      <trkpt lat="44.51647" lon="4.23128">
        <ele>436.58</ele>
        <time>2016-05-08T08:39:27Z</time>
      </trkpt>
      <trkpt lat="44.51625" lon="4.23157">
        <ele>433.21</ele>
        <time>2016-05-08T08:39:31Z</time>
      </trkpt>
      <trkpt lat="44.51619" lon="4.23162">
        <ele>431.77</ele>
        <time>2016-05-08T08:39:32Z</time>
      </trkpt>
      <trkpt lat="44.51614" lon="4.23167">
        <ele>430.81</ele>
        <time>2016-05-08T08:39:33Z</time>
      </trkpt>
      <trkpt lat="44.51611" lon="4.23172">
        <ele>429.85</ele>
        <time>2016-05-08T08:39:34Z</time>
      </trkpt>
      <trkpt lat="44.5161" lon="4.23177">
        <ele>429.85</ele>
        <time>2016-05-08T08:39:35Z</time>
      </trkpt>
      <trkpt lat="44.51608" lon="4.23183">
        <ele>429.37</ele>
        <time>2016-05-08T08:39:36Z</time>
      </trkpt>
      <trkpt lat="44.51609" lon="4.23199">
        <ele>429.37</ele>
        <time>2016-05-08T08:39:37Z</time>
      </trkpt>
      <trkpt lat="44.51592" lon="4.23305">
        <ele>426.48</ele>
        <time>2016-05-08T08:39:47Z</time>
      </trkpt>
      <trkpt lat="44.51588" lon="4.23326">
        <ele>425.04</ele>
        <time>2016-05-08T08:39:49Z</time>
      </trkpt>
      <trkpt lat="44.51585" lon="4.23334">
        <ele>424.56</ele>
        <time>2016-05-08T08:39:50Z</time>
      </trkpt>
      <trkpt lat="44.51582" lon="4.23338">
        <ele>424.08</ele>
        <time>2016-05-08T08:39:51Z</time>
      </trkpt>
      <trkpt lat="44.51578" lon="4.23339">
        <ele>424.08</ele>
        <time>2016-05-08T08:39:52Z</time>
      </trkpt>
      <trkpt lat="44.51574" lon="4.23339">
        <ele>424.08</ele>
        <time>2016-05-08T08:39:53Z</time>
      </trkpt>
      <trkpt lat="44.5157" lon="4.23339">
        <ele>424.56</ele>
        <time>2016-05-08T08:39:54Z</time>
      </trkpt>
      <trkpt lat="44.51566" lon="4.2334">
        <ele>424.08</ele>
        <time>2016-05-08T08:39:55Z</time>
      </trkpt>
      <trkpt lat="44.51562" lon="4.2334">
        <ele>424.08</ele>
        <time>2016-05-08T08:39:56Z</time>
      </trkpt>
      <trkpt lat="44.51559" lon="4.2334">
        <ele>423.12</ele>
        <time>2016-05-08T08:39:57Z</time>
      </trkpt>
      <trkpt lat="44.51557" lon="4.23342">
        <ele>422.64</ele>
        <time>2016-05-08T08:39:58Z</time>
      </trkpt>
      <trkpt lat="44.51556" lon="4.23346">
        <ele>421.68</ele>
        <time>2016-05-08T08:39:59Z</time>
      </trkpt>
      <trkpt lat="44.51557" lon="4.2335">
        <ele>421.19</ele>
        <time>2016-05-08T08:40:00Z</time>
      </trkpt>
      <trkpt lat="44.51566" lon="4.23374">
        <ele>421.68</ele>
        <time>2016-05-08T08:40:06Z</time>
      </trkpt>
      <trkpt lat="44.51584" lon="4.23439">
        <ele>421.19</ele>
        <time>2016-05-08T08:40:19Z</time>
      </trkpt>
      <trkpt lat="44.51586" lon="4.23445">
        <ele>420.71</ele>
        <time>2016-05-08T08:40:20Z</time>
      </trkpt>
      <trkpt lat="44.51598" lon="4.23489">
        <ele>419.75</ele>
        <time>2016-05-08T08:40:28Z</time>
      </trkpt>
      <trkpt lat="44.51598" lon="4.23495">
        <ele>419.27</ele>
        <time>2016-05-08T08:40:29Z</time>
      </trkpt>
      <trkpt lat="44.51597" lon="4.23501">
        <ele>418.79</ele>
        <time>2016-05-08T08:40:30Z</time>
      </trkpt>
      <trkpt lat="44.51596" lon="4.23507">
        <ele>418.31</ele>
        <time>2016-05-08T08:40:31Z</time>
      </trkpt>
      <trkpt lat="44.51595" lon="4.23514">
        <ele>417.83</ele>
        <time>2016-05-08T08:40:32Z</time>
      </trkpt>
      <trkpt lat="44.51596" lon="4.2352">
        <ele>417.35</ele>
        <time>2016-05-08T08:40:33Z</time>
      </trkpt>
      <trkpt lat="44.51595" lon="4.23532">
        <ele>416.39</ele>
        <time>2016-05-08T08:40:35Z</time>
      </trkpt>
      <trkpt lat="44.51595" lon="4.23539">
        <ele>416.39</ele>
        <time>2016-05-08T08:40:36Z</time>
      </trkpt>
      <trkpt lat="44.51594" lon="4.23545">
        <ele>415.91</ele>
        <time>2016-05-08T08:40:37Z</time>
      </trkpt>
      <trkpt lat="44.51596" lon="4.23571">
        <ele>413.5</ele>
        <time>2016-05-08T08:40:41Z</time>
      </trkpt>
      <trkpt lat="44.51598" lon="4.23575">
        <ele>413.02</ele>
        <time>2016-05-08T08:40:42Z</time>
      </trkpt>
      <trkpt lat="44.51598" lon="4.23579">
        <ele>413.02</ele>
        <time>2016-05-08T08:40:43Z</time>
      </trkpt>
      <trkpt lat="44.51597" lon="4.23583">
        <ele>413.02</ele>
        <time>2016-05-08T08:40:44Z</time>
      </trkpt>
      <trkpt lat="44.51595" lon="4.23586">
        <ele>413.02</ele>
        <time>2016-05-08T08:40:45Z</time>
      </trkpt>
      <trkpt lat="44.51593" lon="4.23589">
        <ele>412.54</ele>
        <time>2016-05-08T08:40:46Z</time>
      </trkpt>
      <trkpt lat="44.51584" lon="4.23599">
        <ele>412.06</ele>
        <time>2016-05-08T08:40:49Z</time>
      </trkpt>
      <trkpt lat="44.5158" lon="4.23603">
        <ele>411.58</ele>
        <time>2016-05-08T08:40:50Z</time>
      </trkpt>
      <trkpt lat="44.51577" lon="4.23606">
        <ele>411.58</ele>
        <time>2016-05-08T08:40:51Z</time>
      </trkpt>
      <trkpt lat="44.51574" lon="4.2361">
        <ele>411.58</ele>
        <time>2016-05-08T08:40:52Z</time>
      </trkpt>
      <trkpt lat="44.51571" lon="4.23613">
        <ele>411.1</ele>
        <time>2016-05-08T08:40:53Z</time>
      </trkpt>
      <trkpt lat="44.51568" lon="4.23616">
        <ele>411.1</ele>
        <time>2016-05-08T08:40:54Z</time>
      </trkpt>
      <trkpt lat="44.51565" lon="4.23619">
        <ele>410.62</ele>
        <time>2016-05-08T08:40:55Z</time>
      </trkpt>
      <trkpt lat="44.5154" lon="4.23644">
        <ele>407.74</ele>
        <time>2016-05-08T08:41:02Z</time>
      </trkpt>
      <trkpt lat="44.5152" lon="4.23662">
        <ele>405.33</ele>
        <time>2016-05-08T08:41:09Z</time>
      </trkpt>
      <trkpt lat="44.51515" lon="4.23664">
        <ele>404.85</ele>
        <time>2016-05-08T08:41:10Z</time>
      </trkpt>
      <trkpt lat="44.51511" lon="4.23666">
        <ele>404.85</ele>
        <time>2016-05-08T08:41:11Z</time>
      </trkpt>
      <trkpt lat="44.51506" lon="4.23669">
        <ele>404.37</ele>
        <time>2016-05-08T08:41:12Z</time>
      </trkpt>
      <trkpt lat="44.51502" lon="4.23674">
        <ele>404.37</ele>
        <time>2016-05-08T08:41:13Z</time>
      </trkpt>
      <trkpt lat="44.51498" lon="4.23675">
        <ele>403.89</ele>
        <time>2016-05-08T08:41:14Z</time>
      </trkpt>
      <trkpt lat="44.51494" lon="4.23676">
        <ele>403.89</ele>
        <time>2016-05-08T08:41:15Z</time>
      </trkpt>
      <trkpt lat="44.51488" lon="4.23678">
        <ele>403.41</ele>
        <time>2016-05-08T08:41:16Z</time>
      </trkpt>
      <trkpt lat="44.51483" lon="4.23679">
        <ele>402.93</ele>
        <time>2016-05-08T08:41:17Z</time>
      </trkpt>
      <trkpt lat="44.51478" lon="4.23681">
        <ele>402.45</ele>
        <time>2016-05-08T08:41:18Z</time>
      </trkpt>
      <trkpt lat="44.51468" lon="4.23687">
        <ele>401.97</ele>
        <time>2016-05-08T08:41:20Z</time>
      </trkpt>
      <trkpt lat="44.51459" lon="4.23696">
        <ele>401.01</ele>
        <time>2016-05-08T08:41:22Z</time>
      </trkpt>
      <trkpt lat="44.51455" lon="4.23698">
        <ele>400.53</ele>
        <time>2016-05-08T08:41:23Z</time>
      </trkpt>
      <trkpt lat="44.5145" lon="4.237">
        <ele>400.05</ele>
        <time>2016-05-08T08:41:24Z</time>
      </trkpt>
      <trkpt lat="44.51441" lon="4.23703">
        <ele>399.08</ele>
        <time>2016-05-08T08:41:26Z</time>
      </trkpt>
      <trkpt lat="44.51436" lon="4.23706">
        <ele>398.12</ele>
        <time>2016-05-08T08:41:27Z</time>
      </trkpt>
      <trkpt lat="44.51428" lon="4.23713">
        <ele>397.64</ele>
        <time>2016-05-08T08:41:29Z</time>
      </trkpt>
      <trkpt lat="44.51423" lon="4.23717">
        <ele>397.16</ele>
        <time>2016-05-08T08:41:30Z</time>
      </trkpt>
      <trkpt lat="44.5142" lon="4.23721">
        <ele>396.68</ele>
        <time>2016-05-08T08:41:31Z</time>
      </trkpt>
      <trkpt lat="44.51416" lon="4.23724">
        <ele>396.2</ele>
        <time>2016-05-08T08:41:32Z</time>
      </trkpt>
      <trkpt lat="44.51412" lon="4.23727">
        <ele>396.2</ele>
        <time>2016-05-08T08:41:33Z</time>
      </trkpt>
      <trkpt lat="44.51408" lon="4.2373">
        <ele>395.72</ele>
        <time>2016-05-08T08:41:34Z</time>
      </trkpt>
      <trkpt lat="44.51405" lon="4.23732">
        <ele>395.24</ele>
        <time>2016-05-08T08:41:35Z</time>
      </trkpt>
      <trkpt lat="44.51402" lon="4.23732">
        <ele>394.76</ele>
        <time>2016-05-08T08:41:36Z</time>
      </trkpt>
      <trkpt lat="44.51398" lon="4.23733">
        <ele>394.76</ele>
        <time>2016-05-08T08:41:37Z</time>
      </trkpt>
      <trkpt lat="44.51394" lon="4.23735">
        <ele>394.28</ele>
        <time>2016-05-08T08:41:38Z</time>
      </trkpt>
      <trkpt lat="44.51391" lon="4.23737">
        <ele>393.8</ele>
        <time>2016-05-08T08:41:39Z</time>
      </trkpt>
      <trkpt lat="44.51375" lon="4.23745">
        <ele>393.32</ele>
        <time>2016-05-08T08:41:43Z</time>
      </trkpt>
      <trkpt lat="44.51371" lon="4.23748">
        <ele>392.84</ele>
        <time>2016-05-08T08:41:44Z</time>
      </trkpt>
      <trkpt lat="44.51332" lon="4.23774">
        <ele>389.95</ele>
        <time>2016-05-08T08:41:54Z</time>
      </trkpt>
      <trkpt lat="44.51327" lon="4.23775">
        <ele>389.95</ele>
        <time>2016-05-08T08:41:55Z</time>
      </trkpt>
      <trkpt lat="44.51323" lon="4.23774">
        <ele>389.95</ele>
        <time>2016-05-08T08:41:56Z</time>
      </trkpt>
      <trkpt lat="44.51314" lon="4.23773">
        <ele>388.99</ele>
        <time>2016-05-08T08:41:58Z</time>
      </trkpt>
      <trkpt lat="44.51309" lon="4.23774">
        <ele>388.51</ele>
        <time>2016-05-08T08:41:59Z</time>
      </trkpt>
      <trkpt lat="44.5129" lon="4.2378">
        <ele>387.55</ele>
        <time>2016-05-08T08:42:03Z</time>
      </trkpt>
      <trkpt lat="44.51285" lon="4.23781">
        <ele>387.07</ele>
        <time>2016-05-08T08:42:04Z</time>
      </trkpt>
      <trkpt lat="44.51273" lon="4.23783">
        <ele>386.59</ele>
        <time>2016-05-08T08:42:07Z</time>
      </trkpt>
      <trkpt lat="44.51269" lon="4.23784">
        <ele>386.59</ele>
        <time>2016-05-08T08:42:08Z</time>
      </trkpt>
      <trkpt lat="44.5124" lon="4.23786">
        <ele>384.66</ele>
        <time>2016-05-08T08:42:15Z</time>
      </trkpt>
      <trkpt lat="44.51236" lon="4.23787">
        <ele>384.66</ele>
        <time>2016-05-08T08:42:16Z</time>
      </trkpt>
      <trkpt lat="44.51204" lon="4.2379">
        <ele>382.74</ele>
        <time>2016-05-08T08:42:24Z</time>
      </trkpt>
      <trkpt lat="44.51171" lon="4.23801">
        <ele>382.74</ele>
        <time>2016-05-08T08:42:34Z</time>
      </trkpt>
      <trkpt lat="44.5116" lon="4.23822">
        <ele>381.3</ele>
        <time>2016-05-08T08:42:40Z</time>
      </trkpt>
      <trkpt lat="44.5116" lon="4.23825">
        <ele>381.3</ele>
        <time>2016-05-08T08:42:41Z</time>
      </trkpt>
      <trkpt lat="44.51161" lon="4.23827">
        <ele>381.3</ele>
        <time>2016-05-08T08:42:42Z</time>
      </trkpt>
      <trkpt lat="44.51162" lon="4.23828">
        <ele>380.82</ele>
        <time>2016-05-08T08:42:43Z</time>
      </trkpt>
      <trkpt lat="44.51163" lon="4.2383">
        <ele>380.82</ele>
        <time>2016-05-08T08:42:44Z</time>
      </trkpt>
      <trkpt lat="44.51164" lon="4.23832">
        <ele>380.82</ele>
        <time>2016-05-08T08:42:45Z</time>
      </trkpt>
      <trkpt lat="44.51174" lon="4.23851">
        <ele>380.82</ele>
        <time>2016-05-08T08:42:54Z</time>
      </trkpt>
      <trkpt lat="44.51176" lon="4.23853">
        <ele>380.82</ele>
        <time>2016-05-08T08:42:55Z</time>
      </trkpt>
      <trkpt lat="44.51179" lon="4.23855">
        <ele>380.82</ele>
        <time>2016-05-08T08:42:56Z</time>
      </trkpt>
      <trkpt lat="44.51181" lon="4.23857">
        <ele>381.3</ele>
        <time>2016-05-08T08:42:57Z</time>
      </trkpt>
      <trkpt lat="44.51183" lon="4.23859">
        <ele>381.3</ele>
        <time>2016-05-08T08:42:58Z</time>
      </trkpt>
      <trkpt lat="44.51198" lon="4.2388">
        <ele>381.78</ele>
        <time>2016-05-08T08:43:08Z</time>
      </trkpt>
      <trkpt lat="44.51208" lon="4.23893">
        <ele>382.26</ele>
        <time>2016-05-08T08:43:14Z</time>
      </trkpt>
      <trkpt lat="44.51214" lon="4.23898">
        <ele>382.26</ele>
        <time>2016-05-08T08:43:18Z</time>
      </trkpt>
      <trkpt lat="44.51216" lon="4.239">
        <ele>382.26</ele>
        <time>2016-05-08T08:43:19Z</time>
      </trkpt>
      <trkpt lat="44.51218" lon="4.23903">
        <ele>382.26</ele>
        <time>2016-05-08T08:43:20Z</time>
      </trkpt>
      <trkpt lat="44.51247" lon="4.2395">
        <ele>380.82</ele>
        <time>2016-05-08T08:43:31Z</time>
      </trkpt>
      <trkpt lat="44.5125" lon="4.23956">
        <ele>380.34</ele>
        <time>2016-05-08T08:43:32Z</time>
      </trkpt>
      <trkpt lat="44.51263" lon="4.23984">
        <ele>379.38</ele>
        <time>2016-05-08T08:43:36Z</time>
      </trkpt>
      <trkpt lat="44.5127" lon="4.24007">
        <ele>378.9</ele>
        <time>2016-05-08T08:43:39Z</time>
      </trkpt>
      <trkpt lat="44.51273" lon="4.24013">
        <ele>377.94</ele>
        <time>2016-05-08T08:43:40Z</time>
      </trkpt>
      <trkpt lat="44.51276" lon="4.2402">
        <ele>377.45</ele>
        <time>2016-05-08T08:43:41Z</time>
      </trkpt>
      <trkpt lat="44.5128" lon="4.24027">
        <ele>377.45</ele>
        <time>2016-05-08T08:43:42Z</time>
      </trkpt>
      <trkpt lat="44.51284" lon="4.24034">
        <ele>377.45</ele>
        <time>2016-05-08T08:43:43Z</time>
      </trkpt>
      <trkpt lat="44.51302" lon="4.24064">
        <ele>376.49</ele>
        <time>2016-05-08T08:43:48Z</time>
      </trkpt>
      <trkpt lat="44.51308" lon="4.24079">
        <ele>376.01</ele>
        <time>2016-05-08T08:43:50Z</time>
      </trkpt>
      <trkpt lat="44.51311" lon="4.24087">
        <ele>376.01</ele>
        <time>2016-05-08T08:43:51Z</time>
      </trkpt>
      <trkpt lat="44.51312" lon="4.24095">
        <ele>375.53</ele>
        <time>2016-05-08T08:43:52Z</time>
      </trkpt>
      <trkpt lat="44.51313" lon="4.24104">
        <ele>375.05</ele>
        <time>2016-05-08T08:43:53Z</time>
      </trkpt>
      <trkpt lat="44.51314" lon="4.24113">
        <ele>375.05</ele>
        <time>2016-05-08T08:43:54Z</time>
      </trkpt>
      <trkpt lat="44.51314" lon="4.24121">
        <ele>375.05</ele>
        <time>2016-05-08T08:43:55Z</time>
      </trkpt>
      <trkpt lat="44.51313" lon="4.2413">
        <ele>375.05</ele>
        <time>2016-05-08T08:43:56Z</time>
      </trkpt>
      <trkpt lat="44.51312" lon="4.24139">
        <ele>374.57</ele>
        <time>2016-05-08T08:43:57Z</time>
      </trkpt>
      <trkpt lat="44.5131" lon="4.24177">
        <ele>373.61</ele>
        <time>2016-05-08T08:44:02Z</time>
      </trkpt>
      <trkpt lat="44.51311" lon="4.24214">
        <ele>372.65</ele>
        <time>2016-05-08T08:44:06Z</time>
      </trkpt>
      <trkpt lat="44.51311" lon="4.24258">
        <ele>372.17</ele>
        <time>2016-05-08T08:44:10Z</time>
      </trkpt>
      <trkpt lat="44.51312" lon="4.24268">
        <ele>371.69</ele>
        <time>2016-05-08T08:44:11Z</time>
      </trkpt>
      <trkpt lat="44.51313" lon="4.24277">
        <ele>371.69</ele>
        <time>2016-05-08T08:44:12Z</time>
      </trkpt>
      <trkpt lat="44.51311" lon="4.24396">
        <ele>369.76</ele>
        <time>2016-05-08T08:44:22Z</time>
      </trkpt>
      <trkpt lat="44.51308" lon="4.24418">
        <ele>369.28</ele>
        <time>2016-05-08T08:44:24Z</time>
      </trkpt>
      <trkpt lat="44.51307" lon="4.24428">
        <ele>368.8</ele>
        <time>2016-05-08T08:44:25Z</time>
      </trkpt>
      <trkpt lat="44.51306" lon="4.24438">
        <ele>368.32</ele>
        <time>2016-05-08T08:44:26Z</time>
      </trkpt>
      <trkpt lat="44.51296" lon="4.24492">
        <ele>364.96</ele>
        <time>2016-05-08T08:44:31Z</time>
      </trkpt>
      <trkpt lat="44.51296" lon="4.24503">
        <ele>364</ele>
        <time>2016-05-08T08:44:32Z</time>
      </trkpt>
      <trkpt lat="44.51298" lon="4.24525">
        <ele>363.04</ele>
        <time>2016-05-08T08:44:34Z</time>
      </trkpt>
      <trkpt lat="44.51298" lon="4.24537">
        <ele>362.55</ele>
        <time>2016-05-08T08:44:35Z</time>
      </trkpt>
      <trkpt lat="44.51297" lon="4.24549">
        <ele>362.07</ele>
        <time>2016-05-08T08:44:36Z</time>
      </trkpt>
      <trkpt lat="44.51296" lon="4.24561">
        <ele>361.59</ele>
        <time>2016-05-08T08:44:37Z</time>
      </trkpt>
      <trkpt lat="44.51296" lon="4.24573">
        <ele>361.11</ele>
        <time>2016-05-08T08:44:38Z</time>
      </trkpt>
      <trkpt lat="44.51295" lon="4.24646">
        <ele>358.71</ele>
        <time>2016-05-08T08:44:45Z</time>
      </trkpt>
      <trkpt lat="44.51294" lon="4.24654">
        <ele>358.23</ele>
        <time>2016-05-08T08:44:46Z</time>
      </trkpt>
      <trkpt lat="44.51294" lon="4.24663">
        <ele>357.75</ele>
        <time>2016-05-08T08:44:47Z</time>
      </trkpt>
      <trkpt lat="44.51295" lon="4.24672">
        <ele>357.75</ele>
        <time>2016-05-08T08:44:48Z</time>
      </trkpt>
      <trkpt lat="44.51297" lon="4.2468">
        <ele>357.27</ele>
        <time>2016-05-08T08:44:49Z</time>
      </trkpt>
      <trkpt lat="44.51299" lon="4.24688">
        <ele>357.27</ele>
        <time>2016-05-08T08:44:50Z</time>
      </trkpt>
      <trkpt lat="44.51301" lon="4.24695">
        <ele>357.27</ele>
        <time>2016-05-08T08:44:51Z</time>
      </trkpt>
      <trkpt lat="44.51306" lon="4.24718">
        <ele>356.79</ele>
        <time>2016-05-08T08:44:54Z</time>
      </trkpt>
      <trkpt lat="44.51319" lon="4.24769">
        <ele>357.27</ele>
        <time>2016-05-08T08:45:01Z</time>
      </trkpt>
      <trkpt lat="44.51321" lon="4.24776">
        <ele>357.27</ele>
        <time>2016-05-08T08:45:02Z</time>
      </trkpt>
      <trkpt lat="44.51322" lon="4.24783">
        <ele>357.27</ele>
        <time>2016-05-08T08:45:03Z</time>
      </trkpt>
      <trkpt lat="44.51341" lon="4.24832">
        <ele>358.71</ele>
        <time>2016-05-08T08:45:14Z</time>
      </trkpt>
      <trkpt lat="44.51365" lon="4.24874">
        <ele>359.19</ele>
        <time>2016-05-08T08:45:27Z</time>
      </trkpt>
      <trkpt lat="44.51381" lon="4.24923">
        <ele>359.67</ele>
        <time>2016-05-08T08:45:38Z</time>
      </trkpt>
      <trkpt lat="44.51402" lon="4.24965">
        <ele>359.19</ele>
        <time>2016-05-08T08:45:49Z</time>
      </trkpt>
      <trkpt lat="44.51403" lon="4.24967">
        <ele>359.19</ele>
        <time>2016-05-08T08:45:50Z</time>
      </trkpt>
      <trkpt lat="44.5142" lon="4.25002">
        <ele>358.23</ele>
        <time>2016-05-08T08:45:58Z</time>
      </trkpt>
      <trkpt lat="44.51428" lon="4.25022">
        <ele>357.75</ele>
        <time>2016-05-08T08:46:01Z</time>
      </trkpt>
      <trkpt lat="44.51443" lon="4.25048">
        <ele>357.27</ele>
        <time>2016-05-08T08:46:05Z</time>
      </trkpt>
      <trkpt lat="44.51448" lon="4.25057">
        <ele>356.79</ele>
        <time>2016-05-08T08:46:06Z</time>
      </trkpt>
      <trkpt lat="44.51453" lon="4.25061">
        <ele>356.79</ele>
        <time>2016-05-08T08:46:07Z</time>
      </trkpt>
      <trkpt lat="44.51457" lon="4.25064">
        <ele>356.79</ele>
        <time>2016-05-08T08:46:08Z</time>
      </trkpt>
      <trkpt lat="44.51462" lon="4.25072">
        <ele>356.31</ele>
        <time>2016-05-08T08:46:09Z</time>
      </trkpt>
      <trkpt lat="44.51467" lon="4.25079">
        <ele>356.31</ele>
        <time>2016-05-08T08:46:10Z</time>
      </trkpt>
      <trkpt lat="44.51479" lon="4.25087">
        <ele>355.83</ele>
        <time>2016-05-08T08:46:12Z</time>
      </trkpt>
      <trkpt lat="44.51483" lon="4.25098">
        <ele>355.34</ele>
        <time>2016-05-08T08:46:13Z</time>
      </trkpt>
      <trkpt lat="44.51498" lon="4.25117">
        <ele>355.34</ele>
        <time>2016-05-08T08:46:16Z</time>
      </trkpt>
      <trkpt lat="44.51519" lon="4.25145">
        <ele>354.38</ele>
        <time>2016-05-08T08:46:21Z</time>
      </trkpt>
      <trkpt lat="44.51521" lon="4.25151">
        <ele>354.38</ele>
        <time>2016-05-08T08:46:22Z</time>
      </trkpt>
      <trkpt lat="44.51522" lon="4.25157">
        <ele>353.9</ele>
        <time>2016-05-08T08:46:23Z</time>
      </trkpt>
      <trkpt lat="44.51525" lon="4.25182">
        <ele>353.9</ele>
        <time>2016-05-08T08:46:27Z</time>
      </trkpt>
      <trkpt lat="44.51527" lon="4.25189">
        <ele>353.42</ele>
        <time>2016-05-08T08:46:28Z</time>
      </trkpt>
      <trkpt lat="44.51531" lon="4.25197">
        <ele>352.94</ele>
        <time>2016-05-08T08:46:29Z</time>
      </trkpt>
      <trkpt lat="44.51535" lon="4.25207">
        <ele>352.46</ele>
        <time>2016-05-08T08:46:30Z</time>
      </trkpt>
      <trkpt lat="44.51539" lon="4.25218">
        <ele>352.46</ele>
        <time>2016-05-08T08:46:31Z</time>
      </trkpt>
      <trkpt lat="44.51578" lon="4.25295">
        <ele>349.58</ele>
        <time>2016-05-08T08:46:39Z</time>
      </trkpt>
      <trkpt lat="44.51592" lon="4.25314">
        <ele>348.13</ele>
        <time>2016-05-08T08:46:41Z</time>
      </trkpt>
      <trkpt lat="44.51599" lon="4.25322">
        <ele>347.17</ele>
        <time>2016-05-08T08:46:42Z</time>
      </trkpt>
      <trkpt lat="44.51607" lon="4.25328">
        <ele>346.69</ele>
        <time>2016-05-08T08:46:43Z</time>
      </trkpt>
      <trkpt lat="44.51615" lon="4.25333">
        <ele>346.21</ele>
        <time>2016-05-08T08:46:44Z</time>
      </trkpt>
      <trkpt lat="44.51623" lon="4.25337">
        <ele>345.73</ele>
        <time>2016-05-08T08:46:45Z</time>
      </trkpt>
      <trkpt lat="44.5163" lon="4.2534">
        <ele>345.73</ele>
        <time>2016-05-08T08:46:46Z</time>
      </trkpt>
      <trkpt lat="44.51637" lon="4.25342">
        <ele>345.73</ele>
        <time>2016-05-08T08:46:47Z</time>
      </trkpt>
      <trkpt lat="44.51644" lon="4.25343">
        <ele>345.73</ele>
        <time>2016-05-08T08:46:48Z</time>
      </trkpt>
      <trkpt lat="44.51651" lon="4.25344">
        <ele>345.25</ele>
        <time>2016-05-08T08:46:49Z</time>
      </trkpt>
      <trkpt lat="44.51658" lon="4.25344">
        <ele>345.25</ele>
        <time>2016-05-08T08:46:50Z</time>
      </trkpt>
      <trkpt lat="44.51664" lon="4.25344">
        <ele>345.25</ele>
        <time>2016-05-08T08:46:51Z</time>
      </trkpt>
      <trkpt lat="44.51671" lon="4.25342">
        <ele>344.77</ele>
        <time>2016-05-08T08:46:52Z</time>
      </trkpt>
      <trkpt lat="44.51677" lon="4.2534">
        <ele>343.81</ele>
        <time>2016-05-08T08:46:53Z</time>
      </trkpt>
      <trkpt lat="44.5169" lon="4.2534">
        <ele>342.85</ele>
        <time>2016-05-08T08:46:55Z</time>
      </trkpt>
      <trkpt lat="44.51697" lon="4.25343">
        <ele>342.37</ele>
        <time>2016-05-08T08:46:56Z</time>
      </trkpt>
      <trkpt lat="44.51703" lon="4.25348">
        <ele>342.37</ele>
        <time>2016-05-08T08:46:57Z</time>
      </trkpt>
      <trkpt lat="44.51709" lon="4.25352">
        <ele>342.37</ele>
        <time>2016-05-08T08:46:58Z</time>
      </trkpt>
      <trkpt lat="44.51715" lon="4.25356">
        <ele>341.89</ele>
        <time>2016-05-08T08:46:59Z</time>
      </trkpt>
      <trkpt lat="44.51721" lon="4.25361">
        <ele>341.41</ele>
        <time>2016-05-08T08:47:00Z</time>
      </trkpt>
      <trkpt lat="44.51772" lon="4.25399">
        <ele>342.85</ele>
        <time>2016-05-08T08:47:09Z</time>
      </trkpt>
      <trkpt lat="44.51776" lon="4.25403">
        <ele>342.85</ele>
        <time>2016-05-08T08:47:10Z</time>
      </trkpt>
      <trkpt lat="44.518" lon="4.25431">
        <ele>343.81</ele>
        <time>2016-05-08T08:47:16Z</time>
      </trkpt>
      <trkpt lat="44.51804" lon="4.25435">
        <ele>343.81</ele>
        <time>2016-05-08T08:47:17Z</time>
      </trkpt>
      <trkpt lat="44.51807" lon="4.2544">
        <ele>344.29</ele>
        <time>2016-05-08T08:47:18Z</time>
      </trkpt>
      <trkpt lat="44.5181" lon="4.25446">
        <ele>344.29</ele>
        <time>2016-05-08T08:47:19Z</time>
      </trkpt>
      <trkpt lat="44.51812" lon="4.25452">
        <ele>344.77</ele>
        <time>2016-05-08T08:47:20Z</time>
      </trkpt>
      <trkpt lat="44.51814" lon="4.25458">
        <ele>345.25</ele>
        <time>2016-05-08T08:47:21Z</time>
      </trkpt>
      <trkpt lat="44.51818" lon="4.25471">
        <ele>345.25</ele>
        <time>2016-05-08T08:47:23Z</time>
      </trkpt>
      <trkpt lat="44.51819" lon="4.25477">
        <ele>345.25</ele>
        <time>2016-05-08T08:47:24Z</time>
      </trkpt>
      <trkpt lat="44.51833" lon="4.25521">
        <ele>346.21</ele>
        <time>2016-05-08T08:47:32Z</time>
      </trkpt>
      <trkpt lat="44.51838" lon="4.25547">
        <ele>347.17</ele>
        <time>2016-05-08T08:47:36Z</time>
      </trkpt>
      <trkpt lat="44.51839" lon="4.25588">
        <ele>351.02</ele>
        <time>2016-05-08T08:47:45Z</time>
      </trkpt>
      <trkpt lat="44.51846" lon="4.256">
        <ele>350.54</ele>
        <time>2016-05-08T08:47:50Z</time>
      </trkpt>
      <trkpt lat="44.51858" lon="4.25636">
        <ele>350.54</ele>
        <time>2016-05-08T08:48:02Z</time>
      </trkpt>
      <trkpt lat="44.51877" lon="4.25662">
        <ele>350.06</ele>
        <time>2016-05-08T08:48:15Z</time>
      </trkpt>
      <trkpt lat="44.51877" lon="4.25663">
        <ele>350.06</ele>
        <time>2016-05-08T08:48:17Z</time>
      </trkpt>
      <trkpt lat="44.51881" lon="4.25659">
        <ele>349.58</ele>
        <time>2016-05-08T08:48:22Z</time>
      </trkpt>
      <trkpt lat="44.51877" lon="4.25663">
        <ele>350.06</ele>
        <time>2016-05-08T08:48:32Z</time>
      </trkpt>
      <trkpt lat="44.51877" lon="4.25663">
        <ele>350.06</ele>
        <time>2016-05-08T08:48:56Z</time>
      </trkpt>
      <trkpt lat="44.51877" lon="4.25663">
        <ele>349.58</ele>
        <time>2016-05-08T08:49:22Z</time>
      </trkpt>
      <trkpt lat="44.51877" lon="4.25663">
        <ele>349.58</ele>
        <time>2016-05-08T08:49:48Z</time>
      </trkpt>
      <trkpt lat="44.51877" lon="4.25663">
        <ele>349.58</ele>
        <time>2016-05-08T08:50:07Z</time>
      </trkpt>
      <trkpt lat="44.51877" lon="4.25663">
        <ele>349.58</ele>
        <time>2016-05-08T08:50:13Z</time>
      </trkpt>
      <trkpt lat="44.51879" lon="4.25666">
        <ele>349.58</ele>
        <time>2016-05-08T08:50:15Z</time>
      </trkpt>
      <trkpt lat="44.51882" lon="4.25674">
        <ele>349.58</ele>
        <time>2016-05-08T08:50:17Z</time>
      </trkpt>
      <trkpt lat="44.51891" lon="4.25719">
        <ele>348.13</ele>
        <time>2016-05-08T08:50:24Z</time>
      </trkpt>
      <trkpt lat="44.51891" lon="4.25726">
        <ele>347.65</ele>
        <time>2016-05-08T08:50:25Z</time>
      </trkpt>
      <trkpt lat="44.51889" lon="4.25733">
        <ele>347.17</ele>
        <time>2016-05-08T08:50:26Z</time>
      </trkpt>
      <trkpt lat="44.51886" lon="4.2574">
        <ele>347.17</ele>
        <time>2016-05-08T08:50:27Z</time>
      </trkpt>
      <trkpt lat="44.51878" lon="4.25758">
        <ele>343.81</ele>
        <time>2016-05-08T08:50:30Z</time>
      </trkpt>
      <trkpt lat="44.51874" lon="4.25769">
        <ele>341.89</ele>
        <time>2016-05-08T08:50:32Z</time>
      </trkpt>
      <trkpt lat="44.51871" lon="4.25775">
        <ele>340.92</ele>
        <time>2016-05-08T08:50:33Z</time>
      </trkpt>
      <trkpt lat="44.51858" lon="4.25802">
        <ele>338.04</ele>
        <time>2016-05-08T08:50:37Z</time>
      </trkpt>
      <trkpt lat="44.51846" lon="4.25832">
        <ele>334.68</ele>
        <time>2016-05-08T08:50:41Z</time>
      </trkpt>
      <trkpt lat="44.51844" lon="4.2584">
        <ele>333.71</ele>
        <time>2016-05-08T08:50:42Z</time>
      </trkpt>
      <trkpt lat="44.51841" lon="4.25846">
        <ele>332.27</ele>
        <time>2016-05-08T08:50:43Z</time>
      </trkpt>
      <trkpt lat="44.51837" lon="4.25852">
        <ele>331.79</ele>
        <time>2016-05-08T08:50:44Z</time>
      </trkpt>
      <trkpt lat="44.51832" lon="4.25858">
        <ele>331.79</ele>
        <time>2016-05-08T08:50:45Z</time>
      </trkpt>
      <trkpt lat="44.51828" lon="4.25865">
        <ele>330.83</ele>
        <time>2016-05-08T08:50:46Z</time>
      </trkpt>
      <trkpt lat="44.51824" lon="4.25872">
        <ele>330.35</ele>
        <time>2016-05-08T08:50:47Z</time>
      </trkpt>
      <trkpt lat="44.5182" lon="4.25881">
        <ele>329.39</ele>
        <time>2016-05-08T08:50:48Z</time>
      </trkpt>
      <trkpt lat="44.51816" lon="4.2589">
        <ele>328.43</ele>
        <time>2016-05-08T08:50:49Z</time>
      </trkpt>
      <trkpt lat="44.5181" lon="4.25909">
        <ele>327.47</ele>
        <time>2016-05-08T08:50:51Z</time>
      </trkpt>
      <trkpt lat="44.51786" lon="4.25972">
        <ele>326.5</ele>
        <time>2016-05-08T08:50:58Z</time>
      </trkpt>
      <trkpt lat="44.51782" lon="4.2598">
        <ele>326.99</ele>
        <time>2016-05-08T08:50:59Z</time>
      </trkpt>
      <trkpt lat="44.5178" lon="4.25988">
        <ele>326.99</ele>
        <time>2016-05-08T08:51:00Z</time>
      </trkpt>
      <trkpt lat="44.51778" lon="4.25996">
        <ele>326.99</ele>
        <time>2016-05-08T08:51:01Z</time>
      </trkpt>
      <trkpt lat="44.51777" lon="4.26004">
        <ele>326.99</ele>
        <time>2016-05-08T08:51:02Z</time>
      </trkpt>
      <trkpt lat="44.5177" lon="4.26038">
        <ele>326.02</ele>
        <time>2016-05-08T08:51:06Z</time>
      </trkpt>
      <trkpt lat="44.51763" lon="4.26053">
        <ele>325.06</ele>
        <time>2016-05-08T08:51:08Z</time>
      </trkpt>
      <trkpt lat="44.51761" lon="4.26059">
        <ele>324.58</ele>
        <time>2016-05-08T08:51:09Z</time>
      </trkpt>
      <trkpt lat="44.5176" lon="4.26066">
        <ele>324.1</ele>
        <time>2016-05-08T08:51:10Z</time>
      </trkpt>
      <trkpt lat="44.5176" lon="4.26072">
        <ele>323.62</ele>
        <time>2016-05-08T08:51:11Z</time>
      </trkpt>
      <trkpt lat="44.51759" lon="4.26077">
        <ele>323.14</ele>
        <time>2016-05-08T08:51:12Z</time>
      </trkpt>
      <trkpt lat="44.51757" lon="4.26083">
        <ele>322.66</ele>
        <time>2016-05-08T08:51:13Z</time>
      </trkpt>
      <trkpt lat="44.51753" lon="4.26101">
        <ele>321.22</ele>
        <time>2016-05-08T08:51:16Z</time>
      </trkpt>
      <trkpt lat="44.51755" lon="4.26115">
        <ele>319.3</ele>
        <time>2016-05-08T08:51:19Z</time>
      </trkpt>
      <trkpt lat="44.5176" lon="4.26124">
        <ele>317.85</ele>
        <time>2016-05-08T08:51:21Z</time>
      </trkpt>
      <trkpt lat="44.51763" lon="4.26129">
        <ele>317.37</ele>
        <time>2016-05-08T08:51:22Z</time>
      </trkpt>
      <trkpt lat="44.51783" lon="4.26154">
        <ele>314.01</ele>
        <time>2016-05-08T08:51:27Z</time>
      </trkpt>
      <trkpt lat="44.51792" lon="4.26184">
        <ele>310.64</ele>
        <time>2016-05-08T08:51:32Z</time>
      </trkpt>
      <trkpt lat="44.51794" lon="4.26207">
        <ele>309.68</ele>
        <time>2016-05-08T08:51:35Z</time>
      </trkpt>
      <trkpt lat="44.51806" lon="4.26249">
        <ele>308.24</ele>
        <time>2016-05-08T08:51:40Z</time>
      </trkpt>
      <trkpt lat="44.51821" lon="4.26278">
        <ele>306.8</ele>
        <time>2016-05-08T08:51:44Z</time>
      </trkpt>
      <trkpt lat="44.5183" lon="4.26287">
        <ele>306.32</ele>
        <time>2016-05-08T08:51:46Z</time>
      </trkpt>
      <trkpt lat="44.51842" lon="4.26337">
        <ele>302.95</ele>
        <time>2016-05-08T08:51:54Z</time>
      </trkpt>
      <trkpt lat="44.51832" lon="4.26355">
        <ele>299.59</ele>
        <time>2016-05-08T08:51:58Z</time>
      </trkpt>
      <trkpt lat="44.51816" lon="4.26355">
        <ele>296.22</ele>
        <time>2016-05-08T08:52:06Z</time>
      </trkpt>
      <trkpt lat="44.51816" lon="4.26355">
        <ele>295.74</ele>
        <time>2016-05-08T08:52:09Z</time>
      </trkpt>
      <trkpt lat="44.51815" lon="4.26352">
        <ele>296.22</ele>
        <time>2016-05-08T08:52:15Z</time>
      </trkpt>
      <trkpt lat="44.51805" lon="4.26346">
        <ele>295.26</ele>
        <time>2016-05-08T08:52:25Z</time>
      </trkpt>
      <trkpt lat="44.51804" lon="4.26345">
        <ele>295.26</ele>
        <time>2016-05-08T08:52:26Z</time>
      </trkpt>
      <trkpt lat="44.51788" lon="4.26319">
        <ele>295.74</ele>
        <time>2016-05-08T08:52:36Z</time>
      </trkpt>
      <trkpt lat="44.51788" lon="4.26309">
        <ele>297.18</ele>
        <time>2016-05-08T08:52:40Z</time>
      </trkpt>
      <trkpt lat="44.51778" lon="4.26275">
        <ele>299.11</ele>
        <time>2016-05-08T08:52:53Z</time>
      </trkpt>
      <trkpt lat="44.51771" lon="4.26257">
        <ele>299.11</ele>
        <time>2016-05-08T08:52:59Z</time>
      </trkpt>
      <trkpt lat="44.51761" lon="4.26239">
        <ele>298.63</ele>
        <time>2016-05-08T08:53:05Z</time>
      </trkpt>
      <trkpt lat="44.5174" lon="4.26215">
        <ele>295.26</ele>
        <time>2016-05-08T08:53:11Z</time>
      </trkpt>
      <trkpt lat="44.5172" lon="4.26189">
        <ele>292.86</ele>
        <time>2016-05-08T08:53:19Z</time>
      </trkpt>
      <trkpt lat="44.51699" lon="4.26166">
        <ele>294.78</ele>
        <time>2016-05-08T08:53:30Z</time>
      </trkpt>
      <trkpt lat="44.51694" lon="4.26159">
        <ele>295.26</ele>
        <time>2016-05-08T08:53:34Z</time>
      </trkpt>
      <trkpt lat="44.51666" lon="4.26154">
        <ele>292.38</ele>
        <time>2016-05-08T08:53:43Z</time>
      </trkpt>
      <trkpt lat="44.51653" lon="4.26152">
        <ele>290.94</ele>
        <time>2016-05-08T08:53:46Z</time>
      </trkpt>
      <trkpt lat="44.51647" lon="4.26149">
        <ele>290.46</ele>
        <time>2016-05-08T08:53:48Z</time>
      </trkpt>
      <trkpt lat="44.51635" lon="4.2615">
        <ele>289.97</ele>
        <time>2016-05-08T08:53:52Z</time>
      </trkpt>
      <trkpt lat="44.5159" lon="4.26131">
        <ele>290.94</ele>
        <time>2016-05-08T08:54:05Z</time>
      </trkpt>
      <trkpt lat="44.51553" lon="4.26131">
        <ele>292.86</ele>
        <time>2016-05-08T08:54:15Z</time>
      </trkpt>
      <trkpt lat="44.5151" lon="4.26136">
        <ele>293.82</ele>
        <time>2016-05-08T08:54:25Z</time>
      </trkpt>
      <trkpt lat="44.51483" lon="4.26143">
        <ele>293.34</ele>
        <time>2016-05-08T08:54:36Z</time>
      </trkpt>
      <trkpt lat="44.51481" lon="4.26145">
        <ele>293.34</ele>
        <time>2016-05-08T08:54:37Z</time>
      </trkpt>
      <trkpt lat="44.5148" lon="4.26148">
        <ele>292.86</ele>
        <time>2016-05-08T08:54:38Z</time>
      </trkpt>
      <trkpt lat="44.51481" lon="4.26149">
        <ele>292.86</ele>
        <time>2016-05-08T08:54:42Z</time>
      </trkpt>
      <trkpt lat="44.51481" lon="4.26152">
        <ele>292.86</ele>
        <time>2016-05-08T08:54:43Z</time>
      </trkpt>
      <trkpt lat="44.51481" lon="4.26156">
        <ele>292.86</ele>
        <time>2016-05-08T08:54:45Z</time>
      </trkpt>
      <trkpt lat="44.51482" lon="4.2616">
        <ele>291.9</ele>
        <time>2016-05-08T08:54:57Z</time>
      </trkpt>
      <trkpt lat="44.51482" lon="4.2616">
        <ele>292.38</ele>
        <time>2016-05-08T08:55:29Z</time>
      </trkpt>
      <trkpt lat="44.51479" lon="4.26155">
        <ele>291.9</ele>
        <time>2016-05-08T08:55:40Z</time>
      </trkpt>
      <trkpt lat="44.51479" lon="4.26155">
        <ele>292.86</ele>
        <time>2016-05-08T08:55:41Z</time>
      </trkpt>
      <trkpt lat="44.51478" lon="4.26155">
        <ele>292.86</ele>
        <time>2016-05-08T08:55:42Z</time>
      </trkpt>
      <trkpt lat="44.51476" lon="4.26154">
        <ele>292.86</ele>
        <time>2016-05-08T08:55:43Z</time>
      </trkpt>
      <trkpt lat="44.51475" lon="4.26154">
        <ele>292.38</ele>
        <time>2016-05-08T08:55:44Z</time>
      </trkpt>
      <trkpt lat="44.51458" lon="4.2617">
        <ele>291.9</ele>
        <time>2016-05-08T08:55:54Z</time>
      </trkpt>
      <trkpt lat="44.51452" lon="4.26178">
        <ele>291.9</ele>
        <time>2016-05-08T08:55:56Z</time>
      </trkpt>
      <trkpt lat="44.5145" lon="4.26183">
        <ele>291.42</ele>
        <time>2016-05-08T08:55:57Z</time>
      </trkpt>
      <trkpt lat="44.51447" lon="4.26187">
        <ele>291.42</ele>
        <time>2016-05-08T08:55:58Z</time>
      </trkpt>
      <trkpt lat="44.51439" lon="4.2621">
        <ele>290.46</ele>
        <time>2016-05-08T08:56:02Z</time>
      </trkpt>
      <trkpt lat="44.51437" lon="4.26217">
        <ele>289.97</ele>
        <time>2016-05-08T08:56:03Z</time>
      </trkpt>
      <trkpt lat="44.51434" lon="4.26246">
        <ele>289.49</ele>
        <time>2016-05-08T08:56:07Z</time>
      </trkpt>
      <trkpt lat="44.51433" lon="4.26253">
        <ele>289.49</ele>
        <time>2016-05-08T08:56:08Z</time>
      </trkpt>
      <trkpt lat="44.51433" lon="4.26307">
        <ele>288.53</ele>
        <time>2016-05-08T08:56:17Z</time>
      </trkpt>
      <trkpt lat="44.51434" lon="4.26313">
        <ele>288.53</ele>
        <time>2016-05-08T08:56:18Z</time>
      </trkpt>
      <trkpt lat="44.51435" lon="4.26318">
        <ele>288.53</ele>
        <time>2016-05-08T08:56:19Z</time>
      </trkpt>
      <trkpt lat="44.51436" lon="4.26324">
        <ele>288.53</ele>
        <time>2016-05-08T08:56:20Z</time>
      </trkpt>
      <trkpt lat="44.51437" lon="4.2633">
        <ele>288.05</ele>
        <time>2016-05-08T08:56:21Z</time>
      </trkpt>
      <trkpt lat="44.51436" lon="4.26336">
        <ele>288.05</ele>
        <time>2016-05-08T08:56:22Z</time>
      </trkpt>
      <trkpt lat="44.51436" lon="4.26342">
        <ele>287.57</ele>
        <time>2016-05-08T08:56:23Z</time>
      </trkpt>
      <trkpt lat="44.51435" lon="4.26349">
        <ele>287.57</ele>
        <time>2016-05-08T08:56:24Z</time>
      </trkpt>
      <trkpt lat="44.51428" lon="4.26403">
        <ele>284.69</ele>
        <time>2016-05-08T08:56:31Z</time>
      </trkpt>
      <trkpt lat="44.51427" lon="4.26411">
        <ele>284.69</ele>
        <time>2016-05-08T08:56:32Z</time>
      </trkpt>
      <trkpt lat="44.51424" lon="4.26419">
        <ele>283.73</ele>
        <time>2016-05-08T08:56:33Z</time>
      </trkpt>
      <trkpt lat="44.51421" lon="4.26427">
        <ele>282.77</ele>
        <time>2016-05-08T08:56:34Z</time>
      </trkpt>
      <trkpt lat="44.51416" lon="4.26434">
        <ele>282.77</ele>
        <time>2016-05-08T08:56:35Z</time>
      </trkpt>
      <trkpt lat="44.51398" lon="4.2646">
        <ele>281.8</ele>
        <time>2016-05-08T08:56:39Z</time>
      </trkpt>
      <trkpt lat="44.51394" lon="4.26465">
        <ele>281.8</ele>
        <time>2016-05-08T08:56:40Z</time>
      </trkpt>
      <trkpt lat="44.51389" lon="4.26471">
        <ele>281.8</ele>
        <time>2016-05-08T08:56:41Z</time>
      </trkpt>
      <trkpt lat="44.51362" lon="4.26497">
        <ele>281.32</ele>
        <time>2016-05-08T08:56:46Z</time>
      </trkpt>
      <trkpt lat="44.51357" lon="4.26501">
        <ele>281.32</ele>
        <time>2016-05-08T08:56:47Z</time>
      </trkpt>
      <trkpt lat="44.51338" lon="4.26518">
        <ele>281.32</ele>
        <time>2016-05-08T08:56:51Z</time>
      </trkpt>
      <trkpt lat="44.51321" lon="4.26531">
        <ele>280.84</ele>
        <time>2016-05-08T08:56:54Z</time>
      </trkpt>
      <trkpt lat="44.51302" lon="4.26542">
        <ele>278.92</ele>
        <time>2016-05-08T08:56:57Z</time>
      </trkpt>
      <trkpt lat="44.51289" lon="4.26548">
        <ele>278.92</ele>
        <time>2016-05-08T08:56:59Z</time>
      </trkpt>
      <trkpt lat="44.51272" lon="4.26556">
        <ele>278.44</ele>
        <time>2016-05-08T08:57:02Z</time>
      </trkpt>
      <trkpt lat="44.51266" lon="4.26557">
        <ele>278.44</ele>
        <time>2016-05-08T08:57:03Z</time>
      </trkpt>
      <trkpt lat="44.51261" lon="4.26556">
        <ele>278.44</ele>
        <time>2016-05-08T08:57:04Z</time>
      </trkpt>
      <trkpt lat="44.51256" lon="4.26555">
        <ele>279.4</ele>
        <time>2016-05-08T08:57:05Z</time>
      </trkpt>
      <trkpt lat="44.51252" lon="4.26555">
        <ele>279.4</ele>
        <time>2016-05-08T08:57:06Z</time>
      </trkpt>
      <trkpt lat="44.51247" lon="4.26554">
        <ele>279.4</ele>
        <time>2016-05-08T08:57:07Z</time>
      </trkpt>
      <trkpt lat="44.51243" lon="4.26555">
        <ele>278.92</ele>
        <time>2016-05-08T08:57:08Z</time>
      </trkpt>
      <trkpt lat="44.51238" lon="4.26558">
        <ele>278.92</ele>
        <time>2016-05-08T08:57:09Z</time>
      </trkpt>
      <trkpt lat="44.51234" lon="4.2656">
        <ele>278.44</ele>
        <time>2016-05-08T08:57:10Z</time>
      </trkpt>
      <trkpt lat="44.5123" lon="4.26564">
        <ele>278.44</ele>
        <time>2016-05-08T08:57:11Z</time>
      </trkpt>
      <trkpt lat="44.51207" lon="4.26587">
        <ele>275.56</ele>
        <time>2016-05-08T08:57:16Z</time>
      </trkpt>
      <trkpt lat="44.51202" lon="4.2659">
        <ele>275.07</ele>
        <time>2016-05-08T08:57:17Z</time>
      </trkpt>
      <trkpt lat="44.51196" lon="4.26592">
        <ele>274.59</ele>
        <time>2016-05-08T08:57:18Z</time>
      </trkpt>
      <trkpt lat="44.5119" lon="4.26592">
        <ele>274.11</ele>
        <time>2016-05-08T08:57:19Z</time>
      </trkpt>
      <trkpt lat="44.51183" lon="4.26592">
        <ele>273.15</ele>
        <time>2016-05-08T08:57:20Z</time>
      </trkpt>
      <trkpt lat="44.51169" lon="4.26594">
        <ele>271.23</ele>
        <time>2016-05-08T08:57:22Z</time>
      </trkpt>
      <trkpt lat="44.51163" lon="4.26596">
        <ele>270.27</ele>
        <time>2016-05-08T08:57:23Z</time>
      </trkpt>
      <trkpt lat="44.51143" lon="4.26605">
        <ele>269.31</ele>
        <time>2016-05-08T08:57:26Z</time>
      </trkpt>
      <trkpt lat="44.51138" lon="4.26609">
        <ele>268.83</ele>
        <time>2016-05-08T08:57:27Z</time>
      </trkpt>
      <trkpt lat="44.51129" lon="4.26617">
        <ele>268.83</ele>
        <time>2016-05-08T08:57:29Z</time>
      </trkpt>
      <trkpt lat="44.51124" lon="4.2662">
        <ele>268.35</ele>
        <time>2016-05-08T08:57:30Z</time>
      </trkpt>
      <trkpt lat="44.51094" lon="4.2663">
        <ele>267.38</ele>
        <time>2016-05-08T08:57:36Z</time>
      </trkpt>
      <trkpt lat="44.51086" lon="4.26634">
        <ele>267.86</ele>
        <time>2016-05-08T08:57:38Z</time>
      </trkpt>
      <trkpt lat="44.51082" lon="4.26635">
        <ele>267.86</ele>
        <time>2016-05-08T08:57:39Z</time>
      </trkpt>
      <trkpt lat="44.51078" lon="4.26636">
        <ele>267.86</ele>
        <time>2016-05-08T08:57:40Z</time>
      </trkpt>
      <trkpt lat="44.51075" lon="4.26637">
        <ele>267.86</ele>
        <time>2016-05-08T08:57:41Z</time>
      </trkpt>
      <trkpt lat="44.51071" lon="4.26637">
        <ele>267.86</ele>
        <time>2016-05-08T08:57:42Z</time>
      </trkpt>
      <trkpt lat="44.51062" lon="4.26637">
        <ele>267.38</ele>
        <time>2016-05-08T08:57:45Z</time>
      </trkpt>
      <trkpt lat="44.51059" lon="4.26635">
        <ele>267.38</ele>
        <time>2016-05-08T08:57:46Z</time>
      </trkpt>
      <trkpt lat="44.51056" lon="4.26634">
        <ele>267.38</ele>
        <time>2016-05-08T08:57:47Z</time>
      </trkpt>
      <trkpt lat="44.51038" lon="4.2663">
        <ele>266.9</ele>
        <time>2016-05-08T08:57:51Z</time>
      </trkpt>
      <trkpt lat="44.51034" lon="4.26629">
        <ele>266.42</ele>
        <time>2016-05-08T08:57:52Z</time>
      </trkpt>
      <trkpt lat="44.51029" lon="4.26628">
        <ele>266.42</ele>
        <time>2016-05-08T08:57:53Z</time>
      </trkpt>
      <trkpt lat="44.51019" lon="4.26625">
        <ele>265.46</ele>
        <time>2016-05-08T08:57:55Z</time>
      </trkpt>
      <trkpt lat="44.51009" lon="4.26619">
        <ele>264.5</ele>
        <time>2016-05-08T08:57:57Z</time>
      </trkpt>
      <trkpt lat="44.51004" lon="4.26616">
        <ele>264.5</ele>
        <time>2016-05-08T08:57:58Z</time>
      </trkpt>
      <trkpt lat="44.50987" lon="4.2661">
        <ele>264.02</ele>
        <time>2016-05-08T08:58:01Z</time>
      </trkpt>
      <trkpt lat="44.50981" lon="4.26609">
        <ele>264.02</ele>
        <time>2016-05-08T08:58:02Z</time>
      </trkpt>
      <trkpt lat="44.50967" lon="4.26603">
        <ele>263.54</ele>
        <time>2016-05-08T08:58:05Z</time>
      </trkpt>
      <trkpt lat="44.50962" lon="4.26602">
        <ele>263.06</ele>
        <time>2016-05-08T08:58:06Z</time>
      </trkpt>
      <trkpt lat="44.50956" lon="4.26603">
        <ele>262.58</ele>
        <time>2016-05-08T08:58:07Z</time>
      </trkpt>
      <trkpt lat="44.50951" lon="4.26603">
        <ele>262.58</ele>
        <time>2016-05-08T08:58:08Z</time>
      </trkpt>
      <trkpt lat="44.50945" lon="4.26603">
        <ele>262.1</ele>
        <time>2016-05-08T08:58:09Z</time>
      </trkpt>
      <trkpt lat="44.50939" lon="4.26602">
        <ele>261.14</ele>
        <time>2016-05-08T08:58:10Z</time>
      </trkpt>
      <trkpt lat="44.50934" lon="4.266">
        <ele>260.65</ele>
        <time>2016-05-08T08:58:11Z</time>
      </trkpt>
      <trkpt lat="44.50923" lon="4.26595">
        <ele>259.21</ele>
        <time>2016-05-08T08:58:13Z</time>
      </trkpt>
      <trkpt lat="44.50905" lon="4.26589">
        <ele>257.29</ele>
        <time>2016-05-08T08:58:16Z</time>
      </trkpt>
      <trkpt lat="44.50899" lon="4.26587">
        <ele>256.33</ele>
        <time>2016-05-08T08:58:17Z</time>
      </trkpt>
      <trkpt lat="44.50881" lon="4.26586">
        <ele>253.44</ele>
        <time>2016-05-08T08:58:21Z</time>
      </trkpt>
      <trkpt lat="44.50879" lon="4.26583">
        <ele>252.48</ele>
        <time>2016-05-08T08:58:22Z</time>
      </trkpt>
      <trkpt lat="44.50869" lon="4.26574">
        <ele>250.08</ele>
        <time>2016-05-08T08:58:25Z</time>
      </trkpt>
      <trkpt lat="44.50865" lon="4.26571">
        <ele>249.12</ele>
        <time>2016-05-08T08:58:26Z</time>
      </trkpt>
      <trkpt lat="44.5086" lon="4.26569">
        <ele>248.64</ele>
        <time>2016-05-08T08:58:27Z</time>
      </trkpt>
      <trkpt lat="44.50856" lon="4.26569">
        <ele>247.68</ele>
        <time>2016-05-08T08:58:28Z</time>
      </trkpt>
      <trkpt lat="44.50853" lon="4.2657">
        <ele>247.2</ele>
        <time>2016-05-08T08:58:29Z</time>
      </trkpt>
      <trkpt lat="44.50851" lon="4.26572">
        <ele>247.2</ele>
        <time>2016-05-08T08:58:30Z</time>
      </trkpt>
      <trkpt lat="44.50851" lon="4.26574">
        <ele>246.72</ele>
        <time>2016-05-08T08:58:31Z</time>
      </trkpt>
      <trkpt lat="44.50851" lon="4.26577">
        <ele>246.72</ele>
        <time>2016-05-08T08:58:32Z</time>
      </trkpt>
      <trkpt lat="44.50849" lon="4.2658">
        <ele>246.72</ele>
        <time>2016-05-08T08:58:33Z</time>
      </trkpt>
      <trkpt lat="44.50839" lon="4.26599">
        <ele>244.31</ele>
        <time>2016-05-08T08:58:43Z</time>
      </trkpt>
      <trkpt lat="44.50839" lon="4.26599">
        <ele>244.31</ele>
        <time>2016-05-08T08:59:13Z</time>
      </trkpt>
      <trkpt lat="44.50839" lon="4.26599">
        <ele>244.31</ele>
        <time>2016-05-08T08:59:36Z</time>
      </trkpt>
      <trkpt lat="44.50828" lon="4.26617">
        <ele>240.95</ele>
        <time>2016-05-08T08:59:41Z</time>
      </trkpt>
      <trkpt lat="44.50823" lon="4.26623">
        <ele>239.99</ele>
        <time>2016-05-08T08:59:42Z</time>
      </trkpt>
      <trkpt lat="44.50798" lon="4.26646">
        <ele>238.54</ele>
        <time>2016-05-08T08:59:46Z</time>
      </trkpt>
      <trkpt lat="44.50782" lon="4.26671">
        <ele>236.62</ele>
        <time>2016-05-08T08:59:50Z</time>
      </trkpt>
      <trkpt lat="44.50762" lon="4.26702">
        <ele>233.26</ele>
        <time>2016-05-08T08:59:58Z</time>
      </trkpt>
      <trkpt lat="44.50761" lon="4.26705">
        <ele>232.3</ele>
        <time>2016-05-08T08:59:59Z</time>
      </trkpt>
      <trkpt lat="44.50759" lon="4.26717">
        <ele>228.93</ele>
        <time>2016-05-08T09:00:04Z</time>
      </trkpt>
      <trkpt lat="44.50754" lon="4.26726">
        <ele>227.49</ele>
        <time>2016-05-08T09:00:06Z</time>
      </trkpt>
      <trkpt lat="44.50746" lon="4.26749">
        <ele>223.64</ele>
        <time>2016-05-08T09:00:12Z</time>
      </trkpt>
      <trkpt lat="44.50732" lon="4.26774">
        <ele>221.24</ele>
        <time>2016-05-08T09:00:20Z</time>
      </trkpt>
      <trkpt lat="44.50719" lon="4.26802">
        <ele>215.95</ele>
        <time>2016-05-08T09:00:25Z</time>
      </trkpt>
      <trkpt lat="44.50713" lon="4.26814">
        <ele>213.55</ele>
        <time>2016-05-08T09:00:31Z</time>
      </trkpt>
      <trkpt lat="44.50714" lon="4.2683">
        <ele>209.7</ele>
        <time>2016-05-08T09:00:37Z</time>
      </trkpt>
      <trkpt lat="44.50714" lon="4.26836">
        <ele>208.74</ele>
        <time>2016-05-08T09:00:39Z</time>
      </trkpt>
      <trkpt lat="44.50713" lon="4.26849">
        <ele>207.78</ele>
        <time>2016-05-08T09:00:44Z</time>
      </trkpt>
      <trkpt lat="44.50701" lon="4.26866">
        <ele>209.22</ele>
        <time>2016-05-08T09:00:52Z</time>
      </trkpt>
      <trkpt lat="44.50698" lon="4.26869">
        <ele>209.7</ele>
        <time>2016-05-08T09:00:54Z</time>
      </trkpt>
      <trkpt lat="44.50695" lon="4.26881">
        <ele>208.26</ele>
        <time>2016-05-08T09:01:04Z</time>
      </trkpt>
      <trkpt lat="44.50697" lon="4.26883">
        <ele>207.78</ele>
        <time>2016-05-08T09:01:17Z</time>
      </trkpt>
      <trkpt lat="44.50697" lon="4.26883">
        <ele>207.3</ele>
        <time>2016-05-08T09:01:32Z</time>
      </trkpt>
      <trkpt lat="44.50698" lon="4.26883">
        <ele>207.3</ele>
        <time>2016-05-08T09:01:44Z</time>
      </trkpt>
      <trkpt lat="44.50699" lon="4.26886">
        <ele>208.26</ele>
        <time>2016-05-08T09:01:56Z</time>
      </trkpt>
      <trkpt lat="44.507" lon="4.26889">
        <ele>206.82</ele>
        <time>2016-05-08T09:02:10Z</time>
      </trkpt>
      <trkpt lat="44.507" lon="4.26889">
        <ele>207.3</ele>
        <time>2016-05-08T09:02:39Z</time>
      </trkpt>
      <trkpt lat="44.50701" lon="4.26891">
        <ele>206.82</ele>
        <time>2016-05-08T09:02:49Z</time>
      </trkpt>
      <trkpt lat="44.50704" lon="4.26893">
        <ele>207.78</ele>
        <time>2016-05-08T09:03:02Z</time>
      </trkpt>
      <trkpt lat="44.50705" lon="4.26895">
        <ele>208.26</ele>
        <time>2016-05-08T09:03:08Z</time>
      </trkpt>
      <trkpt lat="44.50707" lon="4.26905">
        <ele>209.7</ele>
        <time>2016-05-08T09:03:20Z</time>
      </trkpt>
      <trkpt lat="44.50705" lon="4.26913">
        <ele>209.7</ele>
        <time>2016-05-08T09:03:23Z</time>
      </trkpt>
      <trkpt lat="44.5071" lon="4.26947">
        <ele>209.7</ele>
        <time>2016-05-08T09:03:34Z</time>
      </trkpt>
      <trkpt lat="44.50718" lon="4.26952">
        <ele>210.19</ele>
        <time>2016-05-08T09:03:40Z</time>
      </trkpt>
      <trkpt lat="44.50732" lon="4.26961">
        <ele>214.03</ele>
        <time>2016-05-08T09:03:50Z</time>
      </trkpt>
      <trkpt lat="44.50735" lon="4.26959">
        <ele>215.47</ele>
        <time>2016-05-08T09:03:54Z</time>
      </trkpt>
      <trkpt lat="44.50735" lon="4.26956">
        <ele>216.43</ele>
        <time>2016-05-08T09:03:59Z</time>
      </trkpt>
      <trkpt lat="44.50726" lon="4.26929">
        <ele>216.43</ele>
        <time>2016-05-08T09:04:11Z</time>
      </trkpt>
      <trkpt lat="44.50724" lon="4.26923">
        <ele>215.95</ele>
        <time>2016-05-08T09:04:14Z</time>
      </trkpt>
      <trkpt lat="44.50742" lon="4.26882">
        <ele>216.91</ele>
        <time>2016-05-08T09:04:27Z</time>
      </trkpt>
      <trkpt lat="44.50765" lon="4.26847">
        <ele>219.32</ele>
        <time>2016-05-08T09:04:40Z</time>
      </trkpt>
      <trkpt lat="44.50784" lon="4.26829">
        <ele>221.72</ele>
        <time>2016-05-08T09:04:52Z</time>
      </trkpt>
      <trkpt lat="44.50805" lon="4.26804">
        <ele>224.61</ele>
        <time>2016-05-08T09:05:05Z</time>
      </trkpt>
      <trkpt lat="44.50821" lon="4.26779">
        <ele>224.61</ele>
        <time>2016-05-08T09:05:19Z</time>
      </trkpt>
      <trkpt lat="44.50839" lon="4.26758">
        <ele>226.53</ele>
        <time>2016-05-08T09:05:31Z</time>
      </trkpt>
      <trkpt lat="44.50846" lon="4.26751">
        <ele>227.01</ele>
        <time>2016-05-08T09:05:36Z</time>
      </trkpt>
      <trkpt lat="44.50849" lon="4.26749">
        <ele>227.49</ele>
        <time>2016-05-08T09:05:38Z</time>
      </trkpt>
      <trkpt lat="44.50856" lon="4.26745">
        <ele>227.97</ele>
        <time>2016-05-08T09:05:42Z</time>
      </trkpt>
      <trkpt lat="44.5086" lon="4.26748">
        <ele>229.41</ele>
        <time>2016-05-08T09:05:46Z</time>
      </trkpt>
      <trkpt lat="44.50856" lon="4.26763">
        <ele>231.33</ele>
        <time>2016-05-08T09:05:54Z</time>
      </trkpt>
      <trkpt lat="44.50861" lon="4.26785">
        <ele>232.78</ele>
        <time>2016-05-08T09:06:07Z</time>
      </trkpt>
      <trkpt lat="44.50865" lon="4.26798">
        <ele>233.74</ele>
        <time>2016-05-08T09:06:15Z</time>
      </trkpt>
      <trkpt lat="44.50871" lon="4.26815">
        <ele>235.66</ele>
        <time>2016-05-08T09:06:27Z</time>
      </trkpt>
      <trkpt lat="44.50871" lon="4.26819">
        <ele>236.14</ele>
        <time>2016-05-08T09:06:32Z</time>
      </trkpt>
      <trkpt lat="44.50874" lon="4.26835">
        <ele>237.58</ele>
        <time>2016-05-08T09:06:39Z</time>
      </trkpt>
      <trkpt lat="44.50881" lon="4.26865">
        <ele>239.99</ele>
        <time>2016-05-08T09:06:53Z</time>
      </trkpt>
      <trkpt lat="44.50883" lon="4.26876">
        <ele>240.95</ele>
        <time>2016-05-08T09:06:58Z</time>
      </trkpt>
      <trkpt lat="44.50894" lon="4.26898">
        <ele>244.31</ele>
        <time>2016-05-08T09:07:12Z</time>
      </trkpt>
      <trkpt lat="44.50912" lon="4.26919">
        <ele>247.2</ele>
        <time>2016-05-08T09:07:25Z</time>
      </trkpt>
      <trkpt lat="44.50912" lon="4.26921">
        <ele>247.2</ele>
        <time>2016-05-08T09:07:26Z</time>
      </trkpt>
      <trkpt lat="44.50918" lon="4.26931">
        <ele>248.16</ele>
        <time>2016-05-08T09:07:32Z</time>
      </trkpt>
      <trkpt lat="44.50925" lon="4.26939">
        <ele>249.6</ele>
        <time>2016-05-08T09:07:38Z</time>
      </trkpt>
      <trkpt lat="44.50937" lon="4.26948">
        <ele>250.56</ele>
        <time>2016-05-08T09:07:44Z</time>
      </trkpt>
      <trkpt lat="44.50961" lon="4.26949">
        <ele>252.48</ele>
        <time>2016-05-08T09:07:58Z</time>
      </trkpt>
      <trkpt lat="44.5098" lon="4.26946">
        <ele>252.96</ele>
        <time>2016-05-08T09:08:08Z</time>
      </trkpt>
      <trkpt lat="44.50993" lon="4.26947">
        <ele>253.93</ele>
        <time>2016-05-08T09:08:15Z</time>
      </trkpt>
      <trkpt lat="44.51014" lon="4.26948">
        <ele>257.29</ele>
        <time>2016-05-08T09:08:28Z</time>
      </trkpt>
      <trkpt lat="44.51022" lon="4.26947">
        <ele>258.25</ele>
        <time>2016-05-08T09:08:33Z</time>
      </trkpt>
      <trkpt lat="44.5104" lon="4.26953">
        <ele>261.14</ele>
        <time>2016-05-08T09:08:44Z</time>
      </trkpt>
      <trkpt lat="44.51044" lon="4.26955">
        <ele>261.62</ele>
        <time>2016-05-08T09:08:47Z</time>
      </trkpt>
      <trkpt lat="44.51054" lon="4.2696">
        <ele>262.58</ele>
        <time>2016-05-08T09:08:54Z</time>
      </trkpt>
      <trkpt lat="44.51076" lon="4.26966">
        <ele>264.5</ele>
        <time>2016-05-08T09:09:08Z</time>
      </trkpt>
      <trkpt lat="44.51083" lon="4.26967">
        <ele>265.46</ele>
        <time>2016-05-08T09:09:12Z</time>
      </trkpt>
      <trkpt lat="44.51088" lon="4.26968">
        <ele>266.42</ele>
        <time>2016-05-08T09:09:15Z</time>
      </trkpt>
      <trkpt lat="44.5109" lon="4.26966">
        <ele>267.38</ele>
        <time>2016-05-08T09:09:21Z</time>
      </trkpt>
      <trkpt lat="44.51084" lon="4.26971">
        <ele>268.83</ele>
        <time>2016-05-08T09:09:31Z</time>
      </trkpt>
      <trkpt lat="44.51066" lon="4.2699">
        <ele>270.75</ele>
        <time>2016-05-08T09:09:46Z</time>
      </trkpt>
      <trkpt lat="44.51054" lon="4.27018">
        <ele>271.71</ele>
        <time>2016-05-08T09:10:01Z</time>
      </trkpt>
      <trkpt lat="44.51054" lon="4.27018">
        <ele>271.23</ele>
        <time>2016-05-08T09:10:28Z</time>
      </trkpt>
      <trkpt lat="44.51053" lon="4.27018">
        <ele>271.23</ele>
        <time>2016-05-08T09:10:48Z</time>
      </trkpt>
      <trkpt lat="44.51053" lon="4.27018">
        <ele>271.71</ele>
        <time>2016-05-08T09:11:12Z</time>
      </trkpt>
      <trkpt lat="44.51053" lon="4.2702">
        <ele>271.71</ele>
        <time>2016-05-08T09:11:41Z</time>
      </trkpt>
      <trkpt lat="44.51053" lon="4.2702">
        <ele>272.19</ele>
        <time>2016-05-08T09:11:54Z</time>
      </trkpt>
      <trkpt lat="44.51053" lon="4.27021">
        <ele>272.19</ele>
        <time>2016-05-08T09:12:14Z</time>
      </trkpt>
      <trkpt lat="44.51053" lon="4.27021">
        <ele>272.19</ele>
        <time>2016-05-08T09:12:26Z</time>
      </trkpt>
      <trkpt lat="44.51053" lon="4.27024">
        <ele>271.23</ele>
        <time>2016-05-08T09:12:39Z</time>
      </trkpt>
      <trkpt lat="44.51054" lon="4.27025">
        <ele>271.71</ele>
        <time>2016-05-08T09:12:59Z</time>
      </trkpt>
      <trkpt lat="44.51054" lon="4.27026">
        <ele>271.71</ele>
        <time>2016-05-08T09:13:23Z</time>
      </trkpt>
      <trkpt lat="44.51054" lon="4.27026">
        <ele>272.19</ele>
        <time>2016-05-08T09:13:47Z</time>
      </trkpt>
      <trkpt lat="44.51054" lon="4.27028">
        <ele>271.23</ele>
        <time>2016-05-08T09:14:09Z</time>
      </trkpt>
      <trkpt lat="44.51054" lon="4.27029">
        <ele>272.19</ele>
        <time>2016-05-08T09:14:30Z</time>
      </trkpt>
      <trkpt lat="44.51054" lon="4.2703">
        <ele>272.19</ele>
        <time>2016-05-08T09:14:42Z</time>
      </trkpt>
      <trkpt lat="44.51053" lon="4.2703">
        <ele>272.19</ele>
        <time>2016-05-08T09:14:54Z</time>
      </trkpt>
      <trkpt lat="44.51053" lon="4.2703">
        <ele>271.23</ele>
        <time>2016-05-08T09:15:11Z</time>
      </trkpt>
      <trkpt lat="44.51053" lon="4.27031">
        <ele>272.19</ele>
        <time>2016-05-08T09:15:27Z</time>
      </trkpt>
      <trkpt lat="44.51053" lon="4.27031">
        <ele>272.19</ele>
        <time>2016-05-08T09:15:47Z</time>
      </trkpt>
      <trkpt lat="44.51054" lon="4.27031">
        <ele>271.71</ele>
        <time>2016-05-08T09:16:04Z</time>
      </trkpt>
      <trkpt lat="44.51054" lon="4.2703">
        <ele>271.71</ele>
        <time>2016-05-08T09:16:18Z</time>
      </trkpt>
      <trkpt lat="44.51053" lon="4.27029">
        <ele>270.75</ele>
        <time>2016-05-08T09:16:31Z</time>
      </trkpt>
      <trkpt lat="44.51053" lon="4.27029">
        <ele>271.23</ele>
        <time>2016-05-08T09:16:58Z</time>
      </trkpt>
      <trkpt lat="44.51053" lon="4.27029">
        <ele>270.75</ele>
        <time>2016-05-08T09:17:29Z</time>
      </trkpt>
      <trkpt lat="44.51053" lon="4.27031">
        <ele>271.71</ele>
        <time>2016-05-08T09:17:48Z</time>
      </trkpt>
      <trkpt lat="44.51052" lon="4.27045">
        <ele>271.23</ele>
        <time>2016-05-08T09:17:53Z</time>
      </trkpt>
      <trkpt lat="44.51049" lon="4.27069">
        <ele>270.27</ele>
        <time>2016-05-08T09:17:57Z</time>
      </trkpt>
      <trkpt lat="44.51047" lon="4.27103">
        <ele>268.83</ele>
        <time>2016-05-08T09:18:01Z</time>
      </trkpt>
      <trkpt lat="44.51042" lon="4.27131">
        <ele>268.35</ele>
        <time>2016-05-08T09:18:04Z</time>
      </trkpt>
      <trkpt lat="44.51041" lon="4.27158">
        <ele>267.86</ele>
        <time>2016-05-08T09:18:07Z</time>
      </trkpt>
      <trkpt lat="44.51029" lon="4.2721">
        <ele>267.38</ele>
        <time>2016-05-08T09:18:14Z</time>
      </trkpt>
      <trkpt lat="44.51028" lon="4.27217">
        <ele>267.38</ele>
        <time>2016-05-08T09:18:15Z</time>
      </trkpt>
      <trkpt lat="44.51027" lon="4.27224">
        <ele>267.38</ele>
        <time>2016-05-08T09:18:16Z</time>
      </trkpt>
      <trkpt lat="44.51027" lon="4.27231">
        <ele>266.9</ele>
        <time>2016-05-08T09:18:17Z</time>
      </trkpt>
      <trkpt lat="44.51027" lon="4.27239">
        <ele>266.9</ele>
        <time>2016-05-08T09:18:18Z</time>
      </trkpt>
      <trkpt lat="44.51028" lon="4.27246">
        <ele>267.38</ele>
        <time>2016-05-08T09:18:19Z</time>
      </trkpt>
      <trkpt lat="44.51028" lon="4.27253">
        <ele>266.9</ele>
        <time>2016-05-08T09:18:20Z</time>
      </trkpt>
      <trkpt lat="44.51029" lon="4.2726">
        <ele>266.9</ele>
        <time>2016-05-08T09:18:21Z</time>
      </trkpt>
      <trkpt lat="44.5103" lon="4.27268">
        <ele>266.9</ele>
        <time>2016-05-08T09:18:22Z</time>
      </trkpt>
      <trkpt lat="44.51031" lon="4.27284">
        <ele>266.9</ele>
        <time>2016-05-08T09:18:24Z</time>
      </trkpt>
      <trkpt lat="44.51028" lon="4.27308">
        <ele>266.9</ele>
        <time>2016-05-08T09:18:27Z</time>
      </trkpt>
      <trkpt lat="44.51027" lon="4.27316">
        <ele>266.9</ele>
        <time>2016-05-08T09:18:28Z</time>
      </trkpt>
      <trkpt lat="44.51019" lon="4.27346">
        <ele>267.86</ele>
        <time>2016-05-08T09:18:32Z</time>
      </trkpt>
      <trkpt lat="44.51002" lon="4.27399">
        <ele>269.31</ele>
        <time>2016-05-08T09:18:40Z</time>
      </trkpt>
      <trkpt lat="44.51" lon="4.27406">
        <ele>269.79</ele>
        <time>2016-05-08T09:18:41Z</time>
      </trkpt>
      <trkpt lat="44.50997" lon="4.27413">
        <ele>269.79</ele>
        <time>2016-05-08T09:18:42Z</time>
      </trkpt>
      <trkpt lat="44.50979" lon="4.27511">
        <ele>269.31</ele>
        <time>2016-05-08T09:18:57Z</time>
      </trkpt>
      <trkpt lat="44.50975" lon="4.27583">
        <ele>267.86</ele>
        <time>2016-05-08T09:19:06Z</time>
      </trkpt>
      <trkpt lat="44.50975" lon="4.27588">
        <ele>267.38</ele>
        <time>2016-05-08T09:19:07Z</time>
      </trkpt>
      <trkpt lat="44.50977" lon="4.27591">
        <ele>266.9</ele>
        <time>2016-05-08T09:19:08Z</time>
      </trkpt>
      <trkpt lat="44.50978" lon="4.27593">
        <ele>266.42</ele>
        <time>2016-05-08T09:19:09Z</time>
      </trkpt>
      <trkpt lat="44.50981" lon="4.27593">
        <ele>266.9</ele>
        <time>2016-05-08T09:19:10Z</time>
      </trkpt>
      <trkpt lat="44.50982" lon="4.27593">
        <ele>267.38</ele>
        <time>2016-05-08T09:19:11Z</time>
      </trkpt>
      <trkpt lat="44.50983" lon="4.27591">
        <ele>267.86</ele>
        <time>2016-05-08T09:19:12Z</time>
      </trkpt>
      <trkpt lat="44.50984" lon="4.2759">
        <ele>267.86</ele>
        <time>2016-05-08T09:19:13Z</time>
      </trkpt>
      <trkpt lat="44.50984" lon="4.27588">
        <ele>267.86</ele>
        <time>2016-05-08T09:19:14Z</time>
      </trkpt>
      <trkpt lat="44.50983" lon="4.27582">
        <ele>268.35</ele>
        <time>2016-05-08T09:19:19Z</time>
      </trkpt>
      <trkpt lat="44.50982" lon="4.2758">
        <ele>268.35</ele>
        <time>2016-05-08T09:19:20Z</time>
      </trkpt>
      <trkpt lat="44.50982" lon="4.27578">
        <ele>268.35</ele>
        <time>2016-05-08T09:19:21Z</time>
      </trkpt>
      <trkpt lat="44.50982" lon="4.27575">
        <ele>268.35</ele>
        <time>2016-05-08T09:19:22Z</time>
      </trkpt>
      <trkpt lat="44.50982" lon="4.27573">
        <ele>268.35</ele>
        <time>2016-05-08T09:19:23Z</time>
      </trkpt>
      <trkpt lat="44.50983" lon="4.27571">
        <ele>268.35</ele>
        <time>2016-05-08T09:19:24Z</time>
      </trkpt>
      <trkpt lat="44.50984" lon="4.27569">
        <ele>268.35</ele>
        <time>2016-05-08T09:19:25Z</time>
      </trkpt>
      <trkpt lat="44.50985" lon="4.27568">
        <ele>268.35</ele>
        <time>2016-05-08T09:19:26Z</time>
      </trkpt>
      <trkpt lat="44.50986" lon="4.27568">
        <ele>268.83</ele>
        <time>2016-05-08T09:19:27Z</time>
      </trkpt>
      <trkpt lat="44.50993" lon="4.27572">
        <ele>269.31</ele>
        <time>2016-05-08T09:19:31Z</time>
      </trkpt>
      <trkpt lat="44.51001" lon="4.27569">
        <ele>270.27</ele>
        <time>2016-05-08T09:19:36Z</time>
      </trkpt>
      <trkpt lat="44.51025" lon="4.27544">
        <ele>273.15</ele>
        <time>2016-05-08T09:19:50Z</time>
      </trkpt>
      <trkpt lat="44.51044" lon="4.27518">
        <ele>275.56</ele>
        <time>2016-05-08T09:20:03Z</time>
      </trkpt>
      <trkpt lat="44.51064" lon="4.27473">
        <ele>275.56</ele>
        <time>2016-05-08T09:20:16Z</time>
      </trkpt>
      <trkpt lat="44.51087" lon="4.27456">
        <ele>277</ele>
        <time>2016-05-08T09:20:25Z</time>
      </trkpt>
      <trkpt lat="44.51115" lon="4.27417">
        <ele>279.4</ele>
        <time>2016-05-08T09:20:40Z</time>
      </trkpt>
      <trkpt lat="44.51157" lon="4.27398">
        <ele>280.84</ele>
        <time>2016-05-08T09:20:55Z</time>
      </trkpt>
      <trkpt lat="44.51198" lon="4.27391">
        <ele>282.28</ele>
        <time>2016-05-08T09:21:09Z</time>
      </trkpt>
      <trkpt lat="44.51229" lon="4.27377">
        <ele>283.25</ele>
        <time>2016-05-08T09:21:21Z</time>
      </trkpt>
      <trkpt lat="44.51259" lon="4.27369">
        <ele>285.65</ele>
        <time>2016-05-08T09:21:33Z</time>
      </trkpt>
      <trkpt lat="44.51273" lon="4.2735">
        <ele>287.09</ele>
        <time>2016-05-08T09:21:43Z</time>
      </trkpt>
      <trkpt lat="44.51292" lon="4.27329">
        <ele>289.49</ele>
        <time>2016-05-08T09:21:55Z</time>
      </trkpt>
      <trkpt lat="44.51294" lon="4.27327">
        <ele>289.49</ele>
        <time>2016-05-08T09:21:56Z</time>
      </trkpt>
      <trkpt lat="44.51302" lon="4.27327">
        <ele>290.46</ele>
        <time>2016-05-08T09:22:00Z</time>
      </trkpt>
      <trkpt lat="44.51327" lon="4.27348">
        <ele>291.9</ele>
        <time>2016-05-08T09:22:14Z</time>
      </trkpt>
      <trkpt lat="44.51342" lon="4.27348">
        <ele>291.9</ele>
        <time>2016-05-08T09:22:20Z</time>
      </trkpt>
      <trkpt lat="44.51346" lon="4.27345">
        <ele>292.38</ele>
        <time>2016-05-08T09:22:22Z</time>
      </trkpt>
      <trkpt lat="44.5137" lon="4.27324">
        <ele>294.78</ele>
        <time>2016-05-08T09:22:35Z</time>
      </trkpt>
      <trkpt lat="44.514" lon="4.27295">
        <ele>296.7</ele>
        <time>2016-05-08T09:22:48Z</time>
      </trkpt>
      <trkpt lat="44.51402" lon="4.27292">
        <ele>297.18</ele>
        <time>2016-05-08T09:22:49Z</time>
      </trkpt>
      <trkpt lat="44.5142" lon="4.27284">
        <ele>297.67</ele>
        <time>2016-05-08T09:22:56Z</time>
      </trkpt>
      <trkpt lat="44.51477" lon="4.27276">
        <ele>298.63</ele>
        <time>2016-05-08T09:23:14Z</time>
      </trkpt>
      <trkpt lat="44.51526" lon="4.27269">
        <ele>299.59</ele>
        <time>2016-05-08T09:23:28Z</time>
      </trkpt>
      <trkpt lat="44.51579" lon="4.27269">
        <ele>300.55</ele>
        <time>2016-05-08T09:23:42Z</time>
      </trkpt>
      <trkpt lat="44.51617" lon="4.2728">
        <ele>301.51</ele>
        <time>2016-05-08T09:23:54Z</time>
      </trkpt>
      <trkpt lat="44.51659" lon="4.27306">
        <ele>304.39</ele>
        <time>2016-05-08T09:24:08Z</time>
      </trkpt>
      <trkpt lat="44.51706" lon="4.27341">
        <ele>306.8</ele>
        <time>2016-05-08T09:24:26Z</time>
      </trkpt>
      <trkpt lat="44.51729" lon="4.27358">
        <ele>309.2</ele>
        <time>2016-05-08T09:24:35Z</time>
      </trkpt>
      <trkpt lat="44.51736" lon="4.27359">
        <ele>309.2</ele>
        <time>2016-05-08T09:24:39Z</time>
      </trkpt>
      <trkpt lat="44.51767" lon="4.27332">
        <ele>308.72</ele>
        <time>2016-05-08T09:24:51Z</time>
      </trkpt>
      <trkpt lat="44.51791" lon="4.27315">
        <ele>306.8</ele>
        <time>2016-05-08T09:24:59Z</time>
      </trkpt>
      <trkpt lat="44.51791" lon="4.27315">
        <ele>306.8</ele>
        <time>2016-05-08T09:25:18Z</time>
      </trkpt>
      <trkpt lat="44.51791" lon="4.27315">
        <ele>306.32</ele>
        <time>2016-05-08T09:25:27Z</time>
      </trkpt>
      <trkpt lat="44.51794" lon="4.27313">
        <ele>306.8</ele>
        <time>2016-05-08T09:25:30Z</time>
      </trkpt>
      <trkpt lat="44.51827" lon="4.27311">
        <ele>306.32</ele>
        <time>2016-05-08T09:25:39Z</time>
      </trkpt>
      <trkpt lat="44.51842" lon="4.2732">
        <ele>305.84</ele>
        <time>2016-05-08T09:25:46Z</time>
      </trkpt>
      <trkpt lat="44.51846" lon="4.27321">
        <ele>306.32</ele>
        <time>2016-05-08T09:25:48Z</time>
      </trkpt>
      <trkpt lat="44.51849" lon="4.27337">
        <ele>305.36</ele>
        <time>2016-05-08T09:25:54Z</time>
      </trkpt>
      <trkpt lat="44.51857" lon="4.27362">
        <ele>304.88</ele>
        <time>2016-05-08T09:26:00Z</time>
      </trkpt>
      <trkpt lat="44.51872" lon="4.27386">
        <ele>303.43</ele>
        <time>2016-05-08T09:26:08Z</time>
      </trkpt>
      <trkpt lat="44.51887" lon="4.27395">
        <ele>303.91</ele>
        <time>2016-05-08T09:26:16Z</time>
      </trkpt>
      <trkpt lat="44.51902" lon="4.27416">
        <ele>303.91</ele>
        <time>2016-05-08T09:26:27Z</time>
      </trkpt>
      <trkpt lat="44.51907" lon="4.27419">
        <ele>303.91</ele>
        <time>2016-05-08T09:26:30Z</time>
      </trkpt>
      <trkpt lat="44.51915" lon="4.27414">
        <ele>304.39</ele>
        <time>2016-05-08T09:26:36Z</time>
      </trkpt>
      <trkpt lat="44.51957" lon="4.2741">
        <ele>304.39</ele>
        <time>2016-05-08T09:26:49Z</time>
      </trkpt>
      <trkpt lat="44.51996" lon="4.27386">
        <ele>306.32</ele>
        <time>2016-05-08T09:27:00Z</time>
      </trkpt>
      <trkpt lat="44.52012" lon="4.27385">
        <ele>306.8</ele>
        <time>2016-05-08T09:27:04Z</time>
      </trkpt>
      <trkpt lat="44.52033" lon="4.27381">
        <ele>307.28</ele>
        <time>2016-05-08T09:27:08Z</time>
      </trkpt>
      <trkpt lat="44.52048" lon="4.27373">
        <ele>308.24</ele>
        <time>2016-05-08T09:27:11Z</time>
      </trkpt>
      <trkpt lat="44.52081" lon="4.27331">
        <ele>308.72</ele>
        <time>2016-05-08T09:27:20Z</time>
      </trkpt>
      <trkpt lat="44.52098" lon="4.27315">
        <ele>309.2</ele>
        <time>2016-05-08T09:27:26Z</time>
      </trkpt>
      <trkpt lat="44.52101" lon="4.27315">
        <ele>309.68</ele>
        <time>2016-05-08T09:27:27Z</time>
      </trkpt>
      <trkpt lat="44.52104" lon="4.27316">
        <ele>309.68</ele>
        <time>2016-05-08T09:27:28Z</time>
      </trkpt>
      <trkpt lat="44.52107" lon="4.27318">
        <ele>309.68</ele>
        <time>2016-05-08T09:27:29Z</time>
      </trkpt>
      <trkpt lat="44.52109" lon="4.27319">
        <ele>309.2</ele>
        <time>2016-05-08T09:27:30Z</time>
      </trkpt>
      <trkpt lat="44.52111" lon="4.27322">
        <ele>309.68</ele>
        <time>2016-05-08T09:27:31Z</time>
      </trkpt>
      <trkpt lat="44.52114" lon="4.27324">
        <ele>309.68</ele>
        <time>2016-05-08T09:27:32Z</time>
      </trkpt>
      <trkpt lat="44.52117" lon="4.27328">
        <ele>309.2</ele>
        <time>2016-05-08T09:27:33Z</time>
      </trkpt>
      <trkpt lat="44.5212" lon="4.27331">
        <ele>309.2</ele>
        <time>2016-05-08T09:27:34Z</time>
      </trkpt>
      <trkpt lat="44.52124" lon="4.27334">
        <ele>309.2</ele>
        <time>2016-05-08T09:27:35Z</time>
      </trkpt>
      <trkpt lat="44.52133" lon="4.27341">
        <ele>309.2</ele>
        <time>2016-05-08T09:27:37Z</time>
      </trkpt>
      <trkpt lat="44.52148" lon="4.27352">
        <ele>308.72</ele>
        <time>2016-05-08T09:27:40Z</time>
      </trkpt>
      <trkpt lat="44.52161" lon="4.27364">
        <ele>308.72</ele>
        <time>2016-05-08T09:27:43Z</time>
      </trkpt>
      <trkpt lat="44.52165" lon="4.27368">
        <ele>308.72</ele>
        <time>2016-05-08T09:27:44Z</time>
      </trkpt>
      <trkpt lat="44.52169" lon="4.27372">
        <ele>308.24</ele>
        <time>2016-05-08T09:27:45Z</time>
      </trkpt>
      <trkpt lat="44.52175" lon="4.27378">
        <ele>308.72</ele>
        <time>2016-05-08T09:27:47Z</time>
      </trkpt>
      <trkpt lat="44.52178" lon="4.27383">
        <ele>308.72</ele>
        <time>2016-05-08T09:27:48Z</time>
      </trkpt>
      <trkpt lat="44.52194" lon="4.27411">
        <ele>306.32</ele>
        <time>2016-05-08T09:27:52Z</time>
      </trkpt>
      <trkpt lat="44.5221" lon="4.27451">
        <ele>304.39</ele>
        <time>2016-05-08T09:27:57Z</time>
      </trkpt>
      <trkpt lat="44.5222" lon="4.27471">
        <ele>303.43</ele>
        <time>2016-05-08T09:28:00Z</time>
      </trkpt>
      <trkpt lat="44.52224" lon="4.27485">
        <ele>303.43</ele>
        <time>2016-05-08T09:28:02Z</time>
      </trkpt>
      <trkpt lat="44.52226" lon="4.27493">
        <ele>302.95</ele>
        <time>2016-05-08T09:28:03Z</time>
      </trkpt>
      <trkpt lat="44.52228" lon="4.27498">
        <ele>302.47</ele>
        <time>2016-05-08T09:28:04Z</time>
      </trkpt>
      <trkpt lat="44.5223" lon="4.27503">
        <ele>301.99</ele>
        <time>2016-05-08T09:28:05Z</time>
      </trkpt>
      <trkpt lat="44.52232" lon="4.27508">
        <ele>301.51</ele>
        <time>2016-05-08T09:28:06Z</time>
      </trkpt>
      <trkpt lat="44.52234" lon="4.27512">
        <ele>300.55</ele>
        <time>2016-05-08T09:28:07Z</time>
      </trkpt>
      <trkpt lat="44.52236" lon="4.27516">
        <ele>300.07</ele>
        <time>2016-05-08T09:28:08Z</time>
      </trkpt>
      <trkpt lat="44.52238" lon="4.2752">
        <ele>299.59</ele>
        <time>2016-05-08T09:28:09Z</time>
      </trkpt>
      <trkpt lat="44.52239" lon="4.27524">
        <ele>299.11</ele>
        <time>2016-05-08T09:28:10Z</time>
      </trkpt>
      <trkpt lat="44.52241" lon="4.27528">
        <ele>297.67</ele>
        <time>2016-05-08T09:28:11Z</time>
      </trkpt>
      <trkpt lat="44.52243" lon="4.27531">
        <ele>297.18</ele>
        <time>2016-05-08T09:28:12Z</time>
      </trkpt>
      <trkpt lat="44.52247" lon="4.27533">
        <ele>295.74</ele>
        <time>2016-05-08T09:28:14Z</time>
      </trkpt>
      <trkpt lat="44.52263" lon="4.27533">
        <ele>294.3</ele>
        <time>2016-05-08T09:28:20Z</time>
      </trkpt>
      <trkpt lat="44.52269" lon="4.27541">
        <ele>295.26</ele>
        <time>2016-05-08T09:28:27Z</time>
      </trkpt>
      <trkpt lat="44.52278" lon="4.27558">
        <ele>295.26</ele>
        <time>2016-05-08T09:28:36Z</time>
      </trkpt>
      <trkpt lat="44.52284" lon="4.27567">
        <ele>296.7</ele>
        <time>2016-05-08T09:28:48Z</time>
      </trkpt>
      <trkpt lat="44.52292" lon="4.27574">
        <ele>299.59</ele>
        <time>2016-05-08T09:29:00Z</time>
      </trkpt>
      <trkpt lat="44.52293" lon="4.27577">
        <ele>300.55</ele>
        <time>2016-05-08T09:29:04Z</time>
      </trkpt>
      <trkpt lat="44.52296" lon="4.27581">
        <ele>301.51</ele>
        <time>2016-05-08T09:29:16Z</time>
      </trkpt>
      <trkpt lat="44.52296" lon="4.27581">
        <ele>301.99</ele>
        <time>2016-05-08T09:29:46Z</time>
      </trkpt>
      <trkpt lat="44.52296" lon="4.27581">
        <ele>302.47</ele>
        <time>2016-05-08T09:30:08Z</time>
      </trkpt>
      <trkpt lat="44.52295" lon="4.2758">
        <ele>302.47</ele>
        <time>2016-05-08T09:30:16Z</time>
      </trkpt>
      <trkpt lat="44.52291" lon="4.27581">
        <ele>302.47</ele>
        <time>2016-05-08T09:30:19Z</time>
      </trkpt>
      <trkpt lat="44.52282" lon="4.27587">
        <ele>302.47</ele>
        <time>2016-05-08T09:30:24Z</time>
      </trkpt>
      <trkpt lat="44.52262" lon="4.27598">
        <ele>302.47</ele>
        <time>2016-05-08T09:30:31Z</time>
      </trkpt>
      <trkpt lat="44.52257" lon="4.276">
        <ele>301.99</ele>
        <time>2016-05-08T09:30:32Z</time>
      </trkpt>
      <trkpt lat="44.52253" lon="4.27602">
        <ele>302.47</ele>
        <time>2016-05-08T09:30:33Z</time>
      </trkpt>
      <trkpt lat="44.52248" lon="4.27604">
        <ele>301.99</ele>
        <time>2016-05-08T09:30:34Z</time>
      </trkpt>
      <trkpt lat="44.52244" lon="4.27607">
        <ele>301.99</ele>
        <time>2016-05-08T09:30:35Z</time>
      </trkpt>
      <trkpt lat="44.52239" lon="4.27609">
        <ele>301.99</ele>
        <time>2016-05-08T09:30:36Z</time>
      </trkpt>
      <trkpt lat="44.52234" lon="4.27611">
        <ele>301.99</ele>
        <time>2016-05-08T09:30:37Z</time>
      </trkpt>
      <trkpt lat="44.52228" lon="4.27613">
        <ele>301.99</ele>
        <time>2016-05-08T09:30:38Z</time>
      </trkpt>
      <trkpt lat="44.52223" lon="4.27615">
        <ele>301.99</ele>
        <time>2016-05-08T09:30:39Z</time>
      </trkpt>
      <trkpt lat="44.52217" lon="4.27617">
        <ele>301.99</ele>
        <time>2016-05-08T09:30:40Z</time>
      </trkpt>
      <trkpt lat="44.52212" lon="4.27619">
        <ele>301.51</ele>
        <time>2016-05-08T09:30:41Z</time>
      </trkpt>
      <trkpt lat="44.52173" lon="4.27628">
        <ele>301.03</ele>
        <time>2016-05-08T09:30:47Z</time>
      </trkpt>
      <trkpt lat="44.52162" lon="4.27631">
        <ele>301.03</ele>
        <time>2016-05-08T09:30:49Z</time>
      </trkpt>
      <trkpt lat="44.52157" lon="4.27634">
        <ele>301.03</ele>
        <time>2016-05-08T09:30:50Z</time>
      </trkpt>
      <trkpt lat="44.52154" lon="4.27636">
        <ele>300.55</ele>
        <time>2016-05-08T09:30:51Z</time>
      </trkpt>
      <trkpt lat="44.52152" lon="4.27639">
        <ele>300.07</ele>
        <time>2016-05-08T09:30:52Z</time>
      </trkpt>
      <trkpt lat="44.52151" lon="4.27641">
        <ele>300.07</ele>
        <time>2016-05-08T09:30:53Z</time>
      </trkpt>
      <trkpt lat="44.52151" lon="4.27644">
        <ele>300.07</ele>
        <time>2016-05-08T09:30:54Z</time>
      </trkpt>
      <trkpt lat="44.52152" lon="4.27646">
        <ele>300.07</ele>
        <time>2016-05-08T09:30:55Z</time>
      </trkpt>
      <trkpt lat="44.52153" lon="4.2765">
        <ele>300.07</ele>
        <time>2016-05-08T09:30:56Z</time>
      </trkpt>
      <trkpt lat="44.52172" lon="4.27674">
        <ele>302.95</ele>
        <time>2016-05-08T09:31:07Z</time>
      </trkpt>
      <trkpt lat="44.52196" lon="4.27686">
        <ele>306.32</ele>
        <time>2016-05-08T09:31:18Z</time>
      </trkpt>
      <trkpt lat="44.52222" lon="4.27702">
        <ele>306.8</ele>
        <time>2016-05-08T09:31:29Z</time>
      </trkpt>
      <trkpt lat="44.52224" lon="4.27703">
        <ele>306.8</ele>
        <time>2016-05-08T09:31:30Z</time>
      </trkpt>
      <trkpt lat="44.5225" lon="4.27719">
        <ele>309.68</ele>
        <time>2016-05-08T09:31:42Z</time>
      </trkpt>
      <trkpt lat="44.52275" lon="4.27731">
        <ele>313.05</ele>
        <time>2016-05-08T09:31:53Z</time>
      </trkpt>
      <trkpt lat="44.52278" lon="4.27734">
        <ele>313.53</ele>
        <time>2016-05-08T09:31:55Z</time>
      </trkpt>
      <trkpt lat="44.5228" lon="4.27735">
        <ele>314.01</ele>
        <time>2016-05-08T09:31:56Z</time>
      </trkpt>
      <trkpt lat="44.523" lon="4.27745">
        <ele>316.89</ele>
        <time>2016-05-08T09:32:06Z</time>
      </trkpt>
      <trkpt lat="44.52317" lon="4.27758">
        <ele>319.3</ele>
        <time>2016-05-08T09:32:18Z</time>
      </trkpt>
      <trkpt lat="44.52319" lon="4.27758">
        <ele>319.78</ele>
        <time>2016-05-08T09:32:19Z</time>
      </trkpt>
      <trkpt lat="44.5232" lon="4.27758">
        <ele>319.78</ele>
        <time>2016-05-08T09:32:20Z</time>
      </trkpt>
      <trkpt lat="44.52321" lon="4.27757">
        <ele>319.78</ele>
        <time>2016-05-08T09:32:21Z</time>
      </trkpt>
      <trkpt lat="44.52322" lon="4.27755">
        <ele>320.26</ele>
        <time>2016-05-08T09:32:22Z</time>
      </trkpt>
      <trkpt lat="44.52323" lon="4.27753">
        <ele>320.26</ele>
        <time>2016-05-08T09:32:23Z</time>
      </trkpt>
      <trkpt lat="44.52324" lon="4.27752">
        <ele>320.26</ele>
        <time>2016-05-08T09:32:24Z</time>
      </trkpt>
      <trkpt lat="44.52326" lon="4.27751">
        <ele>320.74</ele>
        <time>2016-05-08T09:32:25Z</time>
      </trkpt>
      <trkpt lat="44.52335" lon="4.27752">
        <ele>320.74</ele>
        <time>2016-05-08T09:32:29Z</time>
      </trkpt>
      <trkpt lat="44.5234" lon="4.27757">
        <ele>321.22</ele>
        <time>2016-05-08T09:32:32Z</time>
      </trkpt>
      <trkpt lat="44.52347" lon="4.27759">
        <ele>321.7</ele>
        <time>2016-05-08T09:32:46Z</time>
      </trkpt>
      <trkpt lat="44.52347" lon="4.27759">
        <ele>322.66</ele>
        <time>2016-05-08T09:33:15Z</time>
      </trkpt>
      <trkpt lat="44.52355" lon="4.2777">
        <ele>323.62</ele>
        <time>2016-05-08T09:33:22Z</time>
      </trkpt>
      <trkpt lat="44.5237" lon="4.27789">
        <ele>324.58</ele>
        <time>2016-05-08T09:33:32Z</time>
      </trkpt>
      <trkpt lat="44.52384" lon="4.27808">
        <ele>326.02</ele>
        <time>2016-05-08T09:33:38Z</time>
      </trkpt>
      <trkpt lat="44.52416" lon="4.27869">
        <ele>326.5</ele>
        <time>2016-05-08T09:33:50Z</time>
      </trkpt>
      <trkpt lat="44.52419" lon="4.27875">
        <ele>326.5</ele>
        <time>2016-05-08T09:33:51Z</time>
      </trkpt>
      <trkpt lat="44.52422" lon="4.27881">
        <ele>326.02</ele>
        <time>2016-05-08T09:33:52Z</time>
      </trkpt>
      <trkpt lat="44.52428" lon="4.27903">
        <ele>324.58</ele>
        <time>2016-05-08T09:33:57Z</time>
      </trkpt>
      <trkpt lat="44.52427" lon="4.27906">
        <ele>324.58</ele>
        <time>2016-05-08T09:33:58Z</time>
      </trkpt>
      <trkpt lat="44.52425" lon="4.27908">
        <ele>325.06</ele>
        <time>2016-05-08T09:33:59Z</time>
      </trkpt>
      <trkpt lat="44.52422" lon="4.27911">
        <ele>324.58</ele>
        <time>2016-05-08T09:34:00Z</time>
      </trkpt>
      <trkpt lat="44.5242" lon="4.27914">
        <ele>325.06</ele>
        <time>2016-05-08T09:34:01Z</time>
      </trkpt>
      <trkpt lat="44.52417" lon="4.27917">
        <ele>325.06</ele>
        <time>2016-05-08T09:34:02Z</time>
      </trkpt>
      <trkpt lat="44.52414" lon="4.2792">
        <ele>325.06</ele>
        <time>2016-05-08T09:34:03Z</time>
      </trkpt>
      <trkpt lat="44.52386" lon="4.27942">
        <ele>326.99</ele>
        <time>2016-05-08T09:34:14Z</time>
      </trkpt>
      <trkpt lat="44.5233" lon="4.27946">
        <ele>325.54</ele>
        <time>2016-05-08T09:34:26Z</time>
      </trkpt>
      <trkpt lat="44.52315" lon="4.27945">
        <ele>325.54</ele>
        <time>2016-05-08T09:34:29Z</time>
      </trkpt>
      <trkpt lat="44.5231" lon="4.27944">
        <ele>325.54</ele>
        <time>2016-05-08T09:34:30Z</time>
      </trkpt>
      <trkpt lat="44.52301" lon="4.27945">
        <ele>325.06</ele>
        <time>2016-05-08T09:34:33Z</time>
      </trkpt>
      <trkpt lat="44.52296" lon="4.27947">
        <ele>325.06</ele>
        <time>2016-05-08T09:34:35Z</time>
      </trkpt>
      <trkpt lat="44.52292" lon="4.27947">
        <ele>325.06</ele>
        <time>2016-05-08T09:34:36Z</time>
      </trkpt>
      <trkpt lat="44.5228" lon="4.27947">
        <ele>325.06</ele>
        <time>2016-05-08T09:34:39Z</time>
      </trkpt>
      <trkpt lat="44.52276" lon="4.2795">
        <ele>324.58</ele>
        <time>2016-05-08T09:34:40Z</time>
      </trkpt>
      <trkpt lat="44.52273" lon="4.27952">
        <ele>324.58</ele>
        <time>2016-05-08T09:34:41Z</time>
      </trkpt>
      <trkpt lat="44.5227" lon="4.27952">
        <ele>324.58</ele>
        <time>2016-05-08T09:34:42Z</time>
      </trkpt>
      <trkpt lat="44.52267" lon="4.27951">
        <ele>324.58</ele>
        <time>2016-05-08T09:34:43Z</time>
      </trkpt>
      <trkpt lat="44.52264" lon="4.27951">
        <ele>324.58</ele>
        <time>2016-05-08T09:34:44Z</time>
      </trkpt>
      <trkpt lat="44.5226" lon="4.27951">
        <ele>324.1</ele>
        <time>2016-05-08T09:34:45Z</time>
      </trkpt>
      <trkpt lat="44.52255" lon="4.27953">
        <ele>324.1</ele>
        <time>2016-05-08T09:34:46Z</time>
      </trkpt>
      <trkpt lat="44.52248" lon="4.27957">
        <ele>323.62</ele>
        <time>2016-05-08T09:34:47Z</time>
      </trkpt>
      <trkpt lat="44.52242" lon="4.27961">
        <ele>323.62</ele>
        <time>2016-05-08T09:34:48Z</time>
      </trkpt>
      <trkpt lat="44.52236" lon="4.27965">
        <ele>323.62</ele>
        <time>2016-05-08T09:34:49Z</time>
      </trkpt>
      <trkpt lat="44.52229" lon="4.27969">
        <ele>323.14</ele>
        <time>2016-05-08T09:34:50Z</time>
      </trkpt>
      <trkpt lat="44.52224" lon="4.27974">
        <ele>322.18</ele>
        <time>2016-05-08T09:34:51Z</time>
      </trkpt>
      <trkpt lat="44.52219" lon="4.2798">
        <ele>321.22</ele>
        <time>2016-05-08T09:34:52Z</time>
      </trkpt>
      <trkpt lat="44.52215" lon="4.27987">
        <ele>321.22</ele>
        <time>2016-05-08T09:34:53Z</time>
      </trkpt>
      <trkpt lat="44.52212" lon="4.27993">
        <ele>321.22</ele>
        <time>2016-05-08T09:34:54Z</time>
      </trkpt>
      <trkpt lat="44.52205" lon="4.28006">
        <ele>320.74</ele>
        <time>2016-05-08T09:34:56Z</time>
      </trkpt>
      <trkpt lat="44.52199" lon="4.28021">
        <ele>320.26</ele>
        <time>2016-05-08T09:34:58Z</time>
      </trkpt>
      <trkpt lat="44.52195" lon="4.28027">
        <ele>318.33</ele>
        <time>2016-05-08T09:35:01Z</time>
      </trkpt>
      <trkpt lat="44.52195" lon="4.28029">
        <ele>318.33</ele>
        <time>2016-05-08T09:35:03Z</time>
      </trkpt>
      <trkpt lat="44.52196" lon="4.28031">
        <ele>318.33</ele>
        <time>2016-05-08T09:35:04Z</time>
      </trkpt>
      <trkpt lat="44.52197" lon="4.28032">
        <ele>318.33</ele>
        <time>2016-05-08T09:35:05Z</time>
      </trkpt>
      <trkpt lat="44.52198" lon="4.28035">
        <ele>318.33</ele>
        <time>2016-05-08T09:35:06Z</time>
      </trkpt>
      <trkpt lat="44.5222" lon="4.28049">
        <ele>318.33</ele>
        <time>2016-05-08T09:35:11Z</time>
      </trkpt>
      <trkpt lat="44.52225" lon="4.28046">
        <ele>318.33</ele>
        <time>2016-05-08T09:35:12Z</time>
      </trkpt>
      <trkpt lat="44.52237" lon="4.28043">
        <ele>318.81</ele>
        <time>2016-05-08T09:35:14Z</time>
      </trkpt>
      <trkpt lat="44.52243" lon="4.28044">
        <ele>318.81</ele>
        <time>2016-05-08T09:35:15Z</time>
      </trkpt>
      <trkpt lat="44.52266" lon="4.28072">
        <ele>316.41</ele>
        <time>2016-05-08T09:35:22Z</time>
      </trkpt>
      <trkpt lat="44.52275" lon="4.28082">
        <ele>315.45</ele>
        <time>2016-05-08T09:35:24Z</time>
      </trkpt>
      <trkpt lat="44.52314" lon="4.28116">
        <ele>314.01</ele>
        <time>2016-05-08T09:35:34Z</time>
      </trkpt>
      <trkpt lat="44.52327" lon="4.28123">
        <ele>314.01</ele>
        <time>2016-05-08T09:35:37Z</time>
      </trkpt>
      <trkpt lat="44.52331" lon="4.28125">
        <ele>313.53</ele>
        <time>2016-05-08T09:35:38Z</time>
      </trkpt>
      <trkpt lat="44.52335" lon="4.28128">
        <ele>313.05</ele>
        <time>2016-05-08T09:35:39Z</time>
      </trkpt>
      <trkpt lat="44.52343" lon="4.28133">
        <ele>311.6</ele>
        <time>2016-05-08T09:35:41Z</time>
      </trkpt>
      <trkpt lat="44.52348" lon="4.28135">
        <ele>310.64</ele>
        <time>2016-05-08T09:35:42Z</time>
      </trkpt>
      <trkpt lat="44.52351" lon="4.28137">
        <ele>310.16</ele>
        <time>2016-05-08T09:35:43Z</time>
      </trkpt>
      <trkpt lat="44.52354" lon="4.28139">
        <ele>310.16</ele>
        <time>2016-05-08T09:35:44Z</time>
      </trkpt>
      <trkpt lat="44.52357" lon="4.2814">
        <ele>309.2</ele>
        <time>2016-05-08T09:35:45Z</time>
      </trkpt>
      <trkpt lat="44.5236" lon="4.28142">
        <ele>308.72</ele>
        <time>2016-05-08T09:35:46Z</time>
      </trkpt>
      <trkpt lat="44.52363" lon="4.28141">
        <ele>308.72</ele>
        <time>2016-05-08T09:35:47Z</time>
      </trkpt>
      <trkpt lat="44.52366" lon="4.2814">
        <ele>308.24</ele>
        <time>2016-05-08T09:35:48Z</time>
      </trkpt>
      <trkpt lat="44.52371" lon="4.2814">
        <ele>308.24</ele>
        <time>2016-05-08T09:35:49Z</time>
      </trkpt>
      <trkpt lat="44.52375" lon="4.28141">
        <ele>308.24</ele>
        <time>2016-05-08T09:35:50Z</time>
      </trkpt>
      <trkpt lat="44.52377" lon="4.28143">
        <ele>307.76</ele>
        <time>2016-05-08T09:35:51Z</time>
      </trkpt>
      <trkpt lat="44.52379" lon="4.28147">
        <ele>307.76</ele>
        <time>2016-05-08T09:35:52Z</time>
      </trkpt>
      <trkpt lat="44.52382" lon="4.28151">
        <ele>307.28</ele>
        <time>2016-05-08T09:35:53Z</time>
      </trkpt>
      <trkpt lat="44.52384" lon="4.28155">
        <ele>307.28</ele>
        <time>2016-05-08T09:35:54Z</time>
      </trkpt>
      <trkpt lat="44.52387" lon="4.28158">
        <ele>307.28</ele>
        <time>2016-05-08T09:35:55Z</time>
      </trkpt>
      <trkpt lat="44.52395" lon="4.28167">
        <ele>306.8</ele>
        <time>2016-05-08T09:36:04Z</time>
      </trkpt>
      <trkpt lat="44.52395" lon="4.28169">
        <ele>307.28</ele>
        <time>2016-05-08T09:36:25Z</time>
      </trkpt>
      <trkpt lat="44.52396" lon="4.28171">
        <ele>307.28</ele>
        <time>2016-05-08T09:36:26Z</time>
      </trkpt>
      <trkpt lat="44.52396" lon="4.28174">
        <ele>307.76</ele>
        <time>2016-05-08T09:36:27Z</time>
      </trkpt>
      <trkpt lat="44.52399" lon="4.28183">
        <ele>307.76</ele>
        <time>2016-05-08T09:36:30Z</time>
      </trkpt>
      <trkpt lat="44.52412" lon="4.28224">
        <ele>309.68</ele>
        <time>2016-05-08T09:36:41Z</time>
      </trkpt>
      <trkpt lat="44.52428" lon="4.2823">
        <ele>310.16</ele>
        <time>2016-05-08T09:36:46Z</time>
      </trkpt>
      <trkpt lat="44.52465" lon="4.28195">
        <ele>312.09</ele>
        <time>2016-05-08T09:36:59Z</time>
      </trkpt>
      <trkpt lat="44.52496" lon="4.28165">
        <ele>313.53</ele>
        <time>2016-05-08T09:37:12Z</time>
      </trkpt>
      <trkpt lat="44.52528" lon="4.28134">
        <ele>316.41</ele>
        <time>2016-05-08T09:37:28Z</time>
      </trkpt>
      <trkpt lat="44.52541" lon="4.28124">
        <ele>318.81</ele>
        <time>2016-05-08T09:37:35Z</time>
      </trkpt>
      <trkpt lat="44.52552" lon="4.28142">
        <ele>319.78</ele>
        <time>2016-05-08T09:37:43Z</time>
      </trkpt>
      <trkpt lat="44.52568" lon="4.28191">
        <ele>322.66</ele>
        <time>2016-05-08T09:37:59Z</time>
      </trkpt>
      <trkpt lat="44.5258" lon="4.28225">
        <ele>324.1</ele>
        <time>2016-05-08T09:38:10Z</time>
      </trkpt>
      <trkpt lat="44.52594" lon="4.28272">
        <ele>324.58</ele>
        <time>2016-05-08T09:38:24Z</time>
      </trkpt>
      <trkpt lat="44.52616" lon="4.28318">
        <ele>323.62</ele>
        <time>2016-05-08T09:38:33Z</time>
      </trkpt>
      <trkpt lat="44.52624" lon="4.28329">
        <ele>322.18</ele>
        <time>2016-05-08T09:38:35Z</time>
      </trkpt>
      <trkpt lat="44.52629" lon="4.28334">
        <ele>322.18</ele>
        <time>2016-05-08T09:38:36Z</time>
      </trkpt>
      <trkpt lat="44.52634" lon="4.28338">
        <ele>321.7</ele>
        <time>2016-05-08T09:38:37Z</time>
      </trkpt>
      <trkpt lat="44.5264" lon="4.2834">
        <ele>321.7</ele>
        <time>2016-05-08T09:38:38Z</time>
      </trkpt>
      <trkpt lat="44.52646" lon="4.28343">
        <ele>321.7</ele>
        <time>2016-05-08T09:38:39Z</time>
      </trkpt>
      <trkpt lat="44.52669" lon="4.28353">
        <ele>319.78</ele>
        <time>2016-05-08T09:38:43Z</time>
      </trkpt>
      <trkpt lat="44.52684" lon="4.28363">
        <ele>318.33</ele>
        <time>2016-05-08T09:38:46Z</time>
      </trkpt>
      <trkpt lat="44.52688" lon="4.28365">
        <ele>317.85</ele>
        <time>2016-05-08T09:38:47Z</time>
      </trkpt>
      <trkpt lat="44.52708" lon="4.28371">
        <ele>314.01</ele>
        <time>2016-05-08T09:38:52Z</time>
      </trkpt>
      <trkpt lat="44.52723" lon="4.28372">
        <ele>312.09</ele>
        <time>2016-05-08T09:38:56Z</time>
      </trkpt>
      <trkpt lat="44.52725" lon="4.28373">
        <ele>311.6</ele>
        <time>2016-05-08T09:38:57Z</time>
      </trkpt>
      <trkpt lat="44.52725" lon="4.28373">
        <ele>311.12</ele>
        <time>2016-05-08T09:38:58Z</time>
      </trkpt>
      <trkpt lat="44.52725" lon="4.28377">
        <ele>311.12</ele>
        <time>2016-05-08T09:39:03Z</time>
      </trkpt>
      <trkpt lat="44.52724" lon="4.28377">
        <ele>311.12</ele>
        <time>2016-05-08T09:39:04Z</time>
      </trkpt>
      <trkpt lat="44.52724" lon="4.28374">
        <ele>311.12</ele>
        <time>2016-05-08T09:39:06Z</time>
      </trkpt>
      <trkpt lat="44.52724" lon="4.28371">
        <ele>311.12</ele>
        <time>2016-05-08T09:39:09Z</time>
      </trkpt>
      <trkpt lat="44.52723" lon="4.2837">
        <ele>311.12</ele>
        <time>2016-05-08T09:39:10Z</time>
      </trkpt>
      <trkpt lat="44.52722" lon="4.28369">
        <ele>311.12</ele>
        <time>2016-05-08T09:39:11Z</time>
      </trkpt>
      <trkpt lat="44.52721" lon="4.28369">
        <ele>311.6</ele>
        <time>2016-05-08T09:39:12Z</time>
      </trkpt>
      <trkpt lat="44.5272" lon="4.28369">
        <ele>311.6</ele>
        <time>2016-05-08T09:39:13Z</time>
      </trkpt>
      <trkpt lat="44.52718" lon="4.28369">
        <ele>311.6</ele>
        <time>2016-05-08T09:39:14Z</time>
      </trkpt>
      <trkpt lat="44.52718" lon="4.28368">
        <ele>311.6</ele>
        <time>2016-05-08T09:39:15Z</time>
      </trkpt>
      <trkpt lat="44.52706" lon="4.28369">
        <ele>314.49</ele>
        <time>2016-05-08T09:39:27Z</time>
      </trkpt>
      <trkpt lat="44.52698" lon="4.28365">
        <ele>315.93</ele>
        <time>2016-05-08T09:39:37Z</time>
      </trkpt>
      <trkpt lat="44.52693" lon="4.28363">
        <ele>316.89</ele>
        <time>2016-05-08T09:39:41Z</time>
      </trkpt>
      <trkpt lat="44.52678" lon="4.28388">
        <ele>314.97</ele>
        <time>2016-05-08T09:39:49Z</time>
      </trkpt>
      <trkpt lat="44.52675" lon="4.28404">
        <ele>312.57</ele>
        <time>2016-05-08T09:39:52Z</time>
      </trkpt>
      <trkpt lat="44.52672" lon="4.28412">
        <ele>312.57</ele>
        <time>2016-05-08T09:39:54Z</time>
      </trkpt>
      <trkpt lat="44.52669" lon="4.28414">
        <ele>312.57</ele>
        <time>2016-05-08T09:39:55Z</time>
      </trkpt>
      <trkpt lat="44.52666" lon="4.28416">
        <ele>312.09</ele>
        <time>2016-05-08T09:39:56Z</time>
      </trkpt>
      <trkpt lat="44.52657" lon="4.28443">
        <ele>311.12</ele>
        <time>2016-05-08T09:40:02Z</time>
      </trkpt>
      <trkpt lat="44.52656" lon="4.28456">
        <ele>310.16</ele>
        <time>2016-05-08T09:40:04Z</time>
      </trkpt>
      <trkpt lat="44.52655" lon="4.28463">
        <ele>310.16</ele>
        <time>2016-05-08T09:40:05Z</time>
      </trkpt>
      <trkpt lat="44.52653" lon="4.28471">
        <ele>309.68</ele>
        <time>2016-05-08T09:40:06Z</time>
      </trkpt>
      <trkpt lat="44.52652" lon="4.2848">
        <ele>309.2</ele>
        <time>2016-05-08T09:40:07Z</time>
      </trkpt>
      <trkpt lat="44.5265" lon="4.28489">
        <ele>308.72</ele>
        <time>2016-05-08T09:40:08Z</time>
      </trkpt>
      <trkpt lat="44.52648" lon="4.28499">
        <ele>308.24</ele>
        <time>2016-05-08T09:40:09Z</time>
      </trkpt>
      <trkpt lat="44.5264" lon="4.28511">
        <ele>307.76</ele>
        <time>2016-05-08T09:40:10Z</time>
      </trkpt>
      <trkpt lat="44.52629" lon="4.28555">
        <ele>305.84</ele>
        <time>2016-05-08T09:40:13Z</time>
      </trkpt>
      <trkpt lat="44.52629" lon="4.28569">
        <ele>305.36</ele>
        <time>2016-05-08T09:40:14Z</time>
      </trkpt>
      <trkpt lat="44.52629" lon="4.28584">
        <ele>303.43</ele>
        <time>2016-05-08T09:40:15Z</time>
      </trkpt>
      <trkpt lat="44.52631" lon="4.28597">
        <ele>301.99</ele>
        <time>2016-05-08T09:40:16Z</time>
      </trkpt>
      <trkpt lat="44.52655" lon="4.28633">
        <ele>299.11</ele>
        <time>2016-05-08T09:40:21Z</time>
      </trkpt>
      <trkpt lat="44.5267" lon="4.28649">
        <ele>296.7</ele>
        <time>2016-05-08T09:40:24Z</time>
      </trkpt>
      <trkpt lat="44.52684" lon="4.28659">
        <ele>293.82</ele>
        <time>2016-05-08T09:40:27Z</time>
      </trkpt>
      <trkpt lat="44.52685" lon="4.28665">
        <ele>293.34</ele>
        <time>2016-05-08T09:40:28Z</time>
      </trkpt>
      <trkpt lat="44.52685" lon="4.28672">
        <ele>292.86</ele>
        <time>2016-05-08T09:40:29Z</time>
      </trkpt>
      <trkpt lat="44.52675" lon="4.28701">
        <ele>291.9</ele>
        <time>2016-05-08T09:40:33Z</time>
      </trkpt>
      <trkpt lat="44.52671" lon="4.28707">
        <ele>291.9</ele>
        <time>2016-05-08T09:40:34Z</time>
      </trkpt>
      <trkpt lat="44.52667" lon="4.28711">
        <ele>291.42</ele>
        <time>2016-05-08T09:40:35Z</time>
      </trkpt>
      <trkpt lat="44.52663" lon="4.28713">
        <ele>291.42</ele>
        <time>2016-05-08T09:40:36Z</time>
      </trkpt>
      <trkpt lat="44.52659" lon="4.28715">
        <ele>291.42</ele>
        <time>2016-05-08T09:40:37Z</time>
      </trkpt>
      <trkpt lat="44.52656" lon="4.28717">
        <ele>291.42</ele>
        <time>2016-05-08T09:40:38Z</time>
      </trkpt>
      <trkpt lat="44.52653" lon="4.28718">
        <ele>291.42</ele>
        <time>2016-05-08T09:40:39Z</time>
      </trkpt>
      <trkpt lat="44.52644" lon="4.28722">
        <ele>290.46</ele>
        <time>2016-05-08T09:40:42Z</time>
      </trkpt>
      <trkpt lat="44.52638" lon="4.28722">
        <ele>289.49</ele>
        <time>2016-05-08T09:40:45Z</time>
      </trkpt>
      <trkpt lat="44.5264" lon="4.28724">
        <ele>289.01</ele>
        <time>2016-05-08T09:40:48Z</time>
      </trkpt>
      <trkpt lat="44.52641" lon="4.28724">
        <ele>289.01</ele>
        <time>2016-05-08T09:40:49Z</time>
      </trkpt>
      <trkpt lat="44.52642" lon="4.28722">
        <ele>289.01</ele>
        <time>2016-05-08T09:40:50Z</time>
      </trkpt>
      <trkpt lat="44.52643" lon="4.28721">
        <ele>289.01</ele>
        <time>2016-05-08T09:40:51Z</time>
      </trkpt>
      <trkpt lat="44.52644" lon="4.28721">
        <ele>289.49</ele>
        <time>2016-05-08T09:40:52Z</time>
      </trkpt>
      <trkpt lat="44.52669" lon="4.28723">
        <ele>289.01</ele>
        <time>2016-05-08T09:41:00Z</time>
      </trkpt>
      <trkpt lat="44.52673" lon="4.28723">
        <ele>288.53</ele>
        <time>2016-05-08T09:41:01Z</time>
      </trkpt>
      <trkpt lat="44.52678" lon="4.28723">
        <ele>288.53</ele>
        <time>2016-05-08T09:41:02Z</time>
      </trkpt>
      <trkpt lat="44.52682" lon="4.28724">
        <ele>287.09</ele>
        <time>2016-05-08T09:41:03Z</time>
      </trkpt>
      <trkpt lat="44.52684" lon="4.28726">
        <ele>286.61</ele>
        <time>2016-05-08T09:41:04Z</time>
      </trkpt>
      <trkpt lat="44.52685" lon="4.28729">
        <ele>286.61</ele>
        <time>2016-05-08T09:41:05Z</time>
      </trkpt>
      <trkpt lat="44.52684" lon="4.28733">
        <ele>286.61</ele>
        <time>2016-05-08T09:41:06Z</time>
      </trkpt>
      <trkpt lat="44.52682" lon="4.28738">
        <ele>286.61</ele>
        <time>2016-05-08T09:41:07Z</time>
      </trkpt>
      <trkpt lat="44.5268" lon="4.28743">
        <ele>286.13</ele>
        <time>2016-05-08T09:41:08Z</time>
      </trkpt>
      <trkpt lat="44.52677" lon="4.2875">
        <ele>286.13</ele>
        <time>2016-05-08T09:41:09Z</time>
      </trkpt>
      <trkpt lat="44.52674" lon="4.28758">
        <ele>286.13</ele>
        <time>2016-05-08T09:41:10Z</time>
      </trkpt>
      <trkpt lat="44.5267" lon="4.28766">
        <ele>286.13</ele>
        <time>2016-05-08T09:41:11Z</time>
      </trkpt>
      <trkpt lat="44.52666" lon="4.28773">
        <ele>286.13</ele>
        <time>2016-05-08T09:41:12Z</time>
      </trkpt>
      <trkpt lat="44.5266" lon="4.2878">
        <ele>285.65</ele>
        <time>2016-05-08T09:41:13Z</time>
      </trkpt>
      <trkpt lat="44.52654" lon="4.28786">
        <ele>285.17</ele>
        <time>2016-05-08T09:41:14Z</time>
      </trkpt>
      <trkpt lat="44.52648" lon="4.28792">
        <ele>284.69</ele>
        <time>2016-05-08T09:41:15Z</time>
      </trkpt>
      <trkpt lat="44.52643" lon="4.288">
        <ele>284.21</ele>
        <time>2016-05-08T09:41:16Z</time>
      </trkpt>
      <trkpt lat="44.52638" lon="4.28809">
        <ele>283.25</ele>
        <time>2016-05-08T09:41:17Z</time>
      </trkpt>
      <trkpt lat="44.52634" lon="4.28819">
        <ele>282.77</ele>
        <time>2016-05-08T09:41:18Z</time>
      </trkpt>
      <trkpt lat="44.5263" lon="4.28828">
        <ele>282.28</ele>
        <time>2016-05-08T09:41:19Z</time>
      </trkpt>
      <trkpt lat="44.52625" lon="4.28837">
        <ele>281.8</ele>
        <time>2016-05-08T09:41:20Z</time>
      </trkpt>
      <trkpt lat="44.52602" lon="4.28873">
        <ele>279.88</ele>
        <time>2016-05-08T09:41:26Z</time>
      </trkpt>
      <trkpt lat="44.52603" lon="4.28877">
        <ele>279.4</ele>
        <time>2016-05-08T09:41:27Z</time>
      </trkpt>
      <trkpt lat="44.52605" lon="4.28881">
        <ele>279.88</ele>
        <time>2016-05-08T09:41:28Z</time>
      </trkpt>
      <trkpt lat="44.52615" lon="4.28903">
        <ele>278.92</ele>
        <time>2016-05-08T09:41:32Z</time>
      </trkpt>
      <trkpt lat="44.52617" lon="4.2891">
        <ele>278.92</ele>
        <time>2016-05-08T09:41:33Z</time>
      </trkpt>
      <trkpt lat="44.52619" lon="4.28918">
        <ele>278.92</ele>
        <time>2016-05-08T09:41:34Z</time>
      </trkpt>
      <trkpt lat="44.52626" lon="4.2896">
        <ele>281.32</ele>
        <time>2016-05-08T09:41:40Z</time>
      </trkpt>
      <trkpt lat="44.52628" lon="4.28966">
        <ele>281.8</ele>
        <time>2016-05-08T09:41:41Z</time>
      </trkpt>
      <trkpt lat="44.52631" lon="4.28971">
        <ele>282.77</ele>
        <time>2016-05-08T09:41:42Z</time>
      </trkpt>
      <trkpt lat="44.52635" lon="4.28975">
        <ele>283.25</ele>
        <time>2016-05-08T09:41:43Z</time>
      </trkpt>
      <trkpt lat="44.52639" lon="4.28978">
        <ele>283.73</ele>
        <time>2016-05-08T09:41:44Z</time>
      </trkpt>
      <trkpt lat="44.52642" lon="4.2898">
        <ele>284.21</ele>
        <time>2016-05-08T09:41:45Z</time>
      </trkpt>
      <trkpt lat="44.52662" lon="4.29">
        <ele>287.09</ele>
        <time>2016-05-08T09:41:52Z</time>
      </trkpt>
      <trkpt lat="44.52685" lon="4.29014">
        <ele>289.97</ele>
        <time>2016-05-08T09:41:59Z</time>
      </trkpt>
      <trkpt lat="44.52718" lon="4.29029">
        <ele>291.42</ele>
        <time>2016-05-08T09:42:13Z</time>
      </trkpt>
      <trkpt lat="44.52752" lon="4.29038">
        <ele>294.78</ele>
        <time>2016-05-08T09:42:27Z</time>
      </trkpt>
      <trkpt lat="44.52785" lon="4.29051">
        <ele>298.15</ele>
        <time>2016-05-08T09:42:39Z</time>
      </trkpt>
      <trkpt lat="44.52798" lon="4.29058">
        <ele>299.59</ele>
        <time>2016-05-08T09:42:44Z</time>
      </trkpt>
      <trkpt lat="44.528" lon="4.29061">
        <ele>300.07</ele>
        <time>2016-05-08T09:42:45Z</time>
      </trkpt>
      <trkpt lat="44.528" lon="4.29064">
        <ele>300.55</ele>
        <time>2016-05-08T09:42:46Z</time>
      </trkpt>
      <trkpt lat="44.528" lon="4.29067">
        <ele>301.03</ele>
        <time>2016-05-08T09:42:47Z</time>
      </trkpt>
      <trkpt lat="44.52799" lon="4.2907">
        <ele>301.03</ele>
        <time>2016-05-08T09:42:48Z</time>
      </trkpt>
      <trkpt lat="44.52798" lon="4.29073">
        <ele>301.03</ele>
        <time>2016-05-08T09:42:49Z</time>
      </trkpt>
      <trkpt lat="44.52784" lon="4.29141">
        <ele>301.51</ele>
        <time>2016-05-08T09:43:05Z</time>
      </trkpt>
      <trkpt lat="44.52774" lon="4.292">
        <ele>301.99</ele>
        <time>2016-05-08T09:43:18Z</time>
      </trkpt>
      <trkpt lat="44.52781" lon="4.29231">
        <ele>301.99</ele>
        <time>2016-05-08T09:43:26Z</time>
      </trkpt>
      <trkpt lat="44.52784" lon="4.29233">
        <ele>302.47</ele>
        <time>2016-05-08T09:43:27Z</time>
      </trkpt>
      <trkpt lat="44.52788" lon="4.29234">
        <ele>302.95</ele>
        <time>2016-05-08T09:43:28Z</time>
      </trkpt>
      <trkpt lat="44.52792" lon="4.29234">
        <ele>302.95</ele>
        <time>2016-05-08T09:43:29Z</time>
      </trkpt>
      <trkpt lat="44.52795" lon="4.29234">
        <ele>303.43</ele>
        <time>2016-05-08T09:43:30Z</time>
      </trkpt>
      <trkpt lat="44.52828" lon="4.29233">
        <ele>306.32</ele>
        <time>2016-05-08T09:43:40Z</time>
      </trkpt>
      <trkpt lat="44.52834" lon="4.29231">
        <ele>306.8</ele>
        <time>2016-05-08T09:43:43Z</time>
      </trkpt>
      <trkpt lat="44.52835" lon="4.29229">
        <ele>306.8</ele>
        <time>2016-05-08T09:43:45Z</time>
      </trkpt>
      <trkpt lat="44.52834" lon="4.29228">
        <ele>306.8</ele>
        <time>2016-05-08T09:43:46Z</time>
      </trkpt>
      <trkpt lat="44.52832" lon="4.29227">
        <ele>306.8</ele>
        <time>2016-05-08T09:43:47Z</time>
      </trkpt>
      <trkpt lat="44.52827" lon="4.29223">
        <ele>306.32</ele>
        <time>2016-05-08T09:43:50Z</time>
      </trkpt>
      <trkpt lat="44.52825" lon="4.29224">
        <ele>306.32</ele>
        <time>2016-05-08T09:43:52Z</time>
      </trkpt>
      <trkpt lat="44.52824" lon="4.29224">
        <ele>305.84</ele>
        <time>2016-05-08T09:44:00Z</time>
      </trkpt>
      <trkpt lat="44.52827" lon="4.29227">
        <ele>305.36</ele>
        <time>2016-05-08T09:44:07Z</time>
      </trkpt>
      <trkpt lat="44.52829" lon="4.29227">
        <ele>305.36</ele>
        <time>2016-05-08T09:44:16Z</time>
      </trkpt>
    </trkseg>
  </trk>
</gpx>